[[{"header":{"parameterUnit":"m.s-1","parameterCategory":1,"la1":31.0,"la2":29.5877,"lo1":-88.7671,"lo2":-86.6584,"dy":0.0162,"dx":0.0185,"nx":115,"ny":88,"refTime":"2023-10-08T06:00:00:Z","depth":0,"parameterNumber":2,"parameterNumberName":"U-component_of_WINDS"},"data":[0.0,0.0,0.0,0.0,0.0,0.0,0.0,0.0,0.0,0.0,0.0,0.0,0.0,0.0,0.0,0.0,0.0,0.0,0.0,0.0,0.0,0.0,0.0,0.0,0.0,0.0,0.0,0.0,0.0,0.0,0.0,0.0,0.0,0.0,0.0,0.0,0.0,0.0,0.0,0.0,0.0,0.0,0.0,0.0,0.0,0.0,0.0,0.0,0.0,0.0,0.0,0.0,0.0,0.0,0.0,0.0,0.0,0.0,0.0,0.0,0.0,0.0,0.0,0.0,0.0,0.0,0.0,0.0,0.0,0.0,0.0,0.0,0.0,0.0,0.0,0.0,0.0,0.0,0.0,0.0,0.0,0.0,0.0,0.0,0.0,0.0,0.0,0.0,0.0,0.0,0.0,0.0,0.0,0.0,0.0,0.0,0.0,0.0,0.0,0.0,0.0,0.0,0.0,0.0,0.0,0.0,0.0,0.0,0.0,0.0,0.0,0.0,0.0,0.0,0.0,0.0,0.0,0.0,0.0,0.0,0.0,0.0,0.0,0.0,0.0,0.0,0.0,0.0,0.0,0.0,0.0,0.0,0.0,0.0,0.0,0.0,0.0,0.0,0.0,0.0,0.0,0.0,0.0,0.0,0.0,0.0,0.0,0.0,0.0,0.0,0.0,0.0,0.0,0.0,0.0,0.0,0.0,0.0,0.0,0.0,0.0,0.0,0.0,0.0,0.0,0.0,0.0,0.0,0.0,0.0,0.0,0.0,0.0,0.0,0.0,0.0,0.0,0.0,0.0,0.0,0.0,0.0,0.0,0.0,0.0,0.0,0.0,0.0,0.0,0.0,0.0,0.0,0.0,0.0,0.0,0.0,0.0,0.0,0.0,0.0,0.0,0.0,0.0,0.0,0.0,0.0,0.0,0.0,0.0,0.0,0.0,0.0,0.0,0.0,0.0,0.0,0.0,0.0,0.0,0.0,0.0,0.0,0.0,0.0,0.0,0.0,0.0,0.0,0.0,0.0,0.0,0.0,0.0,0.0,0.0,0.0,0.0,0.0,0.0,0.0,0.0,0.0,0.0,0.0,0.0,0.0,0.0,0.0,0.0,0.0,0.0,0.0,0.0,0.0,0.0,0.0,0.0,0.0,0.0,0.0,0.0,0.0,0.0,0.0,0.0,0.0,0.0,0.0,0.0,0.0,0.0,0.0,0.0,0.0,0.0,0.0,0.0,0.0,0.0,0.0,0.0,0.0,0.0,0.0,0.0,0.0,0.0,0.0,0.0,0.0,0.0,0.0,0.0,0.0,0.0,0.0,0.0,0.0,0.0,0.0,0.0,0.0,0.0,0.0,0.0,0.0,0.0,0.0,0.0,0.0,0.0,0.0,0.0,0.0,0.0,0.0,0.0,0.0,0.0,0.0,0.0,0.0,0.0,0.0,0.0,0.0,0.0,0.0,0.0,0.0,0.0,0.0,0.0,0.0,0.0,0.0,0.0,0.0,0.0,0.0,0.0,0.0,0.0,0.0,0.0,0.0,0.0,0.0,0.0,0.0,0.0,0.0,0.0,0.0,0.0,0.0,0.0,0.0,0.0,0.0,0.0,0.0,0.0,0.0,0.0,0.0,0.0,0.0,0.0,0.0,0.0,0.0,0.0,0.0,0.0,0.0,0.0,0.0,0.0,0.0,0.0,0.0,0.0,0.0,0.0,0.0,0.0,0.0,0.0,0.0,0.0,0.0,0.0,0.0,0.0,0.0,0.0,0.0,0.0,0.0,0.0,0.0,0.0,0.0,0.0,0.0,0.0,0.0,0.0,0.0,0.0,0.0,0.0,0.0,0.0,0.0,0.0,0.0,0.0,0.0,0.0,0.0,0.0,0.0,0.0,0.0,0.0,0.0,0.0,0.0,0.0,0.0,0.0,0.0,0.0,0.0,0.0,0.0,0.0,0.0,0.0,0.0,0.0,0.0,0.0,0.0,0.0,0.0,0.0,0.0,0.0,0.0,0.0,0.0,0.0,0.0,0.0,0.0,0.0,0.0,0.0,0.0,0.0,0.0,0.0,0.0,0.0,0.0,0.0,0.0,0.0,0.0,0.0,0.0,0.0,0.0,0.0,0.0,0.0,0.0,0.0,0.0,0.0,0.0,0.0,0.0,0.0,0.0,0.0,0.0,0.0,0.0,0.0,0.0,0.0,0.0,0.0,0.0,0.0,0.0,0.0,0.0,0.0,0.0,0.0,0.0,0.0,0.0,0.0,0.0,0.0,0.0,0.0,0.0,0.0,0.0,0.0,0.0,0.0,0.0,0.0,0.0,0.0,0.0,0.0,0.0,0.0,0.0,0.0,0.0,0.0,0.0,0.0,0.0,0.0,0.0,0.0,0.0,0.0,0.0,0.0,0.0,0.0,0.0,0.0,0.0,0.0,0.0,0.0,0.0,0.0,0.0,0.0,0.0,0.0,0.0,0.0,0.0,0.0,0.0,0.0,0.0,0.0,0.0,0.0,0.0,0.0,0.0,0.0,0.0,0.0,0.0,0.0,0.0,0.0,0.0,0.0,0.0,0.0,0.0,0.0,0.0,0.0,0.0,0.0,0.0,0.0,0.0,0.0,0.0,0.0,0.0,0.0,0.0,0.0,0.0,0.0,0.0,0.0,0.0,0.0,0.0,0.0,0.0,0.0,0.0,0.0,0.0,0.0,0.0,0.0,0.0,0.0,0.0,0.0,0.0,0.0,0.0,0.0,0.0,0.0,0.0,0.0,0.0,0.0,0.0,0.0,0.0,0.0,0.0,0.0,0.0,0.0,0.0,0.0,0.0,0.0,0.0,0.0,0.0,0.0,0.0,0.0,0.0,0.0,0.0,0.0,0.0,0.0,0.0,0.0,0.0,0.0,0.0,0.0,0.0,0.0,0.0,0.0,0.0,0.0,0.0,0.0,0.0,0.0,0.0,0.0,0.0,0.0,0.0,0.0,0.0,0.0,0.0,0.0,0.0,0.0,0.0,0.0,0.0,0.0,0.0,0.0,0.0,0.0,0.0,0.0,0.0,0.0,0.0,0.0,0.0,0.0,0.0,0.0,0.0,0.0,0.0,0.0,0.0,0.0,0.0,0.0,0.0,0.0,0.0,0.0,0.0,0.0,0.0,0.0,0.0,0.0,0.0,0.0,0.0,0.0,0.0,0.0,0.0,0.0,0.0,0.0,0.0,0.0,0.0,0.0,0.0,0.0,0.0,0.0,0.0,0.0,0.0,0.0,0.0,0.0,0.0,0.0,0.0,0.0,0.0,0.0,0.0,0.0,0.0,0.0,0.0,0.0,0.0,0.0,0.0,0.0,0.0,0.0,0.0,0.0,0.0,0.0,0.0,0.0,0.0,0.0,0.0,0.0,0.0,0.0,0.0,0.0,0.0,0.0,0.0,0.0,0.0,0.0,0.0,0.0,0.0,0.0,0.0,0.0,0.0,0.0,0.0,0.0,0.0,0.0,0.0,0.0,0.0,0.0,0.0,0.0,0.0,0.0,0.0,0.0,0.0,0.0,0.0,0.0,0.0,0.0,0.0,0.0,0.0,0.0,0.0,0.0,0.0,0.0,0.0,0.0,0.0,0.0,0.0,0.0,0.0,0.0,0.0,0.0,0.0,0.0,0.0,0.0,0.0,0.0,0.0,0.0,0.0,0.0,0.0,0.0,0.0,0.0,0.0,0.0,0.0,0.0,0.0,0.0,0.0,0.0,0.0,0.0,0.0,0.0,0.0,0.0,0.0,0.0,0.0,0.0,0.0,0.0,0.0,0.0,0.0,0.0,0.0,0.0,0.0,0.0,0.0,0.0,0.0,0.0,0.0,0.0,0.0,0.0,0.0,0.0,0.0,0.0,0.0,0.0,0.0,0.0,0.0,0.0,0.0,0.0,0.0,0.0,0.0,0.0,0.0,0.0,0.0,0.0,0.0,0.0,0.0,0.0,0.0,0.0,0.0,0.0,0.0,0.0,0.0,0.0,0.0,0.0,0.0,0.0,0.0,0.0,0.0,0.0,0.0,0.0,0.0,0.0,0.0,0.0,0.0,0.0,0.0,0.0,0.0,0.0,0.0,0.0,0.0,0.0,0.0,0.0,0.0,0.0,0.0,0.0,0.0,0.0,0.0,0.0,0.0,0.0,0.0,0.0,0.0,0.0,0.0,0.0,0.0,0.0,0.0,0.0,0.0,0.0,0.0,0.0,0.0,0.0,0.0,0.0,0.0,0.0,0.0,0.0,0.0,0.0,0.0,0.0,0.0,0.9954,0.0,0.0,0.0,0.0,0.0,0.0,0.0,0.0,0.0,0.0,0.0,0.0,0.0,0.0,0.0,0.0,0.0,0.0,0.0,0.0,0.0,0.0,0.0,0.0,0.0,0.0,0.0,0.0,0.0,0.0,0.0,0.0,0.0,0.0,0.0,0.0,0.0,0.0,0.0,0.0,0.0,0.0,0.0,0.0,0.0,0.0,0.0,0.0,0.0,0.0,0.0,0.0,0.0,0.0,0.0,0.0,0.0,0.0,0.0,0.0,0.0,0.0,0.0,0.0,0.0,0.0,0.0,0.0,0.0,0.0,0.0,0.0,0.0,0.0,0.0,0.0,0.0,0.0,0.0,0.0,0.0,0.0,0.0,0.0,0.0,0.0,0.0,0.0,0.0,0.0,0.0,0.0,0.0,0.0,0.0,0.0,0.0,0.0,0.0,0.0,0.0,0.0,0.0,0.0,0.0,0.0,0.0,0.0,0.0,0.0,1.1134,1.0891,1.0774,1.0617,1.0461,0.0,0.0,0.0,0.0,0.0,0.0,0.0,0.0,0.0,0.0,0.0,0.0,0.0,0.0,0.0,0.0,0.0,0.0,0.0,0.0,0.0,0.0,0.0,0.0,0.0,0.0,0.0,0.0,0.0,0.0,0.0,0.0,0.0,0.0,0.0,0.0,0.0,0.0,0.0,0.0,0.0,0.0,0.0,0.0,0.0,0.0,0.0,0.0,0.0,0.0,0.0,0.0,0.0,0.0,0.0,0.0,0.0,0.0,0.0,0.0,0.0,0.0,0.0,0.0,0.0,0.0,0.0,0.0,0.0,0.0,0.0,0.0,0.0,0.0,0.0,0.0,0.0,0.0,0.0,0.0,0.0,0.0,0.0,0.0,0.0,0.0,0.0,0.0,0.0,0.0,0.0,0.0,0.0,0.0,0.0,0.0,0.0,0.0,0.0,0.0,0.0,0.0,0.0,0.0,0.0,0.0,0.0,0.0,0.0,0.0,0.0,0.0,1.1042,1.088,1.0829,0.0,0.0,0.0,0.0,0.0,0.0,0.0,0.0,0.0,0.0,0.0,0.0,0.0,0.0,0.0,0.0,0.0,0.0,0.0,0.0,0.0,0.0,0.0,0.0,0.0,0.0,0.0,0.0,0.0,0.0,0.0,0.0,0.0,0.0,0.0,0.0,0.0,0.0,0.0,0.0,0.0,0.0,0.0,0.0,0.0,0.0,0.0,0.0,0.0,0.0,0.0,0.0,0.0,0.0,0.0,0.0,0.0,0.0,0.0,0.0,0.0,0.0,0.0,0.0,0.0,0.0,0.0,0.0,0.0,0.0,0.0,0.0,0.0,0.0,0.0,0.0,0.0,0.0,0.0,0.0,0.0,0.0,0.0,0.0,0.0,0.0,0.0,0.0,0.0,0.0,0.0,0.0,0.0,0.0,0.0,0.0,0.0,0.0,0.0,0.0,0.0,0.0,0.0,0.0,0.0,0.0,0.0,0.0,0.0,0.0,1.184,1.1565,1.1214,0.0,1.0638,0.0,0.0,0.0,0.0,0.0,0.0,0.0,0.0,0.0,0.0,0.0,0.0,0.0,0.0,0.0,0.0,0.0,0.0,0.0,0.0,0.0,0.0,0.0,0.0,0.0,0.0,0.0,0.0,0.0,0.0,0.0,0.0,0.0,0.0,0.0,0.0,0.0,0.0,0.0,0.0,0.0,0.0,0.0,0.0,0.0,0.0,0.0,0.0,0.0,0.0,0.0,0.0,0.0,0.0,0.0,0.0,0.0,0.0,0.0,0.0,0.0,0.0,0.0,0.0,0.0,0.0,0.0,0.0,0.0,0.0,0.0,0.0,0.0,0.0,0.0,0.0,0.0,0.0,0.0,0.0,0.0,0.0,0.0,0.0,0.0,0.0,0.0,0.0,0.0,0.0,0.0,0.0,0.0,0.0,0.0,0.0,0.0,0.0,0.0,0.0,0.0,0.0,0.0,0.0,0.0,0.0,0.0,0.0,0.0,0.0,1.2031,1.1645,1.1352,1.1142,0.0,0.0,0.0,0.0,0.0,0.0,0.0,0.0,0.0,0.0,0.0,0.0,0.0,0.0,0.0,0.0,0.0,0.0,0.0,0.0,0.0,0.0,0.0,0.0,0.0,0.0,0.0,0.0,0.0,0.0,0.0,0.0,0.0,0.0,0.0,0.0,0.0,0.0,0.0,0.0,0.0,0.0,0.0,0.0,0.0,0.0,0.0,0.0,0.0,0.0,0.0,0.0,0.0,0.0,0.0,0.0,0.0,0.0,0.0,0.0,0.0,0.0,0.0,0.0,0.0,0.0,0.0,0.0,0.0,0.0,0.0,0.0,0.0,0.0,0.0,0.0,0.0,0.0,0.0,0.0,0.0,0.0,0.0,0.0,0.0,0.0,0.0,0.0,0.0,0.0,0.0,0.0,0.0,0.0,0.0,0.0,0.0,0.0,0.0,0.0,0.0,0.0,0.0,0.0,0.0,0.0,0.0,0.0,0.0,0.0,1.2624,1.2371,1.1923,1.1651,1.1435,1.1305,0.0,0.0,0.0,0.0,0.0,0.0,0.0,0.0,0.0,0.0,0.0,0.0,0.0,0.0,0.0,0.0,0.0,0.0,0.0,0.0,0.0,0.0,0.0,0.0,0.0,0.0,0.0,0.0,0.0,0.0,0.0,0.0,0.0,0.0,0.0,0.0,0.0,0.0,0.0,0.0,0.0,0.0,0.0,0.0,0.0,0.0,0.0,0.0,0.0,0.0,0.0,0.0,0.0,0.0,0.0,0.0,0.0,0.0,0.0,0.0,0.0,0.0,0.0,0.0,0.0,0.0,0.0,0.0,0.0,0.0,0.0,0.0,0.0,0.0,0.0,0.0,0.0,0.0,0.0,0.0,0.0,0.0,0.0,0.0,0.0,0.0,0.0,0.0,0.0,0.0,0.0,0.0,0.0,0.0,0.0,0.0,0.0,0.0,0.0,0.0,0.0,0.0,0.0,0.0,0.0,0.0,0.0,0.0,1.3414,1.3188,1.2856,1.2359,1.2131,1.1748,0.0,0.0,0.0,0.0,0.0,0.0,0.0,0.0,0.0,0.0,0.0,0.0,0.0,0.0,0.0,0.0,0.0,0.0,0.0,0.0,0.0,0.0,0.0,0.0,0.0,0.0,0.0,0.0,0.0,0.0,0.0,0.0,0.0,0.0,0.0,0.0,0.0,0.0,0.0,0.0,0.0,0.0,0.0,0.0,0.0,0.0,0.0,0.0,0.0,0.0,0.0,0.0,0.0,0.0,0.0,0.0,0.0,0.0,0.0,0.0,0.0,0.0,0.0,0.0,0.0,0.0,0.0,0.0,0.0,0.0,0.0,0.0,0.0,0.0,0.0,0.0,0.0,0.0,0.0,0.0,0.0,0.0,0.0,0.0,0.0,0.0,0.0,0.0,0.0,0.0,0.0,0.0,0.0,0.0,0.0,0.0,0.0,0.0,0.0,0.0,0.0,0.0,0.0,0.0,0.0,0.0,0.0,0.0,0.0,1.3223,1.319,1.3109,1.288,1.2473,1.2159,0.0,0.0,0.0,0.0,0.0,0.0,0.0,0.0,0.0,0.0,0.0,0.0,0.0,0.0,0.0,0.0,0.0,0.0,0.0,0.0,0.0,0.0,0.0,0.0,0.0,0.0,0.0,0.0,0.0,0.0,0.0,0.0,0.0,0.0,0.0,0.0,0.0,0.0,0.0,0.0,0.0,0.0,0.0,0.0,0.0,0.0,0.0,0.0,0.0,0.0,0.0,0.0,0.0,0.0,0.0,0.0,0.0,0.0,0.0,0.0,0.0,0.0,0.0,0.0,0.0,0.0,0.0,0.0,0.0,0.0,0.0,0.0,0.0,0.0,0.0,0.0,0.0,0.0,0.0,0.0,0.0,0.0,0.0,0.0,0.0,0.0,0.0,0.0,0.0,0.0,0.0,0.0,0.0,0.0,0.0,0.0,0.0,0.0,0.0,0.0,0.0,0.0,0.0,0.0,0.0,0.0,0.0,0.0,0.0,1.3344,0.0,1.3411,1.3319,1.2825,1.2495,0.0,0.0,0.0,0.0,0.0,0.0,0.0,0.0,0.0,0.0,0.0,0.0,0.0,0.0,0.0,0.0,0.0,0.0,0.0,0.0,0.0,0.0,0.0,0.0,0.0,0.0,0.0,0.0,0.0,0.0,0.0,0.0,0.0,0.0,0.0,0.0,0.0,0.0,0.0,0.0,0.0,0.0,0.0,0.0,0.0,0.0,0.0,0.0,0.0,0.0,0.0,0.0,0.0,0.0,0.0,0.0,0.0,0.0,0.0,0.0,0.0,0.0,0.0,0.0,0.0,0.0,0.0,0.0,0.0,0.0,0.0,0.0,0.0,0.0,0.0,0.0,0.0,0.0,0.0,0.0,0.0,0.0,0.0,0.0,0.0,0.0,0.0,0.0,0.0,0.0,0.0,0.0,0.0,0.0,0.0,0.0,0.0,0.0,0.0,0.0,0.0,0.0,0.0,0.0,0.0,0.0,0.0,0.0,1.3625,1.3859,1.3897,1.3812,1.3625,1.3113,1.2711,0.0,0.0,0.0,0.0,0.0,0.0,0.0,0.0,0.0,0.0,0.0,0.0,0.0,0.0,0.0,0.0,0.0,0.0,0.0,0.0,0.0,0.0,0.0,0.0,0.0,0.0,0.0,0.0,0.0,0.0,0.0,0.0,0.0,0.0,0.0,0.0,0.0,0.0,0.0,0.0,0.0,0.0,0.0,0.0,0.0,0.0,0.0,0.0,0.0,0.0,0.0,0.0,0.0,0.0,0.0,0.0,0.0,0.0,0.0,0.0,0.0,0.0,0.0,0.0,0.0,0.0,0.0,0.0,0.0,0.0,0.0,0.0,0.0,0.0,0.0,0.0,0.0,0.0,0.0,0.0,0.0,0.0,0.0,0.0,0.0,0.0,0.0,0.0,0.0,0.0,0.0,0.0,0.0,0.0,0.0,0.0,0.0,0.0,0.0,0.0,0.0,0.0,0.0,0.0,0.0,0.0,0.0,0.0,0.0,1.3895,1.4076,1.4124,1.4076,1.3577,1.3258,0.0,0.0,0.0,0.0,0.0,0.0,0.0,0.0,0.0,0.0,0.0,0.0,0.0,0.0,0.0,0.0,0.0,0.0,0.0,0.0,0.0,0.0,0.0,0.0,0.0,0.0,0.0,0.0,0.0,0.0,0.0,0.0,0.0,0.0,0.0,0.0,0.0,0.0,0.0,0.0,0.0,0.0,0.0,0.0,0.0,0.0,0.0,0.0,0.0,0.0,0.0,0.0,0.0,0.0,0.0,0.0,0.0,0.0,0.0,0.0,0.0,0.0,0.0,0.0,0.0,0.0,0.0,0.0,0.0,0.0,0.0,0.0,0.0,0.0,0.0,0.0,0.0,0.0,0.0,0.0,0.0,0.0,0.0,0.0,0.0,0.0,0.0,0.0,0.0,0.0,0.0,0.0,0.0,0.0,0.0,0.0,0.0,0.0,0.0,0.0,0.0,0.0,0.0,0.0,0.0,0.0,0.0,0.0,0.0,1.3768,1.3945,1.4144,1.4404,1.3667,1.333,1.3487,0.0,0.0,0.0,0.0,0.0,0.0,0.0,0.0,0.0,0.0,0.0,0.0,0.0,0.0,0.0,0.0,0.0,0.0,0.0,0.0,0.0,0.0,0.0,0.0,0.0,0.0,0.0,0.0,0.0,0.0,0.0,0.0,0.0,0.0,0.0,0.0,0.0,0.0,0.0,0.0,0.0,0.0,0.0,0.0,0.0,0.0,0.0,0.0,0.0,0.0,0.0,0.0,0.0,0.0,0.0,0.0,0.0,0.0,0.0,0.0,0.0,0.0,0.0,0.0,0.0,0.0,0.0,0.0,0.0,0.0,0.0,0.0,0.0,0.0,0.0,0.0,0.0,0.0,0.0,0.0,0.0,0.0,0.0,0.0,0.0,0.0,0.0,0.0,0.0,0.0,0.0,0.0,0.0,0.0,0.0,0.0,0.0,0.0,0.0,0.0,0.0,0.0,0.0,0.0,0.0,0.0,0.0,0.0,1.3615,1.3562,1.3815,1.4466,1.3495,1.3118,0.0,0.0,0.0,0.0,0.0,0.0,0.0,0.0,0.0,0.0,0.0,0.0,0.0,0.0,0.0,0.0,0.0,0.0,0.0,0.0,0.0,0.0,0.0,0.0,0.0,0.0,0.0,0.0,0.0,0.0,0.0,0.0,0.0,0.0,0.0,0.0,0.0,0.0,0.0,0.0,0.0,0.0,0.0,0.0,0.0,0.0,0.0,0.0,0.0,0.0,0.0,0.0,0.0,0.0,0.0,0.0,0.0,0.0,0.0,0.0,0.0,0.0,0.0,0.0,0.0,0.0,0.0,0.0,0.0,0.0,0.0,0.0,0.0,0.0,0.0,0.0,0.0,0.0,0.0,0.0,0.0,0.0,0.0,0.0,0.0,0.0,0.0,0.0,0.0,0.0,0.0,0.0,0.0,0.0,0.0,0.0,0.0,0.0,0.0,0.0,0.0,0.0,0.0,0.0,0.0,0.0,0.0,0.0,0.0,1.4055,1.3212,1.2936,1.3396,1.3266,1.3226,0.0,0.0,0.0,0.0,0.0,0.0,0.0,0.0,0.0,0.0,0.0,0.0,0.0,0.0,0.0,0.0,0.0,0.0,0.0,0.0,0.0,0.0,0.0,0.0,0.0,0.0,0.0,0.0,0.0,0.0,0.0,0.0,0.0,0.0,0.0,0.0,0.0,0.0,0.0,0.0,0.0,0.0,0.0,0.0,0.0,0.0,0.0,0.0,0.0,0.0,0.0,0.0,0.0,0.0,0.0,0.0,0.0,0.0,0.0,0.0,0.0,0.0,0.0,0.0,0.0,0.0,0.0,0.0,0.0,0.0,0.0,0.0,0.0,0.0,0.0,0.0,0.0,0.0,0.0,0.0,0.0,0.0,0.0,0.0,0.0,0.0,0.0,0.0,0.0,0.0,0.0,0.0,0.0,0.0,0.0,0.0,0.0,0.0,0.0,0.0,0.0,0.0,0.0,0.0,0.0,0.0,0.0,0.0,1.3413,1.3723,1.272,1.2335,1.2581,1.2846,1.3096,0.0,0.0,0.0,0.0,0.0,0.0,0.0,0.0,0.0,0.0,0.0,0.0,0.0,0.0,0.0,0.0,0.0,0.0,0.0,0.0,0.0,0.0,0.0,0.0,0.0,0.0,0.0,0.0,0.0,0.0,0.0,0.0,0.0,0.0,0.0,0.0,0.0,0.0,0.0,0.0,0.0,0.0,0.0,0.0,0.0,0.0,0.0,0.0,0.0,0.0,0.0,0.0,0.0,0.0,0.0,0.0,0.0,0.0,0.0,0.0,0.0,0.0,0.0,0.0,0.0,0.0,0.0,0.0,0.0,0.0,0.0,0.0,0.0,0.0,0.0,0.0,0.0,0.0,0.0,0.0,0.0,0.0,0.0,0.0,0.0,0.0,0.0,0.0,0.0,0.0,0.0,0.0,0.0,0.0,0.0,0.0,0.0,0.0,0.0,0.0,0.0,0.0,0.0,0.0,0.0,0.0,0.0,0.0,1.2908,1.2954,1.2317,1.1999,1.2036,1.2454,1.2879,0.0,0.0,0.0,0.0,0.0,0.0,0.0,0.0,0.0,0.0,0.0,0.0,0.0,0.0,0.0,0.0,0.0,0.0,0.0,0.0,0.0,0.0,0.0,0.0,0.0,0.0,0.0,0.0,0.0,0.0,0.0,0.0,0.0,0.0,0.0,0.0,0.0,0.0,0.0,0.0,0.0,0.0,0.0,0.0,0.0,0.0,0.0,0.0,0.0,0.0,0.0,0.0,0.0,0.0,0.0,0.0,0.0,0.0,0.0,0.0,0.0,0.0,0.0,0.0,0.0,0.0,0.0,0.0,0.0,0.0,0.0,0.0,0.0,0.0,0.0,0.0,0.0,0.0,0.0,0.0,0.0,0.0,0.0,0.0,0.0,0.0,0.0,0.0,0.0,0.0,0.0,0.0,0.0,0.0,0.0,0.0,0.0,0.0,0.0,0.0,0.0,0.0,0.0,0.0,0.0,0.0,0.0,0.0,1.3114,1.3234,1.2582,1.2247,1.2247,1.2975,1.328,0.0,0.0,0.0,0.0,0.0,0.0,0.0,0.0,0.0,0.0,0.0,0.0,0.0,0.0,0.0,0.0,0.0,0.0,0.0,0.0,0.0,0.0,0.0,0.0,0.0,0.0,0.0,0.0,0.0,0.0,0.0,0.0,0.0,0.0,0.0,0.0,0.0,0.0,0.0,0.0,0.0,0.0,0.0,0.0,0.0,0.0,0.0,0.0,1.4986,0.0,0.0,0.0,0.0,0.0,0.0,0.0,0.0,0.0,0.0,0.0,0.0,0.0,0.0,0.0,0.0,0.0,0.0,0.0,0.0,0.0,0.0,0.0,0.0,0.0,0.0,0.0,0.0,0.0,0.0,0.0,0.0,0.0,0.0,0.0,0.0,0.0,0.0,0.0,0.0,0.0,0.0,0.0,0.0,0.0,0.0,0.0,0.0,0.0,0.0,0.0,0.0,0.0,0.0,0.0,0.0,0.0,0.0,0.0,1.3066,1.3044,1.2639,1.2426,1.2482,1.318,1.3435,0.0,0.0,0.0,0.0,0.0,0.0,0.0,0.0,0.0,0.0,0.0,0.0,0.0,0.0,0.0,0.0,0.0,0.0,0.0,0.0,0.0,0.0,0.0,0.0,0.0,0.0,0.0,0.0,0.0,0.0,0.0,0.0,0.0,0.0,0.0,0.0,0.0,0.0,0.0,0.0,0.0,0.0,0.0,0.0,0.0,0.0,0.0,0.0,0.0,0.0,0.0,0.0,0.0,0.0,0.0,0.0,0.0,0.0,0.0,0.0,0.0,0.0,0.0,0.0,0.0,0.0,0.0,0.0,0.0,0.0,0.0,0.0,0.0,0.0,0.0,0.0,0.0,0.0,0.0,0.0,0.0,0.0,0.0,0.0,0.0,0.0,0.0,0.0,0.0,0.0,0.0,0.0,0.0,0.0,0.0,0.0,0.0,0.0,0.0,0.0,0.0,0.0,0.0,0.0,0.0,0.0,0.0,1.3287,1.2957,1.283,1.266,1.2605,1.2669,1.3096,1.3285,1.3072,0.0,0.0,0.0,0.0,0.0,0.0,0.0,0.0,0.0,0.0,0.0,0.0,0.0,0.0,0.0,0.0,0.0,0.0,0.0,0.0,0.0,0.0,0.0,0.0,0.0,0.0,0.0,0.0,0.0,0.0,0.0,0.0,0.0,0.0,0.0,0.0,0.0,0.0,1.4974,1.493,0.0,0.0,0.0,0.0,0.0,0.0,0.0,0.0,1.4915,0.0,0.0,0.0,0.0,0.0,0.0,0.0,0.0,0.0,0.0,0.0,0.0,0.0,0.0,0.0,0.0,0.0,0.0,0.0,0.0,0.0,0.0,0.0,0.0,0.0,0.0,0.0,0.0,0.0,0.0,0.0,0.0,0.0,0.0,0.0,0.0,0.0,0.0,0.0,0.0,0.0,0.0,0.0,0.0,0.0,0.0,0.0,0.0,0.0,0.0,0.0,0.0,0.0,0.0,0.0,0.0,1.3169,1.305,1.2951,1.2808,1.2775,1.2791,1.2791,1.2775,1.2778,1.2849,0.0,0.0,0.0,0.0,0.0,0.0,0.0,0.0,0.0,0.0,0.0,0.0,0.0,0.0,0.0,0.0,0.0,0.0,0.0,0.0,0.0,0.0,0.0,0.0,0.0,0.0,0.0,0.0,0.0,0.0,0.0,0.0,0.0,0.0,0.0,0.0,0.0,0.0,0.0,1.4666,1.4432,0.0,0.0,0.0,0.0,0.0,0.0,0.0,0.0,1.459,0.0,0.0,0.0,0.0,0.0,0.0,0.0,0.0,0.0,0.0,0.0,0.0,0.0,0.0,0.0,0.0,0.0,0.0,0.0,0.0,0.0,0.0,0.0,0.0,0.0,0.0,0.0,0.0,0.0,0.0,0.0,0.0,0.0,0.0,0.0,0.0,0.0,0.0,0.0,0.0,0.0,0.0,0.0,0.0,0.0,0.0,0.0,0.0,0.0,0.0,0.0,0.0,0.0,0.0,0.0,1.2936,1.3065,1.3119,1.2962,1.3068,1.3116,1.3108,1.2938,1.2955,0.0,0.0,0.0,0.0,0.0,0.0,0.0,0.0,0.0,0.0,0.0,0.0,0.0,0.0,0.0,0.0,0.0,0.0,0.0,0.0,0.0,0.0,0.0,0.0,0.0,0.0,0.0,0.0,0.0,0.0,0.0,0.0,0.0,0.0,0.0,0.0,0.0,0.0,0.0,0.0,1.4282,1.4163,1.3967,0.0,0.0,0.0,0.0,0.0,0.0,1.4202,1.4248,0.0,0.0,0.0,0.0,0.0,0.0,0.0,0.0,0.0,0.0,0.0,0.0,0.0,0.0,0.0,0.0,0.0,0.0,0.0,0.0,0.0,0.0,0.0,0.0,0.0,0.0,0.0,0.0,0.0,0.0,0.0,0.0,0.0,0.0,0.0,0.0,0.0,0.0,0.0,0.0,0.0,0.0,0.0,0.0,0.0,0.0,0.0,0.0,0.0,0.0,0.0,0.0,0.0,0.0,0.0,1.285,1.3177,1.3278,1.3149,1.3295,1.3368,1.3368,1.3157,1.3111,0.0,0.0,0.0,0.0,0.0,0.0,0.0,0.0,0.0,0.0,0.0,0.0,0.0,0.0,0.0,0.0,0.0,0.0,0.0,0.0,0.0,0.0,0.0,0.0,0.0,0.0,0.0,0.0,0.0,0.0,0.0,0.0,0.0,0.0,0.0,0.0,0.0,0.0,0.0,0.0,0.0,1.3901,1.3888,1.3973,0.0,0.0,0.0,0.0,1.3976,1.4117,0.0,0.0,0.0,0.0,0.0,0.0,0.0,0.0,0.0,0.0,0.0,0.0,0.0,0.0,0.0,0.0,0.0,0.0,0.0,0.0,0.0,0.0,0.0,0.0,0.0,0.0,0.0,0.0,0.0,0.0,0.0,0.0,0.0,0.0,0.0,0.0,0.0,0.0,0.0,0.0,0.0,0.0,0.0,0.0,0.0,0.0,0.0,0.0,0.0,0.0,0.0,0.0,0.0,0.0,0.0,0.0,1.3069,1.3273,1.3388,1.3344,1.3428,1.3368,1.3368,1.3043,1.2856,0.0,0.0,0.0,0.0,0.0,0.0,0.0,0.0,0.0,0.0,0.0,0.0,0.0,0.0,0.0,0.0,0.0,0.0,0.0,0.0,0.0,0.0,0.0,0.0,0.0,0.0,0.0,0.0,0.0,0.0,0.0,0.0,0.0,0.0,0.0,0.0,0.0,0.0,0.0,0.0,0.0,1.3509,1.3796,1.3904,1.4007,0.0,0.0,1.427,1.4229,1.4569,0.0,0.0,0.0,0.0,0.0,0.0,0.0,0.0,0.0,0.0,0.0,0.0,0.0,0.0,0.0,0.0,0.0,0.0,0.0,0.0,0.0,0.0,0.0,0.0,0.0,0.0,0.0,0.0,0.0,0.0,0.0,0.0,0.0,0.0,0.0,0.0,0.0,0.0,0.0,0.0,0.0,0.0,0.0,0.0,0.0,0.0,0.0,0.0,0.0,0.0,0.0,0.0,0.0,0.0,0.0,1.2542,1.2696,1.3191,1.3522,1.353,1.362,1.3677,1.3669,1.3327,1.3141,0.0,0.0,0.0,0.0,0.0,0.0,0.0,0.0,0.0,0.0,0.0,0.0,0.0,0.0,0.0,0.0,0.0,0.0,0.0,0.0,0.0,0.0,0.0,0.0,0.0,0.0,0.0,0.0,0.0,0.0,0.0,0.0,0.0,0.0,0.0,0.0,0.0,0.0,0.0,0.0,0.0,0.0,1.3856,1.388,0.0,0.0,0.0,1.4053,1.404,0.0,0.0,0.0,0.0,0.0,0.0,0.0,0.0,0.0,0.0,0.0,0.0,0.0,0.0,0.0,0.0,0.0,0.0,0.0,0.0,0.0,0.0,0.0,0.0,0.0,0.0,0.0,0.0,0.0,0.0,0.0,0.0,0.0,0.0,0.0,0.0,0.0,0.0,0.0,0.0,0.0,0.0,0.0,0.0,0.0,0.0,0.0,0.0,0.0,0.0,0.0,0.0,0.0,0.0,0.0,0.0,0.0,1.2515,1.3274,1.3639,1.3647,1.388,1.3969,1.3969,1.3709,0.0,0.0,0.0,0.0,0.0,0.0,0.0,0.0,0.0,0.0,0.0,0.0,0.0,0.0,0.0,0.0,0.0,0.0,0.0,0.0,0.0,0.0,0.0,0.0,0.0,0.0,0.0,1.2183,0.0,0.0,0.0,0.0,0.0,0.0,0.0,0.0,0.0,0.0,0.0,0.0,0.0,0.0,1.3779,1.3856,1.3863,1.3938,0.0,0.0,1.3982,1.3959,1.4252,1.4428,0.0,0.0,0.0,0.0,0.0,0.0,0.0,0.0,0.0,0.0,0.0,0.0,0.0,0.0,0.0,0.0,0.0,0.0,0.0,0.0,0.0,0.0,0.0,0.0,0.0,0.0,0.0,0.0,0.0,0.0,0.0,0.0,0.0,0.0,0.0,0.0,0.0,0.0,0.0,0.0,0.0,0.0,0.0,0.0,0.0,0.0,0.0,0.0,0.0,0.0,0.0,0.0,0.0,0.0,1.3029,1.3037,1.357,1.3888,1.3888,1.4066,1.4164,1.4164,1.414,1.4042,0.0,0.0,0.0,0.0,0.0,0.0,0.0,0.0,0.0,0.0,0.0,0.0,0.0,0.0,0.0,0.0,0.0,0.0,0.0,0.0,0.0,0.0,0.0,0.0,0.0,0.0,0.0,0.0,0.0,0.0,0.0,0.0,0.0,0.0,0.0,0.0,0.0,0.0,0.0,0.0,0.0,1.3582,1.3856,1.3862,1.4,0.0,1.4196,1.4245,1.4302,1.471,1.4802,1.4445,0.0,0.0,0.0,0.0,0.0,0.0,0.0,0.0,0.0,0.0,0.0,0.0,0.0,0.0,0.0,0.0,0.0,0.0,0.0,0.0,0.0,0.0,0.0,0.0,0.0,0.0,0.0,0.0,0.0,0.0,0.0,0.0,0.0,0.0,0.0,0.0,0.0,0.0,0.0,0.0,0.0,0.0,0.0,0.0,0.0,0.0,0.0,0.0,0.0,0.0,0.0,0.0,0.0,1.293,1.3036,1.3849,1.4229,1.4229,1.4302,1.4335,1.4335,1.4229,1.4019,0.0,0.0,0.0,0.0,0.0,0.0,0.0,0.0,0.0,0.0,0.0,0.0,0.0,0.0,0.0,0.0,0.0,0.0,0.0,0.0,0.0,0.0,0.0,0.0,0.0,0.0,0.0,0.0,1.2803,1.2877,1.2496,0.0,0.0,0.0,0.0,0.0,0.0,0.0,0.0,0.0,0.0,1.3673,1.4293,1.4384,0.0,0.0,1.4667,1.4536,1.4159,1.4678,1.4778,1.389,1.3993,0.0,0.0,0.0,0.0,0.0,0.0,0.0,0.0,0.0,0.0,0.0,0.0,0.0,0.0,0.0,0.0,0.0,0.0,0.0,0.0,0.0,0.0,0.0,0.0,0.0,0.0,0.0,0.0,0.0,0.0,0.0,0.0,0.0,0.0,0.0,0.0,0.0,0.0,0.0,0.0,0.0,0.0,0.0,0.0,0.0,0.0,0.0,0.0,0.0,0.0,0.0,0.0,1.2962,1.3081,1.3932,1.4432,1.4432,1.4481,1.4513,1.4513,1.4448,1.4179,0.0,0.0,0.0,0.0,0.0,0.0,0.0,0.0,0.0,0.0,0.0,0.0,0.0,0.0,0.0,0.0,0.0,0.0,0.0,0.0,0.0,0.0,0.0,0.0,0.0,0.0,0.0,0.0,1.2664,1.2615,1.2216,0.0,0.0,0.0,0.0,0.0,0.0,0.0,0.0,0.0,0.0,1.4024,1.4437,1.4517,1.4522,1.4565,1.4533,1.4286,1.3865,1.4297,1.4389,1.3582,0.0,0.0,0.0,0.0,0.0,0.0,0.0,0.0,0.0,0.0,0.0,0.0,0.0,0.0,0.0,0.0,0.0,0.0,0.0,0.0,0.0,0.0,0.0,0.0,0.0,0.0,0.0,1.3277,0.0,0.0,1.3232,0.0,0.0,0.0,0.0,0.0,0.0,0.0,0.0,0.0,0.0,0.0,0.0,0.0,0.0,0.0,0.0,0.0,0.0,0.0,0.0,0.0,0.0,1.317,1.3178,1.4003,1.4366,1.4448,1.4611,1.4708,1.4716,1.4862,1.4871,1.4692,0.0,0.0,0.0,0.0,0.0,0.0,0.0,0.0,0.0,0.0,0.0,0.0,0.0,0.0,0.0,0.0,0.0,0.0,0.0,0.0,0.0,0.0,0.0,0.0,0.0,0.0,1.1662,1.1995,1.2108,0.0,0.0,0.0,0.0,0.0,0.0,0.0,0.0,0.0,1.3261,1.4274,1.4662,1.3976,1.3995,1.3968,1.3672,1.3386,1.3327,1.3468,1.3506,1.3589,0.0,0.0,0.0,0.0,0.0,0.0,0.0,0.0,0.0,0.0,0.0,0.0,0.0,0.0,0.0,0.0,0.0,0.0,0.0,0.0,0.0,0.0,0.0,0.0,0.0,0.0,0.0,1.3054,1.297,0.0,0.0,0.0,0.0,0.0,0.0,0.0,0.0,0.0,0.0,0.0,1.2678,1.2914,0.0,0.0,0.0,0.0,0.0,0.0,0.0,0.0,0.0,0.0,0.0,0.0,1.3015,1.3192,1.4258,1.4846,1.4883,1.4956,1.5122,1.5244,1.5301,1.5088,1.4679,0.0,0.0,0.0,0.0,0.0,0.0,0.0,0.0,0.0,0.0,0.0,0.0,0.0,0.0,0.0,0.0,0.0,0.0,0.0,0.0,0.0,0.0,0.0,0.0,0.0,1.1575,0.0,0.0,0.0,0.0,0.0,0.0,0.0,0.0,0.0,0.0,0.0,1.2604,1.3139,1.3108,1.3188,1.3546,1.3851,1.4127,0.0,0.0,0.0,0.0,0.0,0.0,0.0,0.0,0.0,0.0,0.0,0.0,0.0,0.0,1.34,1.343,1.3475,1.3514,1.3468,0.0,0.0,0.0,0.0,0.0,0.0,0.0,0.0,0.0,0.0,0.0,0.0,0.0,0.0,1.3126,0.0,1.3114,0.0,0.0,0.0,0.0,0.0,0.0,0.0,0.0,1.2763,1.3084,1.3397,1.3565,1.3679,0.0,1.3695,1.3079,0.0,0.0,0.0,0.0,0.0,0.0,0.0,0.0,1.3099,1.312,1.4454,1.5212,1.5325,1.5333,1.539,1.5512,1.5512,1.5297,1.5019,1.4438,1.3834,0.0,0.0,0.0,0.0,0.0,0.0,0.0,0.0,0.0,0.0,0.0,0.0,0.0,0.0,0.0,0.0,0.0,0.0,0.0,0.0,0.0,0.0,0.0,1.1525,0.0,0.0,0.0,0.0,0.0,0.0,0.0,0.0,0.0,1.2162,1.2292,1.2629,1.324,1.3042,1.2958,1.2858,0.0,0.0,0.0,0.0,0.0,0.0,0.0,1.3127,1.2551,1.2831,1.3326,1.3512,1.3742,1.3924,1.3924,0.0,0.0,1.3445,1.3523,1.361,1.3512,1.3692,1.3778,1.3756,1.3686,1.3582,0.0,0.0,0.0,0.0,0.0,0.0,0.0,0.0,1.3896,1.3594,0.0,1.3689,0.0,0.0,0.0,0.0,1.3178,1.3178,0.0,0.0,1.4184,1.4594,1.4461,1.4532,1.4703,1.4867,1.4533,1.4134,1.3713,1.344,0.0,0.0,0.0,0.0,0.0,0.0,1.3342,1.3015,1.462,1.5512,1.552,1.552,1.5528,1.5545,1.5536,1.5536,1.5528,1.513,1.4884,1.4633,1.3304,0.0,0.0,0.0,0.0,0.0,0.0,0.0,0.0,0.0,0.0,0.0,0.0,0.0,0.0,0.0,0.0,0.0,0.0,0.0,0.0,1.1832,0.0,0.0,0.0,0.0,0.0,0.0,0.0,0.0,0.0,0.0,1.2219,1.2859,1.3362,1.3362,0.0,0.0,0.0,0.0,1.3165,1.2115,1.171,1.164,1.2127,1.2206,1.2377,1.3044,0.0,0.0,1.4732,1.434,1.4005,1.4005,1.3797,1.3596,1.3563,1.3559,1.3433,1.3329,1.3533,1.3664,1.3466,1.3534,1.3464,1.4069,0.0,0.0,0.0,0.0,1.3831,1.3928,1.4099,1.4099,1.4067,1.4059,1.4188,0.0,0.0,0.0,0.0,0.0,0.0,1.3509,1.3851,1.4129,1.4633,1.52,1.5256,1.5305,1.5353,1.5194,1.5114,1.5034,1.5058,1.3982,1.201,0.0,0.0,0.0,0.0,1.3102,1.3909,1.4954,1.5577,1.5699,1.5699,1.5764,1.5894,1.5894,1.5894,1.5812,1.5731,1.5318,1.4574,1.4121,0.0,0.0,0.0,0.0,0.0,0.0,0.0,0.0,0.0,0.0,0.0,0.0,0.0,0.0,0.0,0.0,0.0,0.0,0.0,1.1523,1.2312,1.2291,0.0,0.0,0.0,0.0,0.0,0.0,0.0,0.0,0.0,1.1968,1.2179,1.2311,0.0,0.0,1.1362,1.085,1.153,1.2227,1.2327,1.2533,0.0,1.3438,1.3214,1.2995,1.291,1.3091,1.3274,1.3529,1.3848,1.405,1.405,1.4087,1.4061,1.4026,1.3899,1.3691,1.3648,1.3821,1.3995,1.3871,1.396,1.4034,1.4732,1.4513,1.4229,1.4156,1.4221,1.4294,1.4432,1.4603,1.4676,1.4649,1.453,1.4754,1.4517,1.3991,1.406,0.0,0.0,0.0,1.4226,1.4632,1.4632,1.4971,1.561,1.5618,1.5658,1.5723,1.5723,1.5723,1.5651,1.5504,1.4512,1.2956,0.0,0.0,1.2144,1.2875,1.3524,1.418,1.5158,1.578,1.5878,1.5886,1.5934,1.5958,1.5966,1.5966,1.5966,1.5966,1.5745,1.5143,1.466,1.4099,0.0,0.0,0.0,0.0,0.0,0.0,0.0,0.0,0.0,0.0,0.0,1.2447,1.1491,0.0,0.0,0.0,1.2122,1.1978,1.188,1.2155,0.0,0.0,0.0,0.0,0.0,0.0,0.0,1.0698,1.1376,1.1965,1.202,1.2032,1.2154,1.237,1.1881,1.134,1.1016,0.0,1.2503,1.2675,1.2816,1.3131,1.3643,1.3489,1.3341,1.3316,1.3455,1.3548,1.3555,1.3874,1.4156,1.417,1.4238,1.4299,1.4299,1.4143,1.4021,1.4021,1.4095,1.4156,1.4163,1.4238,1.4299,1.5512,1.5455,1.4797,1.4619,1.4789,1.4944,1.5106,1.519,1.5439,1.5264,1.4806,1.5281,1.5027,1.4248,1.4336,0.0,1.497,1.4986,1.5161,1.5561,1.5561,1.5642,1.5788,1.5796,1.5886,1.5958,1.5966,1.5966,1.5958,1.5208,1.4721,1.4653,1.4653,1.3983,1.2823,1.3901,1.4315,1.4066,1.5231,1.5891,1.5966,1.5966,1.5966,1.5966,1.5966,1.5966,1.5966,1.5966,1.5966,1.5958,1.5062,1.4563,1.4393,0.0,0.0,0.0,0.0,0.0,0.0,0.0,0.0,0.0,0.0,0.0,0.0,0.0,0.0,1.2802,1.2693,0.0,1.2694,1.194,0.0,0.0,0.0,1.1224,1.172,1.1906,1.1979,1.191,0.0,0.0,1.2276,1.2289,1.2533,1.3179,1.3138,1.2818,1.1992,1.2785,1.3381,1.2959,1.2819,1.2822,1.333,1.335,1.3488,1.3954,1.4211,1.4272,1.4272,1.4278,1.4299,1.4292,1.4299,1.4299,1.4299,1.4285,1.4299,1.4285,1.4292,1.4292,1.4292,1.4292,1.4299,1.5512,1.5504,1.5333,1.5285,1.5325,1.5366,1.5407,1.5455,1.5496,1.5408,1.5297,1.5416,1.5337,1.5138,1.5393,1.5465,1.5635,1.569,1.5837,1.5918,1.5837,1.5861,1.5975,1.5983,1.5999,1.5966,1.5966,1.5966,1.5966,1.5793,1.5195,1.4307,1.4314,1.3811,1.2888,1.2797,1.3217,1.4146,1.4481,1.5097,1.5966,1.5966,1.5966,1.5966,1.5966,1.5966,1.5966,1.5966,1.5966,1.5966,1.5506,1.49,1.4242,1.3137,0.0,0.0,0.0,0.0,0.0,0.0,0.0,0.0,0.0,1.1577,1.0389,0.0,1.1731,0.0,1.2345,1.3137,1.3063,1.2966,0.0,0.0,1.1928,1.1937,1.2118,1.2495,1.2468,1.1889,1.218,1.238,1.2417,1.2417,1.274,1.3519,1.2743,1.2065,1.1901,1.2374,1.2759,1.2778,1.3236,1.3754,1.3861,1.3941,1.4028,1.4238,1.4278,1.4299,1.4299,1.4299,1.4299,1.4299,1.4299,1.4299,1.4306,1.4299,1.4306,1.4299,1.4299,1.4299,1.4299,1.4299,1.4299,1.5756,1.5748,1.5756,1.5748,1.5748,1.5666,1.5634,1.5634,1.5715,1.5748,1.5756,1.5748,1.5748,1.5756,1.5853,1.5894,1.5902,1.5999,1.5966,1.5966,1.5966,1.5966,1.5966,1.5966,1.6089,1.6162,1.6162,1.6202,1.6276,1.6284,1.5913,1.5325,1.524,1.4769,1.3718,1.2721,1.2605,1.3369,1.3963,1.4934,1.6208,1.6284,1.5949,1.5356,1.5356,1.4929,1.4084,1.4258,1.4258,1.4084,1.4,1.3804,1.3325,1.2461,1.1626,0.0,0.0,0.0,0.0,0.0,0.0,0.0,0.0,0.0,0.0,0.0,1.1706,1.0964,1.2268,1.2886,1.2548,1.2535,1.2573,1.247,1.2533,1.2699,1.2951,1.3213,1.3154,1.2711,1.2895,1.3092,1.3156,1.322,1.3459,1.4042,1.3494,1.3023,1.2854,1.3076,1.3294,1.3417,1.3859,1.4299,1.4353,1.4441,1.4496,1.4496,1.4496,1.4496,1.4496,1.4496,1.4496,1.4496,1.4496,1.4496,1.4496,1.4496,1.4496,1.4496,1.4496,1.4448,1.4326,1.4299,1.4299,1.5966,1.5966,1.5966,1.5966,1.595,1.5878,1.5804,1.5813,1.5975,1.5966,1.5966,1.5966,1.5966,1.5966,1.5966,1.5966,1.5966,1.599,1.5998,1.5998,1.6014,1.603,1.603,1.603,1.6103,1.6249,1.6341,1.6422,1.6491,1.6491,1.6422,1.6182,1.6182,1.5582,1.4249,1.2916,1.217,1.225,1.3693,1.4971,1.6182,1.612,1.5428,1.4201,1.4115,1.3324,1.1589,1.1939,1.2025,1.1675,1.2025,1.2234,1.2295,1.1538,1.1127,0.0,1.0431,0.0,0.0,0.0,0.0,0.0,0.0,0.0,0.0,1.2028,1.1873,1.1622,1.2291,1.2418,1.195,1.1877,1.2259,1.3139,1.3238,1.3422,1.3779,1.3885,1.3905,1.3926,1.3939,1.4014,1.415,1.4278,1.4407,1.4509,1.452,1.4376,1.4251,1.4089,1.4177,1.4509,1.4543,1.4563,1.4672,1.4719,1.4726,1.4726,1.4719,1.474,1.4719,1.4726,1.4733,1.4726,1.4719,1.4726,1.474,1.4733,1.4733,1.4719,1.4713,1.4645,1.4441,1.438,1.4353,1.5966,1.5966,1.5966,1.5966,1.5958,1.6008,1.5999,1.5999,1.595,1.5966,1.5966,1.5966,1.5966,1.5966,1.5966,1.5966,1.5974,1.6194,1.6251,1.6259,1.5984,1.5963,1.5963,1.5963,1.5979,1.601,1.6358,1.6374,1.6057,1.6057,1.528,1.3934,1.3934,1.331,1.2119,0.0,0.0,0.0,1.3371,1.418,1.4361,1.3685,1.2985,1.2265,1.2265,0.0,1.1079,1.1504,1.1675,1.1589,1.1767,0.0,0.0,0.0,0.0,0.0,0.0,0.0,0.0,0.0,0.0,0.0,1.1516,1.1725,1.1655,1.1481,1.1795,1.2734,1.2648,1.274,1.337,1.337,1.3469,1.366,1.3673,1.3806,1.4014,1.4136,1.4258,1.4373,1.4489,1.4577,1.459,1.4645,1.4665,1.4692,1.4726,1.4706,1.4624,1.4597,1.4631,1.4685,1.4699,1.4706,1.4733,1.4753,1.4767,1.474,1.474,1.4746,1.4753,1.4753,1.4746,1.4753,1.474,1.4746,1.4746,1.474,1.476,1.474,1.4746,1.4726,1.4665,1.4658,1.4658,1.6308,1.6308,1.6308,1.6308,0.0,1.6308,1.6308,1.63,1.6121,1.6014,1.6178,1.6267,1.6308,1.6308,1.6308,1.6308,1.6316,1.6145,1.61,1.61,1.5686,1.5554,1.5554,1.5554,1.5592,1.5668,1.5934,1.598,1.5798,1.5798,1.5322,1.444,1.4527,1.4123,1.3489,1.3312,1.3046,1.2768,1.3406,1.4076,1.4696,1.4333,1.3621,1.2665,1.2665,0.0,0.0,0.0,0.0,0.0,0.0,0.0,0.0,0.9568,0.0,0.9087,0.8869,0.8873,0.9092,0.9257,0.9499,0.9616,0.9923,1.0686,1.1948,1.2344,1.2723,1.3416,1.3238,1.3356,1.386,1.3953,1.4014,1.415,1.417,1.4231,1.438,1.4468,1.4543,1.4611,1.4692,1.474,1.474,1.4814,1.4848,1.4862,1.4916,1.4957,1.4943,1.4828,1.476,1.4841,1.4923,1.4957,1.4957,1.4957,1.4957,1.4964,1.4957,1.4957,1.4957,1.4957,1.4957,1.4957,1.4957,1.4957,1.4957,1.4957,1.4957,1.4957,1.4957,1.4957,1.495,1.4848,1.474,1.6584,1.6584,1.6584,1.6584,1.6584,1.6491,1.6406,1.6305,1.6184,0.0,0.0,1.6511,1.6584,1.6584,1.6491,1.6491,1.6406,1.6004,1.5763,1.5763,1.5373,1.513,1.513,1.513,1.5196,1.5322,1.5409,1.5483,1.5609,1.5528,1.5528,1.544,1.544,1.544,1.5447,1.5116,1.4503,1.3787,1.361,1.4053,1.5211,1.5063,1.4442,1.3166,1.3166,1.2355,1.0639,1.0733,1.0644,1.0194,0.8863,0.8118,0.8228,0.678,0.5984,0.6113,0.6157,0.6519,0.7163,0.7244,0.7487,0.8126,0.8364,0.9416,1.1646,1.2429,1.2884,1.291,1.3175,1.35,1.3637,1.4015,1.4285,1.4529,1.455,1.4597,1.4719,1.4767,1.478,1.478,1.4808,1.4821,1.4835,1.4964,1.5052,1.5065,1.5174,1.5262,1.5235,1.5052,1.4936,1.5045,1.5174,1.5262,1.5262,1.5262,1.5262,1.5262,1.5262,1.5262,1.5262,1.5262,1.5262,1.5262,1.5262,1.5262,1.5262,1.5262,1.5262,1.5262,1.5262,1.5248,1.5208,1.5038,1.4875,1.6584,1.6584,1.6584,1.6584,1.6576,1.615,1.581,1.5476,1.6188,1.6519,1.6544,1.6568,1.6584,1.6584,1.615,1.598,1.5988,1.5613,1.55,1.5421,1.5126,1.5015,1.5023,1.5015,1.5023,1.5051,1.5491,1.5499,1.5168,1.5087,1.4911,1.4564,1.4476,1.4476,1.4483,1.451,1.4482,1.4386,1.3483,1.3214,1.3399,1.2607,1.1972,1.1336,1.1326,1.0919,1.011,0.9041,0.8413,0.8234,0.6898,0.6448,0.7331,0.7074,0.7338,0.8126,0.8226,0.8226,0.8304,0.8393,0.8417,0.8469,0.8579,0.8697,0.8978,0.9211,0.9291,0.9451,1.0983,1.2034,1.2153,1.3531,1.4457,1.4608,1.4706,1.4719,1.476,1.4862,1.4943,1.495,1.5045,1.512,1.5133,1.5248,1.5242,1.5364,1.5152,1.5464,1.5232,1.5432,1.5337,1.5364,1.5479,1.5567,1.5252,1.5471,1.5355,1.5574,1.5361,1.5252,1.5245,1.5245,1.5245,1.5464,1.5252,1.5355,1.5361,1.5574,1.5355,1.5245,1.5245,1.5417,1.5309,1.5222,1.5255,1.6868,1.6868,1.6868,1.6695,1.6427,1.6002,1.5655,1.5481,1.5915,1.6034,1.5957,1.605,1.6089,1.6089,1.5915,1.5828,1.5741,1.5381,1.5148,1.5155,1.4787,1.4653,1.4646,1.4646,1.4687,1.4764,1.4942,1.4991,1.4882,1.4806,1.4716,1.4543,1.4543,1.4543,1.4543,1.4604,1.4088,1.3078,1.3628,1.3907,1.3907,1.25,1.1587,1.1352,1.0345,0.9594,0.9277,0.8639,0.8367,0.8367,0.6646,0.6013,0.6374,0.5467,0.5103,0.5556,0.5558,0.5558,0.5556,0.5556,0.5566,0.5592,0.5592,0.5571,0.5432,0.7439,0.8655,0.8692,0.9607,1.0081,1.0128,1.1883,1.3108,1.318,1.4119,1.4896,1.497,1.5038,1.512,1.5194,1.5262,1.5337,1.5425,1.5007,1.4661,1.4571,1.4242,1.3885,1.3891,1.3897,1.4164,1.4494,1.4236,1.3873,1.3885,1.3885,1.3885,1.3885,1.3885,1.3885,1.3885,1.3885,1.3885,1.3885,1.3885,1.3885,1.3891,1.3885,1.3885,1.3982,1.437,1.4629,1.4674,1.5053,1.5452,1.7145,1.7112,1.7065,1.6616,1.6049,1.5742,1.5499,1.541,1.5439,1.5388,1.5286,1.5513,1.5704,1.5704,1.5616,1.555,1.5491,1.5137,1.4893,1.4928,1.4572,1.4401,1.4401,1.4401,1.4455,1.455,1.4563,1.4624,1.4726,1.474,1.4466,1.4094,1.4003,1.3814,1.3358,1.3388,1.2661,1.1279,1.2598,1.3419,1.3266,1.1792,1.1054,1.0871,0.9491,0.8664,0.8664,0.8297,0.8021,0.7929,0.6184,0.5172,0.508,0.3792,0.2962,0.2962,0.2962,0.2962,0.2962,0.2962,0.2964,0.2972,0.2972,0.2975,0.3259,0.567,0.7422,0.7501,0.7774,0.8058,0.8358,0.9935,1.1166,1.1346,1.2701,1.3602,1.4071,1.421,1.4368,1.4572,1.4693,1.4738,1.4732,1.4207,1.375,1.3677,1.2993,1.2602,1.2515,1.2492,1.2694,1.3032,1.2895,1.271,1.2504,1.2607,1.2613,1.2504,1.2607,1.2721,1.2716,1.2607,1.2602,1.2716,1.2613,1.2721,1.2607,1.2607,1.2716,1.2819,1.3315,1.378,1.3745,1.4188,1.4996,1.7266,1.7057,1.6847,1.6105,1.5204,1.5237,1.5033,1.4689,1.4729,1.4783,1.4812,1.5387,1.5719,1.5616,1.5271,1.5173,1.5205,1.4764,1.4647,1.4769,1.4699,1.4699,1.4685,1.4692,1.4706,1.4719,1.4719,1.4733,1.4767,1.4662,1.3729,1.2158,1.1975,1.1156,0.9596,0.949,0.9343,0.9161,0.9432,0.9483,0.9228,0.9032,0.894,0.894,0.876,0.8664,0.84,0.7013,0.6092,0.5907,0.4346,0.3331,0.324,0.3053,0.2962,0.2964,0.2964,0.2962,0.2962,0.2962,0.2975,0.2999,0.3002,0.3013,0.3037,0.3421,0.3597,0.3948,0.5246,0.6201,0.6441,0.8149,0.9188,0.9204,0.9651,1.0094,1.107,1.1153,1.161,1.2595,1.2698,1.2703,1.2942,1.2923,1.282,1.2797,1.2599,1.24,1.2405,1.1828,1.1449,1.1744,1.2143,1.2631,1.262,1.2841,1.2515,1.262,1.273,1.2515,1.2405,1.251,1.2736,1.218,1.2515,1.251,1.2615,1.2841,1.2625,1.2395,1.2593,1.3002,1.2804,1.2912,1.3503,1.6865,1.6623,1.679,1.6242,1.5291,1.4986,1.4833,1.4658,1.4713,1.474,1.4726,1.4972,1.5097,1.5097,1.4917,1.4861,1.4916,1.4735,1.4679,1.474,1.474,1.474,1.474,1.474,1.4787,1.4869,1.4875,1.4923,1.4798,1.3777,1.219,1.0413,1.0133,0.9759,0.9011,0.8954,0.8504,0.7279,0.7308,0.6728,0.5649,0.6576,0.7139,0.7045,0.6016,0.5359,0.5359,0.461,0.4236,0.4142,0.3485,0.3016,0.311,0.3108,0.3016,0.311,0.3014,0.3016,0.3014,0.311,0.3114,0.3033,0.3033,0.2945,0.2669,0.2671,0.248,0.2388,0.3421,0.4176,0.4097,0.5643,0.6714,0.6624,0.7442,0.8454,0.8842,0.8877,0.9497,1.0829,1.1142,1.1565,1.2321,1.218,1.1634,1.1173,1.1077,1.1077,1.0977,1.058,1.0384,1.038,1.0781,1.0977,1.1077,1.0977,1.1077,1.1077,1.0977,1.0977,1.1077,1.0982,1.0977,1.1077,1.1177,1.1177,1.0868,1.0977,1.0977,1.1177,1.1778,1.2063,1.2714,1.2765,1.3226,1.6507,1.6287,1.6378,1.6015,1.5202,1.4879,1.4801,1.4814,1.4841,1.4862,1.4862,1.4862,1.4862,1.4848,1.478,1.476,1.4801,1.4801,1.4828,1.4855,1.4862,1.4862,1.477,1.4211,1.4078,1.4075,1.3523,1.3385,1.3375,1.2145,1.0351,0.8554,0.8269,0.7985,0.7511,0.7416,0.6755,0.5427,0.5332,0.4577,0.354,0.4496,0.5251,0.5144,0.3907,0.3148,0.3148,0.3148,0.3148,0.3148,0.3148,0.3148,0.3148,0.3148,0.3148,0.3148,0.3148,0.3148,0.3148,0.2957,0.2862,0.2862,0.2772,0.249,0.2203,0.2112,0.1928,0.1648,0.2221,0.25,0.2309,0.3383,0.4072,0.3881,0.518,0.5992,0.6286,0.6395,0.6925,0.8452,0.8463,0.938,1.0745,1.0567,0.9974,0.9878,0.9782,0.9681,0.9681,0.9782,0.9782,0.9681,0.9782,0.9782,0.9681,0.9882,0.9681,0.9681,0.9882,0.9882,0.9681,0.9681,0.9681,1.0279,0.9882,0.9782,1.0079,0.9878,0.9577,0.9782,1.0279,1.0977,1.1564,1.1869,1.1969,1.6338,1.612,1.5658,1.5216,1.4753,1.4903,1.4964,1.4964,1.5092,1.5153,1.514,1.5147,1.5153,1.5033,1.4691,1.4736,1.495,1.4957,1.4932,1.4939,1.5046,1.5153,1.5066,1.3263,1.2317,1.2123,1.071,0.9681,0.9509,0.9315,0.8174,0.6378,0.6196,0.5337,0.4009,0.3822,0.3434,0.344,0.344,0.3259,0.3188,0.3191,0.3371,0.3347,0.3149,0.3152,0.315,0.3149,0.3149,0.3149,0.3152,0.315,0.3149,0.315,0.3152,0.315,0.3055,0.3054,0.3056,0.2579,0.2293,0.2294,0.1926,0.1548,0.1548,0.1558,0.1468,0.1471,0.147,0.1567,0.1471,0.1765,0.1864,0.1766,0.188,0.2485,0.3381,0.3501,0.3926,0.4931,0.5429,0.6235,0.7452,0.7559,0.8162,0.897,0.9476,0.9376,0.9275,0.9376,0.948,0.9581,0.9581,0.9681,0.9681,0.9681,0.9681,0.9681,0.9681,0.9681,0.9681,0.9681,0.9681,0.9681,0.9681,0.9681,0.9681,0.948,0.9175,0.9074,0.897,0.9472,0.987,0.9878,1.0079,1.6097,1.5953,1.5489,1.521,1.5031,1.5086,1.5106,1.5113,1.516,1.5181,1.5181,1.5181,1.4516,1.3275,1.3186,1.3827,1.5106,1.5106,1.4471,1.3469,1.3281,1.2622,1.1296,1.054,1.0257,1.0068,0.9406,0.8394,0.7294,0.7202,0.6169,0.4463,0.4176,0.3788,0.3207,0.311,0.311,0.311,0.311,0.3115,0.3126,0.3126,0.312,0.3111,0.311,0.311,0.3111,0.3111,0.311,0.3111,0.311,0.311,0.311,0.311,0.311,0.311,0.2818,0.2624,0.2527,0.2138,0.1749,0.1749,0.1657,0.1367,0.1075,0.1078,0.0886,0.0,0.0,0.0496,0.0,0.0796,0.0892,0.0,0.0,0.0,0.1005,0.1209,0.1716,0.3027,0.4134,0.5139,0.5441,0.5743,0.5944,0.645,0.655,0.6651,0.6752,0.7358,0.8166,0.8367,0.9074,0.9681,0.9681,0.9681,0.9681,0.9681,0.9681,0.9681,0.9681,0.9476,0.9476,0.8974,0.9175,0.8769,0.8467,0.7358,0.7358,0.7053,0.7053,0.766,0.7961,0.8065,0.8668,1.565,1.5556,1.461,1.461,1.4993,1.3758,1.4046,1.4993,1.4516,1.4234,1.4234,1.4234,1.3093,1.148,1.1202,1.1889,1.3151,1.3216,1.2528,1.1291,1.1202,1.0446,0.9221,0.8485,0.8119,0.8031,0.7383,0.6364,0.5335,0.5146,0.4387,0.3239,0.3142,0.3142,0.3142,0.3142,0.3142,0.3142,0.3142,0.3146,0.3155,0.3157,0.3163,0.317,0.3171,0.316,0.3145,0.3142,0.3142,0.3142,0.3142,0.3142,0.3142,0.3142,0.3044,0.2848,0.2552,0.2161,0.1964,0.1571,0.1276,0.1277,0.1083,0.0888,0.0592,0.0494,0.0298,0.0,0.0,0.0,0.0,0.0301,0.04,0.0,0.0,0.0,0.0,0.0,0.0,0.1514,0.2421,0.3328,0.3931,0.4033,0.4335,0.4636,0.4837,0.4837,0.4938,0.5642,0.645,0.655,0.7254,0.776,0.766,0.7459,0.8873,0.9175,0.9275,0.9275,0.8974,0.897,0.8769,0.8367,0.7965,0.7459,0.6651,0.5542,0.4938,0.4736,0.524,0.6045,0.6248,0.645,0.6953,1.5087,1.461,1.2999,1.3187,1.4046,1.1107,1.1584,1.4046,1.291,1.2167,1.2167,1.2161,1.1047,0.9423,0.9059,0.9183,0.914,0.9088,0.915,0.9055,0.9146,0.8956,0.8489,0.683,0.6086,0.5992,0.4196,0.3336,0.3437,0.3437,0.3243,0.3146,0.315,0.3155,0.3146,0.3152,0.3149,0.315,0.3152,0.3163,0.3185,0.3189,0.32,0.3221,0.3224,0.32,0.315,0.3148,0.315,0.3149,0.3149,0.3145,0.3052,0.2954,0.2853,0.2363,0.2262,0.1966,0.1475,0.1083,0.0788,0.0789,0.0297,0.0,0.0,0.0,0.0,0.0,0.0,0.0,0.0,0.0,0.0,0.0,0.0,0.0,0.0,0.0,0.0,0.0,0.0,0.0,0.1918,0.2422,0.2825,0.383,0.4132,0.4132,0.4031,0.4436,0.4736,0.4837,0.5441,0.5944,0.5441,0.5038,0.6953,0.8467,0.8568,0.8568,0.7559,0.7254,0.6852,0.645,0.5645,0.5242,0.504,0.4033,0.3731,0.3628,0.4132,0.0,0.4638,0.4839,0.504,1.2339,1.1013,1.0351,1.0351,1.0829,0.9595,0.9973,1.0933,1.0326,1.0167,1.0176,1.0138,0.9012,0.7472,0.7088,0.6321,0.5074,0.506,0.5733,0.6894,0.7085,0.6404,0.5151,0.4389,0.4006,0.3909,0.3431,0.3155,0.3171,0.3174,0.3182,0.32,0.3202,0.3202,0.3201,0.3202,0.3204,0.3202,0.3202,0.3209,0.3217,0.3217,0.3221,0.3228,0.323,0.322,0.3205,0.3202,0.3202,0.3201,0.3204,0.3004,0.2603,0.2304,0.2003,0.1802,0.1502,0.1202,0.1001,0.0,0.0,0.0,0.0,0.0,0.0,0.0,0.0,0.0,0.0,0.0,0.0,0.0,0.0,0.0,0.0,0.0,0.0,0.0,0.0,0.0,0.0,0.0,0.0,0.0,0.0,0.0,0.0,0.0,0.0,0.2623,0.3127,0.3127,0.3832,0.4334,0.4031,0.383,0.4839,0.6148,0.6654,0.6956,0.6047,0.5542,0.5141,0.4436,0.363,0.3228,0.3027,0.0,0.0,0.0,0.0,0.0,0.0,0.3227,0.3428,1.0307,0.908,0.8347,0.8454,0.8837,0.7595,0.7787,0.8845,0.8321,0.8049,0.806,0.8099,0.6951,0.5392,0.5002,0.4327,0.3159,0.3159,0.3856,0.4945,0.5011,0.4318,0.3145,0.3156,0.3167,0.3174,0.3175,0.3185,0.3202,0.3205,0.3213,0.3228,0.323,0.323,0.323,0.323,0.323,0.323,0.323,0.323,0.323,0.323,0.323,0.323,0.3029,0.2928,0.2928,0.2726,0.2726,0.2827,0.2726,0.2424,0.2121,0.1818,0.1515,0.1313,0.101,0.0707,0.0505,0.0,0.0,0.0,0.0,0.0,0.0,0.0,0.0,0.0,0.0,0.0,0.0,0.0,0.0,0.0,0.0,0.0,0.0,0.0,0.0,0.0,0.0,0.0,0.0,0.0,0.0,0.0,0.0,0.0,0.0,0.0,0.0,0.0,0.2018,0.2421,0.2824,0.2824,0.2824,0.363,0.4335,0.4537,0.4235,0.3932,0.363,0.2623,0.1716,0.1615,0.0,0.0,0.0,0.0,0.0,0.0,0.0,0.0,0.1614,0.8968,0.8595,0.6827,0.704,0.8008,0.4896,0.5378,0.8015,0.686,0.5984,0.6082,0.6,0.5017,0.3543,0.3452,0.3368,0.3186,0.319,0.3201,0.3404,0.3378,0.3255,0.316,0.318,0.3201,0.322,0.3223,0.3225,0.3225,0.3225,0.323,0.323,0.323,0.323,0.323,0.323,0.323,0.323,0.323,0.323,0.313,0.313,0.3029,0.3029,0.2626,0.2323,0.2323,0.1919,0.1818,0.2222,0.1919,0.1616,0.1515,0.1515,0.1212,0.0808,0.0707,0.0505,0.0,0.0,0.0,0.0,0.0,0.0,0.0,0.0,0.0,0.0,0.0,0.0,0.0,0.0,0.0,0.0,0.0,0.0,0.0,0.0,0.0,0.0,0.0,0.0,0.0,0.0,0.0,0.0,0.0,0.0,0.0,0.0,0.0,0.0,0.0,0.0,0.0,0.0,0.0,0.1816,0.0,0.0,0.0,0.0,0.0,0.111,0.0,0.0,0.0,0.0,0.0,0.0,0.0,0.0,0.0,0.0,0.0,0.6051,0.4692,0.4117,0.422,0.4608,0.3435,0.3633,0.4614,0.4352,0.4165,0.4071,0.3996,0.3802,0.3206,0.3205,0.3212,0.3216,0.3217,0.3221,0.3227,0.3217,0.3208,0.3208,0.3215,0.3221,0.323,0.323,0.323,0.323,0.323,0.323,0.323,0.323,0.323,0.323,0.3129,0.323,0.323,0.323,0.2928,0.2626,0.2625,0.2424,0.202,0.1919,0.1818,0.1717,0.1313,0.1212,0.1717,0.1313,0.101,0.101,0.0707,0.0,0.0,0.0,0.0,0.0,0.0,0.0,0.0,0.0,0.0,0.0,0.0,0.0,0.0,0.0,-0.0404,-0.0908,-0.0505,-0.0505,-0.0908,-0.0606,0.0,0.0,0.0,0.0,0.0,0.0,0.0,0.0,0.0,0.0,0.0,0.0,0.0,0.0,0.0,0.0,0.0,0.0,0.0,0.0,0.0,0.0,0.0,0.0,0.0,0.0,0.0,0.0,0.0101,0.0,0.0,0.0,0.0,0.0,0.0,0.0,0.0,0.0,0.0,0.0,0.4246,0.3163,0.3175,0.3179,0.318,0.3179,0.3179,0.3183,0.3197,0.3206,0.321,0.3223,0.323,0.323,0.323,0.323,0.323,0.323,0.323,0.323,0.3228,0.3228,0.323,0.323,0.323,0.323,0.323,0.323,0.323,0.323,0.323,0.323,0.323,0.3129,0.2827,0.2827,0.2726,0.2524,0.2524,0.2322,0.2121,0.202,0.1919,0.1616,0.1414,0.1212,0.0909,0.0606,0.0707,0.101,0.0808,0.0505,0.0404,0.0202,0.0,0.0,0.0,0.0,0.0,0.0,0.0,0.0,0.0,0.0,0.0,-0.0707,-0.0707,0.0,0.0,-0.1615,-0.2019,-0.1716,-0.1716,-0.212,-0.1716,-0.1111,-0.0808,0.0,0.0,0.0,0.0,0.0,0.0,0.0,0.0,0.0,0.0,0.0,0.0,0.0,0.0,0.0,0.0,0.0,0.0,0.0,0.0,0.0,0.0,0.0,0.0,0.0,0.0,0.0,0.0,0.0,0.0,0.0,0.0,0.0,0.0,0.0,0.0,0.0,0.0,0.3193,0.3195,0.322,0.323,0.3228,0.323,0.3224,0.3228,0.3227,0.3228,0.3228,0.323,0.323,0.323,0.323,0.323,0.323,0.323,0.3129,0.3029,0.3029,0.3029,0.2827,0.3129,0.313,0.313,0.313,0.3028,0.2928,0.2928,0.3029,0.2928,0.2928,0.2726,0.2424,0.2323,0.202,0.1818,0.1818,0.1717,0.1515,0.1515,0.1414,0.1212,0.0909,0.0505,0.0,0.0,0.0303,0.0707,0.0303,0.0,0.0,0.0,0.0,0.0,0.0,0.0,0.0,0.0,0.0,0.0,0.0,-0.0707,-0.1514,-0.1817,-0.2019,-0.2725,-0.3129,-0.2927,-0.3028,-0.323,-0.3431,-0.3431,-0.333,-0.2826,-0.2019,-0.1009,-0.0303,0.0,0.0,0.0,0.0,-0.0101,0.0,0.0,0.0,0.0,0.0,0.0,0.0,0.0,0.0,0.0,0.0,0.0,0.0,0.0,0.0,0.0,0.0,0.0,0.0,0.0,0.0,0.0,0.0,0.0,0.0,0.0,0.0,0.0,0.0,0.0,0.0,0.3221,0.3221,0.3227,0.323,0.323,0.323,0.323,0.323,0.323,0.323,0.323,0.323,0.323,0.323,0.3129,0.323,0.3129,0.3129,0.3029,0.2626,0.2525,0.2323,0.2221,0.2726,0.2928,0.2727,0.3029,0.2726,0.2221,0.2323,0.2322,0.202,0.2121,0.1919,0.1818,0.1717,0.1717,0.1616,0.1515,0.1313,0.101,0.101,0.0808,0.0,0.0,0.0,0.0,0.0,0.0,0.0,0.0,0.0,0.0,0.0,0.0,0.0,0.0,0.0,0.0,-0.0707,-0.1211,-0.1312,-0.1817,-0.2624,-0.2725,-0.2826,-0.2927,-0.323,-0.323,-0.3431,-0.3532,-0.4845,-0.5047,-0.4641,-0.444,-0.4339,-0.3934,-0.3129,-0.212,-0.1514,-0.1211,-0.1009,-0.0202,-0.1009,-0.1211,-0.1312,-0.1817,-0.2322,-0.2322,-0.2221,-0.2019,-0.1818,-0.1616,-0.1313,-0.1414,-0.1313,0.0,0.0,0.0,-0.1818,-0.1312,0.0,0.0,0.0,0.0,0.0,0.0,0.0,0.0,0.0,0.0,0.0,0.0,0.0,0.0,0.323,0.323,0.323,0.323,0.323,0.323,0.323,0.323,0.323,0.323,0.323,0.323,0.323,0.3129,0.2928,0.2827,0.2726,0.2524,0.2322,0.202,0.202,0.1818,0.1717,0.2121,0.2322,0.2121,0.2221,0.202,0.1818,0.1818,0.1919,0.1616,0.1616,0.1515,0.1212,0.1212,0.101,0.0808,0.0808,0.0707,0.0505,0.0404,0.0303,0.0,0.0,0.0,0.0,0.0,0.0,0.0,0.0,0.0,0.0,0.0,0.0,0.0,0.0,0.0,0.0,-0.1211,-0.1817,-0.2321,-0.2927,-0.3431,-0.3734,-0.3936,-0.4238,-0.4643,-0.4744,-0.4744,-0.4845,-0.5551,-0.6057,-0.5853,-0.5551,-0.5551,-0.5349,-0.4238,-0.3028,-0.2523,-0.2321,-0.212,-0.2019,-0.2019,-0.2221,-0.2422,-0.2523,-0.3029,-0.2928,-0.2725,-0.2927,-0.2725,-0.2523,-0.2422,-0.2624,-0.2422,-0.202,0.0,0.0,-0.2624,-0.2422,-0.2019,0.0,0.0,0.0,0.0,0.0,0.0,-0.1313,0.0,0.0,0.0,0.0,0.0,0.0,0.323,0.323,0.323,0.323,0.323,0.323,0.323,0.323,0.323,0.3129,0.3029,0.313,0.2928,0.2827,0.2424,0.2323,0.2222,0.1919,0.1717,0.1515,0.1515,0.1313,0.1313,0.1313,0.1313,0.1414,0.1616,0.1515,0.1313,0.1414,0.1313,0.1313,0.1313,0.101,0.0707,0.0707,0.0505,0.0202,0.0,0.0,0.0,0.0,0.0,0.0,0.0,0.0,0.0,0.0,0.0,0.0,0.0,0.0,0.0,0.0,0.0,0.0,0.0,0.0,-0.1716,-0.2119,-0.2623,-0.3431,-0.3735,-0.4137,-0.4843,-0.5146,-0.545,-0.5957,-0.6158,-0.6158,-0.6463,-0.6461,-0.6461,-0.6461,-0.6461,-0.6463,-0.6158,-0.4744,-0.4038,-0.3532,-0.3431,-0.323,-0.3129,-0.3129,-0.333,-0.3433,-0.3534,-0.3635,-0.3534,-0.3635,-0.3937,-0.3936,-0.3734,-0.3028,-0.3028,-0.4139,-0.3635,-0.3129,-0.3431,-0.3633,-0.3633,-0.3734,-0.3532,-0.2927,0.0,-0.2927,-0.2927,-0.2523,-0.2624,-0.323,-0.2927,-0.2321,-0.2019,-0.1918,-0.1413,0.323,0.323,0.323,0.323,0.323,0.323,0.3129,0.323,0.313,0.2928,0.2525,0.2525,0.2323,0.202,0.1818,0.1717,0.1616,0.1414,0.1313,0.101,0.0909,0.0808,0.0505,0.0,0.0,0.0505,0.101,0.1111,0.0606,0.0707,0.0707,0.0404,0.0,0.0,0.0,0.0,0.0,0.0,0.0,0.0,0.0,0.0,0.0,0.0,0.0,0.0,0.0,0.0,0.0,0.0,0.0,0.0,0.0,0.0,0.0,-0.1009,-0.1312,-0.1817,-0.2826,-0.3734,-0.4137,-0.4742,-0.5248,-0.5755,-0.6057,-0.6158,-0.6158,-0.636,-0.6463,-0.6463,-0.6463,-0.6463,-0.6463,-0.6463,-0.6463,-0.6463,-0.636,-0.5957,-0.5248,-0.4643,-0.4541,-0.4339,-0.4238,-0.4238,-0.4442,-0.4744,-0.4946,-0.5148,-0.5248,-0.5352,-0.5654,-0.545,-0.5148,-0.4137,-0.3332,-0.4845,-0.5349,-0.4341,-0.4339,-0.4946,-0.5148,-0.5652,-0.545,-0.4442,-0.3835,-0.3633,-0.3532,-0.3534,-0.3635,-0.3937,-0.3635,-0.323,-0.3028,-0.2927,-0.2826,0.323,0.323,0.323,0.323,0.3129,0.2928,0.2828,0.2727,0.2524,0.2221,0.202,0.1919,0.1818,0.1616,0.1313,0.101,0.0,0.0808,0.0606,0.0404,0.0404,0.0303,0.0,0.0,0.0,0.0,0.0505,0.0,0.0101,0.0202,0.0,0.0,0.0,0.0,0.0,0.0,0.0,0.0,0.0,0.0,0.0,0.0,0.0,0.0,0.0,0.0,0.0,0.0,0.0,0.0,0.0,-0.0808,-0.101,-0.1312,-0.1615,-0.1716,-0.212,-0.2927,-0.3835,-0.4641,-0.4944,-0.5652,-0.6259,-0.6461,-0.6463,-0.6461,-0.6463,-0.6463,-0.6463,-0.6463,-0.6463,-0.6463,-0.6463,-0.6463,-0.6463,-0.6463,-0.6463,-0.6463,-0.6158,-0.5652,-0.5551,-0.545,-0.5349,-0.545,-0.5652,-0.5856,-0.6158,-0.636,-0.6463,-0.6463,-0.6463,-0.6259,-0.5853,-0.545,-0.4543,-0.5349,-0.636,-0.5551,-0.5148,-0.5753,-0.6057,-0.6259,-0.6158,-0.5551,-0.4946,-0.4543,-0.4946,-0.5248,-0.5047,-0.4845,-0.4845,-0.4744,-0.4238,-0.3936,-0.3835,0.3029,0.3029,0.2927,0.2827,0.2827,0.2424,0.2222,0.2121,0.1818,0.1616,0.1414,0.1414,0.1313,0.1212,0.0808,0.0,0.0,0.0,0.0,0.0,0.0,0.0,0.0,0.0,0.0,0.0,0.0,0.0,0.0,0.0,0.0,0.0,0.0,0.0,0.0,0.0,0.0,0.0,0.0,0.0,0.0,0.0,0.0,0.0,0.0,0.0,0.0,0.0,0.0,0.0,-0.1312,-0.1918,-0.212,-0.2927,-0.3129,-0.2522,-0.3127,-0.4036,-0.4843,-0.5146,-0.5652,-0.6259,-0.6461,-0.6463,-0.6463,-0.6463,-0.6463,-0.6463,-0.6463,-0.6463,-0.6463,-0.6463,-0.6463,-0.6463,-0.6463,-0.6463,-0.6463,-0.6463,-0.6463,-0.636,-0.6463,-0.636,-0.6057,-0.6057,-0.6057,-0.6057,-0.636,-0.636,-0.6463,-0.6463,-0.6463,-0.6463,-0.636,-0.636,-0.6057,-0.5856,-0.6461,-0.6158,-0.5957,-0.6158,-0.636,-0.6461,-0.6259,-0.6057,-0.6057,-0.5755,-0.636,-0.6463,-0.5957,-0.5856,-0.6259,-0.6158,-0.545,-0.5148,-0.5047,0.2525,0.2424,0.202,0.1818,0.1818,0.1717,0.1717,0.1717,0.1616,0.1313,0.0909,0.0909,0.0606,0.0,0.0,0.0,0.0,0.0,0.0,0.0,0.0,0.0,0.0,0.0,0.0,0.0,0.0,0.0,0.0,0.0,0.0,0.0,0.0,0.0,0.0,0.0,0.0,0.0,0.0,0.0,0.0,0.0,0.0,0.0,0.0,0.0,0.0,-0.0908,-0.1413,-0.1514,-0.2422,-0.2927,-0.323,-0.4036,-0.444,-0.444,-0.4641,-0.5146,-0.5957,-0.6158,-0.6158,-0.6461,-0.6463,-0.6463,-0.6463,-0.6463,-0.6463,-0.6463,-0.6463,-0.6463,-0.6463,-0.6463,-0.6463,-0.6463,-0.6463,-0.6463,-0.6463,-0.6463,-0.6463,-0.6463,-0.6463,-0.6463,-0.636,-0.6461,-0.6461,-0.6463,-0.6463,-0.6463,-0.6463,-0.6463,-0.6463,-0.6463,-0.6463,-0.6463,-0.6463,-0.6463,-0.6463,-0.6463,-0.6463,-0.6463,-0.6463,-0.6463,-0.6463,-0.636,-0.6463,-0.6463,-0.6463,-0.6463,-0.6463,-0.6463,-0.6463,-0.6463,-0.636,-0.6158,-0.5957,0.1616,0.1919,0.1717,0.1616,0.1515,0.1313,0.1111,0.1111,0.0808,0.0606,0.0404,0.0303,0.0202,0.0,0.0,0.0,0.0,0.0,0.0,0.0,0.0,0.0,0.0,0.0,0.0,0.0,0.0,0.0,0.0,0.0,0.0,0.0,0.0,0.0,0.0,0.0,0.0,0.0,0.0,0.0,0.0,0.0,0.0,0.0,0.0,-0.0808,-0.111,-0.1918,-0.2422,-0.2725,-0.3532,-0.4036,-0.4339,-0.5045,-0.5753,-0.5753,-0.5753,-0.5957,-0.636,-0.6463,-0.6463,-0.6463,-0.6463,-0.6463,-0.6463,-0.6463,-0.6463,-0.6463,-0.6463,-0.6463,-0.6463,-0.6463,-0.6463,-0.6463,-0.6463,-0.6463,-0.6463,-0.6463,-0.6463,-0.6463,-0.6463,-0.6463,-0.6463,-0.6463,-0.6463,-0.6463,-0.6463,-0.6463,-0.6463,-0.6463,-0.6463,-0.6463,-0.6463,-0.6463,-0.6463,-0.6463,-0.6463,-0.6463,-0.6463,-0.6463,-0.6463,-0.6463,-0.6463,-0.6463,-0.6463,-0.6463,-0.6463,-0.6463,-0.6463,-0.6463,-0.6463,-0.6463,-0.6463,-0.6461,-0.6259,0.0808,0.1212,0.1212,0.1212,0.1212,0.0808,0.0606,0.0505,0.0202,0.0,0.0,0.0,0.0,0.0,0.0,0.0,0.0,0.0,0.0,0.0,0.0,0.0,0.0,0.0,0.0,0.0,0.0,0.0,0.0,0.0,0.0,0.0,0.0,0.0,0.0,0.0,0.0,0.0,0.0,0.0,0.0,0.0,0.0,0.0,-0.1514,-0.2019,-0.212,-0.3028,-0.3532,-0.3835,-0.4641,-0.5246,-0.545,-0.5856,-0.636,-0.636,-0.636,-0.636,-0.6461,-0.6463,-0.6463,-0.6463,-0.6463,-0.6463,-0.6463,-0.6463,-0.6463,-0.6463,-0.6463,-0.6463,-0.6463,-0.6463,-0.6463,-0.6463,-0.6463,-0.6463,-0.6463,-0.6463,-0.6463,-0.6463,-0.6463,-0.6463,-0.6463,-0.6463,-0.6463,-0.6463,-0.6463,-0.6463,-0.6463,-0.6463,-0.6463,-0.6463,-0.6463,-0.6463,-0.6463,-0.6463,-0.6463,-0.6463,-0.6463,-0.6463,-0.6463,-0.6463,-0.6463,-0.6463,-0.6463,-0.6463,-0.6463,-0.6463,-0.6463,-0.6463,-0.6463,-0.6463,-0.6463,-0.6463,-0.6561,0.0101,0.0101,0.0,0.0,0.0,0.0,0.0,0.0,0.0,0.0,0.0,0.0,0.0,0.0,0.0,0.0,0.0,0.0,0.0,0.0,0.0,0.0,0.0,0.0,0.0,0.0,0.0,0.0,0.0,0.0,0.0,0.0,0.0,0.0,0.0,0.0,0.0,0.0,0.0,0.0,-0.111,-0.1514,-0.1918,-0.2624,-0.2927,-0.3129,-0.3129,-0.4137,-0.4742,-0.4742,-0.5551,-0.6158,-0.6158,-0.636,-0.6463,-0.6463,-0.6463,-0.6463,-0.6463,-0.6463,-0.6463,-0.6463,-0.6463,-0.6463,-0.6463,-0.6463,-0.6463,-0.6463,-0.6463,-0.6463,-0.6463,-0.6463,-0.6463,-0.6463,-0.6463,-0.6463,-0.6463,-0.6463,-0.6463,-0.6463,-0.6463,-0.6463,-0.6463,-0.6463,-0.6463,-0.6463,-0.6463,-0.6463,-0.6463,-0.6463,-0.6463,-0.6463,-0.6463,-0.6463,-0.6463,-0.6463,-0.6463,-0.6463,-0.6463,-0.6463,-0.6463,-0.6463,-0.6463,-0.6463,-0.6463,-0.6463,-0.6463,-0.6463,-0.6463,-0.6463,-0.6463,-0.6463,-0.6463,-0.6463,-0.6662,0.0,0.0,0.0,0.0,0.0,0.0,0.0,0.0,0.0,0.0,0.0,0.0,0.0,0.0,0.0,0.0,0.0,0.0,0.0,0.0,0.0,0.0,0.0,0.0,0.0,0.0,0.0,0.0,0.0,0.0,0.0,0.0,0.0,0.0,0.0,0.0,0.0,0.0,-0.0707,-0.1312,-0.1514,-0.2321,-0.2826,-0.3129,-0.4036,-0.4137,-0.4339,-0.5248,-0.5652,-0.5957,-0.6259,-0.6461,-0.6463,-0.6463,-0.6463,-0.6463,-0.6463,-0.6561,-0.6561,-0.6561,-0.6463,-0.6463,-0.6463,-0.6463,-0.6463,-0.6463,-0.6463,-0.6463,-0.6463,-0.6463,-0.6463,-0.6463,-0.6463,-0.6463,-0.6463,-0.6463,-0.6463,-0.6463,-0.6463,-0.6463,-0.6463,-0.6463,-0.6463,-0.6463,-0.6463,-0.6463,-0.6463,-0.6463,-0.6463,-0.6463,-0.6463,-0.6463,-0.6463,-0.6463,-0.6463,-0.6463,-0.6463,-0.6463,-0.6463,-0.6463,-0.6463,-0.6463,-0.6463,-0.6463,-0.6463,-0.6463,-0.6463,-0.6463,-0.6461,-0.6561,-0.6561,-0.6463,-0.6463,-0.6662,-0.7264,0.0,0.0,0.0,0.0,0.0,0.0,0.0,0.0,0.0,0.0,0.0,0.0,0.0,0.0,0.0,0.0,0.0,0.0,0.0,0.0,0.0,0.0,0.0,0.0,0.0,0.0,0.0,0.0,0.0,0.0,0.0,0.0,0.0,0.0,0.0,-0.0808,-0.0909,-0.1212,-0.1615,-0.232,-0.2623,-0.323,-0.4038,-0.424,-0.5045,-0.5248,-0.545,-0.5957,-0.6259,-0.636,-0.6463,-0.6463,-0.6463,-0.6463,-0.6463,-0.6463,-0.6561,-0.6561,-0.6662,-0.6561,-0.6561,-0.6463,-0.6463,-0.6463,-0.6461,-0.6461,-0.6463,-0.6463,-0.6463,-0.6561,-0.6561,-0.6463,-0.6463,-0.6463,-0.6463,-0.6463,-0.6463,-0.6463,-0.6463,-0.6463,-0.6463,-0.6463,-0.6463,-0.6463,-0.6463,-0.6463,-0.6463,-0.6463,-0.6463,-0.6463,-0.6463,-0.6463,-0.6463,-0.6463,-0.6463,-0.6463,-0.6463,-0.6463,-0.6463,-0.6463,-0.6463,-0.6463,-0.6463,-0.6463,-0.6463,-0.6463,-0.6763,-0.7065,-0.6864,-0.6561,-0.6864,-0.7465,-0.7767,-0.8166,-0.8869,0.0,0.0,0.0,0.0,0.0,0.0,0.0,0.0,0.0,0.0,0.0,0.0,0.0,0.0,0.0,0.0,0.0,0.0,0.0,0.0,0.0,0.0,0.0,0.0,0.0,0.0,-0.0404,-0.101,-0.1513,-0.1514,-0.2019,-0.2624,-0.2624,-0.2422,-0.1715,-0.2523,-0.3028,-0.3129,-0.3028,-0.3633,-0.4137,-0.4541,-0.5248,-0.5755,-0.6057,-0.6158,-0.6259,-0.6259,-0.6463,-0.6463,-0.6463,-0.6463,-0.6463,-0.6463,-0.6561,-0.6561,-0.6561,-0.6763,-0.7166,-0.6763,-0.6662,-0.6763,-0.6864,-0.6763,-0.6662,-0.6561,-0.6763,-0.6864,-0.6763,-0.6662,-0.6561,-0.6561,-0.6662,-0.6662,-0.6662,-0.6561,-0.6561,-0.6463,-0.6463,-0.6463,-0.6463,-0.6463,-0.6463,-0.6463,-0.6463,-0.6463,-0.6463,-0.6463,-0.6463,-0.6463,-0.6463,-0.6463,-0.6463,-0.6463,-0.6463,-0.6463,-0.6463,-0.6463,-0.6463,-0.6463,-0.6463,-0.6463,-0.6463,-0.6561,-0.6964,-0.7364,-0.7666,-0.7867,-0.7965,-0.8266,-0.8568,-0.897,-0.9271,-0.9669,-1.0271,0.0,0.0,0.0,0.0,0.0,0.0,0.0,0.0,0.0,0.0,0.0,0.0,0.0,0.0,0.0,0.0,0.0,0.0,0.0,0.0,0.0,0.0,-0.0808,-0.111,-0.1413,-0.1918,-0.2121,-0.2121,-0.2624,-0.2624,-0.2725,-0.323,-0.3936,-0.3633,-0.3028,-0.3129,-0.3129,-0.333,-0.3835,-0.444,-0.4843,-0.5551,-0.6057,-0.6463,-0.6463,-0.6463,-0.6463,-0.6463,-0.6463,-0.6561,-0.6561,-0.6561,-0.6561,-0.6561,-0.6763,-0.6964,-0.7062,-0.7264,-0.7666,-0.7666,-0.7566,-0.7566,-0.7465,-0.7465,-0.7566,-0.7566,-0.7566,-0.7465,-0.7364,-0.7465,-0.7566,-0.7566,-0.7566,-0.7163,-0.7062,-0.6763,-0.6662,-0.6561,-0.6463,-0.6463,-0.6463,-0.6463,-0.6463,-0.6463,-0.6463,-0.6463,-0.6463,-0.6463,-0.6463,-0.6463,-0.6463,-0.6463,-0.6463,-0.6463,-0.6463,-0.6463,-0.6463,-0.6463,-0.6463,-0.6463,-0.6463,-0.6763,-0.7364,-0.7867,-0.8166,-0.8367,-0.9368,-1.017,-1.007,-1.0271,-1.1068,-1.0868,-1.0672,-1.0972,-1.1373,0.0,0.0,0.0,0.0,0.0,0.0,0.0,0.0,0.0,0.0,0.0,0.0,0.0,0.0,0.0,0.0,0.0,0.0,0.0,-0.0606,0.0,-0.1615,-0.2019,-0.2221,-0.2422,-0.3129,-0.3332,-0.323,-0.3734,-0.3734,-0.4036,-0.4641,-0.4944,-0.4944,-0.4543,-0.4543,-0.4543,-0.4742,-0.5146,-0.545,-0.5652,-0.6057,-0.6461,-0.6463,-0.6463,-0.6463,-0.6463,-0.6561,-0.6561,-0.6561,-0.6662,-0.6763,-0.6763,-0.6964,-0.7163,-0.7465,-0.7767,-0.7968,-0.827,-0.8672,-0.8672,-0.8672,-0.8367,-0.8166,-0.8065,-0.7968,-0.7968,-0.7965,-0.8166,-0.8166,-0.8166,-0.8166,-0.8069,-0.7666,-0.7465,-0.7267,-0.7166,-0.7065,-0.6864,-0.6763,-0.6662,-0.6561,-0.6561,-0.6463,-0.6463,-0.6463,-0.6463,-0.6463,-0.6463,-0.6463,-0.6463,-0.6463,-0.6561,-0.6561,-0.6561,-0.6463,-0.6463,-0.6463,-0.6763,-0.7163,-0.7364,-0.7867,-0.8568,-0.9267,-0.9669,-1.0471,-1.1969,-1.2668,-1.2962,-1.3661,-1.4557,-1.396,-1.2468,-1.2674,-1.3373,0.0,0.0,0.0,0.0,0.0,0.0,0.0,0.0,0.0,0.0,0.0,0.0,0.0,0.0,0.0,0.0,0.0,0.0,-0.1514,-0.1817,-0.2321,-0.2826,-0.3129,-0.323,-0.3532,-0.3431,-0.3734,-0.4541,-0.4944,-0.5345,-0.5851,-0.6057,-0.6057,-0.6057,-0.5957,-0.5957,-0.5957,-0.5957,-0.5957,-0.6357,-0.676,-0.676,-0.7267,-0.7364,-0.7663,-0.7462,-0.7364,-0.7264,-0.7062,-0.6962,-0.7062,-0.7264,-0.7465,-0.7767,-0.7965,-0.827,-0.8572,-0.8776,-0.8978,-0.9279,-0.948,-0.9275,-0.8773,-0.837,-0.8266,-0.8471,-0.8471,-0.8471,-0.8471,-0.837,-0.827,-0.837,-0.837,-0.8169,-0.8169,-0.7968,-0.7867,-0.7666,-0.7364,-0.7166,-0.6964,-0.6864,-0.6864,-0.6864,-0.6864,-0.6763,-0.6763,-0.6561,-0.6561,-0.6463,-0.6463,-0.6463,-0.6561,-0.6662,-0.6763,-0.7163,-0.7666,-0.8069,-0.8162,-0.8464,-0.8665,-0.9267,-1.0166,-1.0968,-1.1468,-1.2468,-1.4165,-1.5459,-1.6247,-1.6949,-1.714,-1.6651,-1.5161,-1.5466,-1.6069,0.0,0.0,0.0,0.0,0.0,-0.0808,-0.0707,0.0,0.0,0.0,0.0,0.0,0.0,-0.111,0.0,-0.1615,-0.212,-0.2523,-0.2725,-0.2927,-0.333,-0.3734,-0.4137,-0.444,-0.4843,-0.5349,-0.5753,-0.6354,-0.7459,-0.766,-0.6959,-0.6561,-0.6964,-0.6864,-0.6864,-0.6561,-0.6864,-0.6864,-0.7062,-0.7465,-0.8065,-0.8367,-0.8869,-0.9564,-1.0258,-0.9961,-0.8966,-0.9464,-0.9163,-0.8065,-0.7864,-0.7965,-0.7864,-0.8065,-0.8169,-0.8676,-0.9078,-0.948,-0.948,-0.9581,-0.9681,-0.9681,-0.9279,-0.9275,-0.9275,-0.9175,-0.9074,-0.9074,-0.8974,-0.8974,-0.8974,-0.8974,-0.8873,-0.8773,-0.8672,-0.8572,-0.837,-0.8169,-0.7867,-0.7666,-0.7364,-0.7364,-0.7364,-0.7465,-0.7465,-0.7163,-0.7062,-0.7163,-0.6763,-0.6763,-0.6864,-0.6864,-0.7261,-0.7562,-0.8166,-0.8668,-0.9271,-0.9769,-0.9961,-1.0358,-1.0863,-1.1463,-1.2163,-1.2962,-1.4065,-1.5267,-1.6566,-1.7558,-1.8236,-1.8434,-1.8631,-1.8343,-1.8046,-1.7954,-1.8053,-0.0906,-0.1211,-0.0808,-0.0908,-0.1312,-0.1918,-0.1817,-0.1313,-0.1212,-0.1313,-0.1313,0.0,-0.1616,-0.212,-0.2221,-0.2523,-0.3028,-0.3633,-0.3835,-0.3936,-0.424,-0.4946,-0.5448,-0.6052,-0.6858,-0.7465,-0.8169,-0.8966,-0.9669,-0.9769,-0.9171,-0.8668,-0.8367,-0.8665,-0.9063,-0.956,-0.9657,-0.926,-0.8862,-0.8962,-0.9665,-1.0563,-1.1363,-1.2358,-1.3345,-1.2253,-1.0963,-1.1754,-1.1354,-1.0062,-0.9961,-1.0362,-0.9865,-0.9267,-0.8873,-0.9279,-0.948,-0.9581,-0.9681,-0.9681,-0.9681,-0.9681,-0.9681,-0.9681,-0.9681,-0.9581,-0.9581,-0.9581,-0.9581,-0.9681,-0.9681,-0.9681,-0.948,-0.9279,-0.9179,-0.9078,-0.8877,-0.8572,-0.837,-0.8166,-0.8065,-0.7965,-0.8065,-0.8065,-0.8166,-0.8065,-0.8564,-0.9263,-0.8363,-0.7264,-0.7566,-0.7767,-0.836,-0.8858,-0.9661,-1.0663,-1.1559,-1.2158,-1.2348,-1.2747,-1.3256,-1.3954,-1.475,-1.585,-1.7055,-1.7954,-1.8556,-1.9141,-1.9733,-1.9922,-2.0218,-2.0218,-1.9824,-1.9133,-1.9339,-0.22,-0.3024,-0.2119,-0.2221,-0.3129,-0.323,-0.333,-0.333,-0.3431,-0.3332,-0.3129,-0.3129,-0.3028,-0.333,-0.333,-0.3532,-0.4038,-0.4643,-0.4944,-0.5045,-0.5551,-0.6259,-0.7059,-0.8065,-0.8467,-0.9368,-1.007,-1.0471,-1.1073,-1.1273,-1.1373,-1.1473,-1.1168,-1.1363,-1.2048,-1.2248,-1.2547,-1.3046,-1.1853,-1.1359,-1.2652,-1.3345,-1.3643,-1.4632,-1.4831,-1.4235,-1.3046,-1.3145,-1.3837,-1.3245,-1.3151,-1.3743,-1.2158,-1.0868,-1.0275,-0.9581,-0.9681,-0.9681,-0.9681,-0.9681,-0.9681,-0.9681,-0.9681,-0.9882,-0.9982,-0.9782,-0.9681,-0.9681,-0.9681,-0.9681,-0.9681,-0.9681,-0.9581,-0.948,-0.948,-0.938,-0.9279,-0.9078,-0.8873,-0.8672,-0.8672,-0.8672,-0.8869,-0.897,-0.9865,-0.9368,-1.0162,-1.1359,-1.0858,-0.926,-0.936,-0.9761,-1.0258,-1.1249,-1.2547,-1.3544,-1.4235,-1.4732,-1.503,-1.5433,-1.5943,-1.6736,-1.743,-1.8038,-1.8548,-1.9437,-2.0136,-2.062,-2.1013,-2.1505,-2.1701,-2.2093,-2.1701,-2.071,-2.0522,-0.2871,-0.3098,-0.2918,-0.3028,-0.333,-0.4036,-0.444,-0.4541,-0.5349,-0.4744,-0.3433,-0.333,-0.3734,-0.4339,-0.4641,-0.4944,-0.5753,-0.6256,-0.6158,-0.6256,-0.6763,-0.7666,-0.8266,-0.9267,-0.987,-1.0471,-1.1173,-1.1969,-1.2368,-1.2768,-1.2962,-1.2652,-1.2852,-1.3544,-1.4433,-1.4533,-1.5129,-1.6425,-1.5731,-1.4937,-1.5731,-1.6128,-1.6432,-1.7726,-1.8221,-1.7719,-1.6927,-1.7026,-1.6531,-1.5638,-1.544,-1.4551,-1.2763,-1.2363,-1.1273,-1.0079,-0.9681,-0.9782,-0.9882,-0.9882,-0.9982,-0.9878,-0.9978,-1.038,-1.038,-0.9982,-0.9782,-0.9782,-0.9782,-0.9782,-0.9681,-0.9681,-0.9681,-0.9681,-0.9681,-0.9681,-0.9681,-0.9581,-0.938,-0.938,-0.9279,-0.9476,-0.9673,-1.0371,-1.1168,-1.2158,-1.3345,-1.4135,-1.3936,-1.314,-1.3433,-1.3638,-1.314,-1.4036,-1.5327,-1.6326,-1.7118,-1.7818,-1.8319,-1.8525,-1.873,-1.8928,-1.9125,-1.9232,-1.9733,-2.0522,-2.1112,-2.1603,-2.1995,-2.2583,-2.2867,-2.3062,-2.3062,-2.2378,-2.2084,-0.402,-0.4452,-0.4596,-0.4614,-0.4718,-0.5338,-0.5551,-0.5652,-0.6259,-0.6256,-0.5649,-0.5146,-0.5047,-0.5851,-0.6254,-0.6754,-0.7666,-0.8367,-0.8769,-0.8668,-0.8568,-0.9271,-0.997,-1.1068,-1.2269,-1.3068,-1.4458,-1.5155,-1.4657,-1.5453,-1.6049,-1.5539,-1.5638,-1.6029,-1.692,-1.7323,-1.7719,-1.9207,-1.9109,-1.9109,-1.901,-1.892,-1.9216,-2.0513,-2.0808,-2.0209,-1.9708,-1.9511,-1.9117,-1.8023,-1.7528,-1.634,-1.4651,-1.3356,-1.1768,-1.0375,-0.9782,-0.9882,-1.0284,-1.048,-1.058,-1.0777,-1.1077,-1.1778,-1.1778,-1.1478,-1.0982,-1.0982,-1.0685,-1.0585,-0.9882,-0.9681,-0.9681,-0.9681,-0.9681,-0.9681,-0.9681,-0.9681,-0.9581,-0.9581,-1.0074,-1.1368,-1.1864,-1.3062,-1.3755,-1.4352,-1.5731,-1.6821,-1.6715,-1.6609,-1.7111,-1.721,-1.6616,-1.692,-1.8221,-1.9117,-1.9807,-2.0611,-2.1013,-2.0906,-2.0504,-2.0611,-2.071,-2.0718,-2.0915,-2.1308,-2.1897,-2.2485,-2.3062,-2.3551,-2.3746,-2.3843,-2.3843,-2.4125,-2.432,-0.534,-0.6273,-0.6333,-0.6365,-0.6478,-0.6726,-0.6855,-0.6864,-0.7062,-0.7968,-0.8769,-0.7663,-0.7166,-0.7666,-0.8467,-0.8869,-0.9472,-1.007,-1.0772,-1.1268,-1.1268,-1.1864,-1.2863,-1.4159,-1.4956,-1.6148,-1.7444,-1.8038,-1.8236,-1.854,-1.854,-1.924,-1.9635,-1.9832,-2.062,-2.1013,-2.1103,-2.1397,-2.1594,-2.1986,-2.1897,-2.1514,-2.1603,-2.1995,-2.2289,-2.1397,-2.0799,-2.0701,-2.0996,-2.0504,-1.9511,-1.8221,-1.6736,-1.5049,-1.3062,-1.1573,-1.0676,-1.0982,-1.1282,-1.1483,-1.1979,-1.2474,-1.2873,-1.2973,-1.2973,-1.2879,-1.2379,-1.2184,-1.1783,-1.1282,-1.058,-1.0179,-1.0179,-1.0279,-1.0179,-1.0279,-1.0279,-1.048,-1.0576,-1.0676,-1.1869,-1.3256,-1.4153,-1.5347,-1.6241,-1.6835,-1.7726,-1.8813,-1.961,-1.97,-1.9897,-1.9798,-1.9396,-2.0111,-2.0817,-2.1013,-2.1397,-2.1594,-2.1799,-2.2191,-2.2289,-2.1799,-2.1701,-2.2093,-2.2289,-2.2769,-2.3062,-2.3551,-2.4028,-2.499,-2.5,-2.5195,-2.5669,-2.6056,-2.6624,-0.5958,-0.6213,-0.627,-0.6423,-0.6663,-0.7771,-0.8407,-0.8661,-0.9769,-1.0572,-1.0672,-1.0672,-1.0371,-1.0371,-1.0572,-1.0972,-1.1173,-1.1773,-1.2163,-1.2453,-1.3251,-1.4247,-1.534,-1.634,-1.7338,-1.8335,-1.9133,-1.9133,-1.9824,-1.9626,-1.9733,-2.0423,-2.0522,-2.1013,-2.1799,-2.2093,-2.2093,-2.2387,-2.2387,-2.2387,-2.2387,-2.2191,-2.2191,-2.2387,-2.2387,-2.2093,-2.1995,-2.2191,-2.2093,-2.1897,-2.1594,-2.0406,-1.8813,-1.7133,-1.5446,-1.3661,-1.2668,-1.2474,-1.2774,-1.2679,-1.3073,-1.3273,-1.3473,-1.3678,-1.3878,-1.4177,-1.3878,-1.3778,-1.3379,-1.2679,-1.2074,-1.1974,-1.1974,-1.2074,-1.2074,-1.2174,-1.2274,-1.3162,-1.3854,-1.4253,-1.5042,-1.5837,-1.6234,-1.7422,-1.8616,-1.9405,-2.0299,-2.129,-2.1496,-2.2084,-2.2485,-2.2182,-2.179,-2.1888,-2.2093,-2.1897,-2.2191,-2.2387,-2.2485,-2.2681,-2.2681,-2.2387,-2.2485,-2.3638,-2.4125,-2.4601,-2.4796,-2.5367,-2.6141,-2.6914,-2.6636,-2.6732,-2.7407,-2.8164,-2.9122]},{"header":{"parameterUnit":"m.s-1","parameterCategory":1,"la1":31.0,"la2":29.5877,"lo1":-88.7671,"lo2":-86.6584,"dy":0.0162,"dx":0.0185,"nx":115,"ny":88,"refTime":"2023-10-08T06:00:00:Z","depth":0,"parameterNumber":3,"parameterNumberName":"V-component_of_WINDS"},"data":[0.0,0.0,0.0,0.0,0.0,0.0,0.0,0.0,0.0,0.0,0.0,0.0,0.0,0.0,0.0,0.0,0.0,0.0,0.0,0.0,0.0,0.0,0.0,0.0,0.0,0.0,0.0,0.0,0.0,0.0,0.0,0.0,0.0,0.0,0.0,0.0,0.0,0.0,0.0,0.0,0.0,0.0,0.0,0.0,0.0,0.0,0.0,0.0,0.0,0.0,0.0,0.0,0.0,0.0,0.0,0.0,0.0,0.0,0.0,0.0,0.0,0.0,0.0,0.0,0.0,0.0,0.0,0.0,0.0,0.0,0.0,0.0,0.0,0.0,0.0,0.0,0.0,0.0,0.0,0.0,0.0,0.0,0.0,0.0,0.0,0.0,0.0,0.0,0.0,0.0,0.0,0.0,0.0,0.0,0.0,0.0,0.0,0.0,0.0,0.0,0.0,0.0,0.0,0.0,0.0,0.0,0.0,0.0,0.0,0.0,0.0,0.0,0.0,0.0,0.0,0.0,0.0,0.0,0.0,0.0,0.0,0.0,0.0,0.0,0.0,0.0,0.0,0.0,0.0,0.0,0.0,0.0,0.0,0.0,0.0,0.0,0.0,0.0,0.0,0.0,0.0,0.0,0.0,0.0,0.0,0.0,0.0,0.0,0.0,0.0,0.0,0.0,0.0,0.0,0.0,0.0,0.0,0.0,0.0,0.0,0.0,0.0,0.0,0.0,0.0,0.0,0.0,0.0,0.0,0.0,0.0,0.0,0.0,0.0,0.0,0.0,0.0,0.0,0.0,0.0,0.0,0.0,0.0,0.0,0.0,0.0,0.0,0.0,0.0,0.0,0.0,0.0,0.0,0.0,0.0,0.0,0.0,0.0,0.0,0.0,0.0,0.0,0.0,0.0,0.0,0.0,0.0,0.0,0.0,0.0,0.0,0.0,0.0,0.0,0.0,0.0,0.0,0.0,0.0,0.0,0.0,0.0,0.0,0.0,0.0,0.0,0.0,0.0,0.0,0.0,0.0,0.0,0.0,0.0,0.0,0.0,0.0,0.0,0.0,0.0,0.0,0.0,0.0,0.0,0.0,0.0,0.0,0.0,0.0,0.0,0.0,0.0,0.0,0.0,0.0,0.0,0.0,0.0,0.0,0.0,0.0,0.0,0.0,0.0,0.0,0.0,0.0,0.0,0.0,0.0,0.0,0.0,0.0,0.0,0.0,0.0,0.0,0.0,0.0,0.0,0.0,0.0,0.0,0.0,0.0,0.0,0.0,0.0,0.0,0.0,0.0,0.0,0.0,0.0,0.0,0.0,0.0,0.0,0.0,0.0,0.0,0.0,0.0,0.0,0.0,0.0,0.0,0.0,0.0,0.0,0.0,0.0,0.0,0.0,0.0,0.0,0.0,0.0,0.0,0.0,0.0,0.0,0.0,0.0,0.0,0.0,0.0,0.0,0.0,0.0,0.0,0.0,0.0,0.0,0.0,0.0,0.0,0.0,0.0,0.0,0.0,0.0,0.0,0.0,0.0,0.0,0.0,0.0,0.0,0.0,0.0,0.0,0.0,0.0,0.0,0.0,0.0,0.0,0.0,0.0,0.0,0.0,0.0,0.0,0.0,0.0,0.0,0.0,0.0,0.0,0.0,0.0,0.0,0.0,0.0,0.0,0.0,0.0,0.0,0.0,0.0,0.0,0.0,0.0,0.0,0.0,0.0,0.0,0.0,0.0,0.0,0.0,0.0,0.0,0.0,0.0,0.0,0.0,0.0,0.0,0.0,0.0,0.0,0.0,0.0,0.0,0.0,0.0,0.0,0.0,0.0,0.0,0.0,0.0,0.0,0.0,0.0,0.0,0.0,0.0,0.0,0.0,0.0,0.0,0.0,0.0,0.0,0.0,0.0,0.0,0.0,0.0,0.0,0.0,0.0,0.0,0.0,0.0,0.0,0.0,0.0,0.0,0.0,0.0,0.0,0.0,0.0,0.0,0.0,0.0,0.0,0.0,0.0,0.0,0.0,0.0,0.0,0.0,0.0,0.0,0.0,0.0,0.0,0.0,0.0,0.0,0.0,0.0,0.0,0.0,0.0,0.0,0.0,0.0,0.0,0.0,0.0,0.0,0.0,0.0,0.0,0.0,0.0,0.0,0.0,0.0,0.0,0.0,0.0,0.0,0.0,0.0,0.0,0.0,0.0,0.0,0.0,0.0,0.0,0.0,0.0,0.0,0.0,0.0,0.0,0.0,0.0,0.0,0.0,0.0,0.0,0.0,0.0,0.0,0.0,0.0,0.0,0.0,0.0,0.0,0.0,0.0,0.0,0.0,0.0,0.0,0.0,0.0,0.0,0.0,0.0,0.0,0.0,0.0,0.0,0.0,0.0,0.0,0.0,0.0,0.0,0.0,0.0,0.0,0.0,0.0,0.0,0.0,0.0,0.0,0.0,0.0,0.0,0.0,0.0,0.0,0.0,0.0,0.0,0.0,0.0,0.0,0.0,0.0,0.0,0.0,0.0,0.0,0.0,0.0,0.0,0.0,0.0,0.0,0.0,0.0,0.0,0.0,0.0,0.0,0.0,0.0,0.0,0.0,0.0,0.0,0.0,0.0,0.0,0.0,0.0,0.0,0.0,0.0,0.0,0.0,0.0,0.0,0.0,0.0,0.0,0.0,0.0,0.0,0.0,0.0,0.0,0.0,0.0,0.0,0.0,0.0,0.0,0.0,0.0,0.0,0.0,0.0,0.0,0.0,0.0,0.0,0.0,0.0,0.0,0.0,0.0,0.0,0.0,0.0,0.0,0.0,0.0,0.0,0.0,0.0,0.0,0.0,0.0,0.0,0.0,0.0,0.0,0.0,0.0,0.0,0.0,0.0,0.0,0.0,0.0,0.0,0.0,0.0,0.0,0.0,0.0,0.0,0.0,0.0,0.0,0.0,0.0,0.0,0.0,0.0,0.0,0.0,0.0,0.0,0.0,0.0,0.0,0.0,0.0,0.0,0.0,0.0,0.0,0.0,0.0,0.0,0.0,0.0,0.0,0.0,0.0,0.0,0.0,0.0,0.0,0.0,0.0,0.0,0.0,0.0,0.0,0.0,0.0,0.0,0.0,0.0,0.0,0.0,0.0,0.0,0.0,0.0,0.0,0.0,0.0,0.0,0.0,0.0,0.0,0.0,0.0,0.0,0.0,0.0,0.0,0.0,0.0,0.0,0.0,0.0,0.0,0.0,0.0,0.0,0.0,0.0,0.0,0.0,0.0,0.0,0.0,0.0,0.0,0.0,0.0,0.0,0.0,0.0,0.0,0.0,0.0,0.0,0.0,0.0,0.0,0.0,0.0,0.0,0.0,0.0,0.0,0.0,0.0,0.0,0.0,0.0,0.0,0.0,0.0,0.0,0.0,0.0,0.0,0.0,0.0,0.0,0.0,0.0,0.0,0.0,0.0,0.0,0.0,0.0,0.0,0.0,0.0,0.0,0.0,0.0,0.0,0.0,0.0,0.0,0.0,0.0,0.0,0.0,0.0,0.0,0.0,0.0,0.0,0.0,0.0,0.0,0.0,0.0,0.0,0.0,0.0,0.0,0.0,0.0,0.0,0.0,0.0,0.0,0.0,0.0,0.0,0.0,0.0,0.0,0.0,0.0,0.0,0.0,0.0,0.0,0.0,0.0,0.0,0.0,0.0,0.0,0.0,0.0,0.0,0.0,0.0,0.0,0.0,0.0,0.0,0.0,0.0,0.0,0.0,0.0,0.0,0.0,0.0,0.0,0.0,0.0,0.0,0.0,0.0,0.0,0.0,0.0,0.0,0.0,0.0,0.0,0.0,0.0,0.0,0.0,0.0,0.0,0.0,0.0,0.0,0.0,0.0,0.0,0.0,0.0,0.0,0.0,0.0,0.0,0.0,0.0,0.0,0.0,0.0,0.0,0.0,0.0,0.0,0.0,0.0,0.0,0.0,0.0,0.0,0.0,0.0,0.0,0.0,0.0,0.0,0.0,0.0,0.0,0.0,0.0,0.0,0.0,0.0,0.0,0.0,0.0,0.0,0.0,0.0,0.0,0.0,0.0,0.0,0.0,0.0,0.0,0.0,0.0,0.0,0.0,0.0,0.0,0.0,0.0,0.0,0.0,0.0,0.0,0.0,0.0,0.0,0.0,0.0,0.0,0.0,0.0,0.0,0.0,0.0,0.0,0.0,0.0,0.0,0.0,0.0,0.0,0.0,0.0,0.0,0.0,0.0,0.0,0.0,0.0,0.0,0.0,0.0,0.0,0.0,0.0,3.4572,0.0,0.0,0.0,0.0,0.0,0.0,0.0,0.0,0.0,0.0,0.0,0.0,0.0,0.0,0.0,0.0,0.0,0.0,0.0,0.0,0.0,0.0,0.0,0.0,0.0,0.0,0.0,0.0,0.0,0.0,0.0,0.0,0.0,0.0,0.0,0.0,0.0,0.0,0.0,0.0,0.0,0.0,0.0,0.0,0.0,0.0,0.0,0.0,0.0,0.0,0.0,0.0,0.0,0.0,0.0,0.0,0.0,0.0,0.0,0.0,0.0,0.0,0.0,0.0,0.0,0.0,0.0,0.0,0.0,0.0,0.0,0.0,0.0,0.0,0.0,0.0,0.0,0.0,0.0,0.0,0.0,0.0,0.0,0.0,0.0,0.0,0.0,0.0,0.0,0.0,0.0,0.0,0.0,0.0,0.0,0.0,0.0,0.0,0.0,0.0,0.0,0.0,0.0,0.0,0.0,0.0,0.0,0.0,0.0,0.0,3.6136,3.5761,3.5797,3.5843,3.5889,0.0,0.0,0.0,0.0,0.0,0.0,0.0,0.0,0.0,0.0,0.0,0.0,0.0,0.0,0.0,0.0,0.0,0.0,0.0,0.0,0.0,0.0,0.0,0.0,0.0,0.0,0.0,0.0,0.0,0.0,0.0,0.0,0.0,0.0,0.0,0.0,0.0,0.0,0.0,0.0,0.0,0.0,0.0,0.0,0.0,0.0,0.0,0.0,0.0,0.0,0.0,0.0,0.0,0.0,0.0,0.0,0.0,0.0,0.0,0.0,0.0,0.0,0.0,0.0,0.0,0.0,0.0,0.0,0.0,0.0,0.0,0.0,0.0,0.0,0.0,0.0,0.0,0.0,0.0,0.0,0.0,0.0,0.0,0.0,0.0,0.0,0.0,0.0,0.0,0.0,0.0,0.0,0.0,0.0,0.0,0.0,0.0,0.0,0.0,0.0,0.0,0.0,0.0,0.0,0.0,0.0,0.0,0.0,0.0,0.0,0.0,0.0,3.698,3.7028,3.7003,0.0,0.0,0.0,0.0,0.0,0.0,0.0,0.0,0.0,0.0,0.0,0.0,0.0,0.0,0.0,0.0,0.0,0.0,0.0,0.0,0.0,0.0,0.0,0.0,0.0,0.0,0.0,0.0,0.0,0.0,0.0,0.0,0.0,0.0,0.0,0.0,0.0,0.0,0.0,0.0,0.0,0.0,0.0,0.0,0.0,0.0,0.0,0.0,0.0,0.0,0.0,0.0,0.0,0.0,0.0,0.0,0.0,0.0,0.0,0.0,0.0,0.0,0.0,0.0,0.0,0.0,0.0,0.0,0.0,0.0,0.0,0.0,0.0,0.0,0.0,0.0,0.0,0.0,0.0,0.0,0.0,0.0,0.0,0.0,0.0,0.0,0.0,0.0,0.0,0.0,0.0,0.0,0.0,0.0,0.0,0.0,0.0,0.0,0.0,0.0,0.0,0.0,0.0,0.0,0.0,0.0,0.0,0.0,0.0,0.0,3.7553,3.682,3.6969,0.0,3.7099,0.0,0.0,0.0,0.0,0.0,0.0,0.0,0.0,0.0,0.0,0.0,0.0,0.0,0.0,0.0,0.0,0.0,0.0,0.0,0.0,0.0,0.0,0.0,0.0,0.0,0.0,0.0,0.0,0.0,0.0,0.0,0.0,0.0,0.0,0.0,0.0,0.0,0.0,0.0,0.0,0.0,0.0,0.0,0.0,0.0,0.0,0.0,0.0,0.0,0.0,0.0,0.0,0.0,0.0,0.0,0.0,0.0,0.0,0.0,0.0,0.0,0.0,0.0,0.0,0.0,0.0,0.0,0.0,0.0,0.0,0.0,0.0,0.0,0.0,0.0,0.0,0.0,0.0,0.0,0.0,0.0,0.0,0.0,0.0,0.0,0.0,0.0,0.0,0.0,0.0,0.0,0.0,0.0,0.0,0.0,0.0,0.0,0.0,0.0,0.0,0.0,0.0,0.0,0.0,0.0,0.0,0.0,0.0,0.0,0.0,3.8598,3.839,3.8477,3.8539,0.0,0.0,0.0,0.0,0.0,0.0,0.0,0.0,0.0,0.0,0.0,0.0,0.0,0.0,0.0,0.0,0.0,0.0,0.0,0.0,0.0,0.0,0.0,0.0,0.0,0.0,0.0,0.0,0.0,0.0,0.0,0.0,0.0,0.0,0.0,0.0,0.0,0.0,0.0,0.0,0.0,0.0,0.0,0.0,0.0,0.0,0.0,0.0,0.0,0.0,0.0,0.0,0.0,0.0,0.0,0.0,0.0,0.0,0.0,0.0,0.0,0.0,0.0,0.0,0.0,0.0,0.0,0.0,0.0,0.0,0.0,0.0,0.0,0.0,0.0,0.0,0.0,0.0,0.0,0.0,0.0,0.0,0.0,0.0,0.0,0.0,0.0,0.0,0.0,0.0,0.0,0.0,0.0,0.0,0.0,0.0,0.0,0.0,0.0,0.0,0.0,0.0,0.0,0.0,0.0,0.0,0.0,0.0,0.0,0.0,3.9886,3.9842,3.9775,3.9652,3.9552,3.9589,0.0,0.0,0.0,0.0,0.0,0.0,0.0,0.0,0.0,0.0,0.0,0.0,0.0,0.0,0.0,0.0,0.0,0.0,0.0,0.0,0.0,0.0,0.0,0.0,0.0,0.0,0.0,0.0,0.0,0.0,0.0,0.0,0.0,0.0,0.0,0.0,0.0,0.0,0.0,0.0,0.0,0.0,0.0,0.0,0.0,0.0,0.0,0.0,0.0,0.0,0.0,0.0,0.0,0.0,0.0,0.0,0.0,0.0,0.0,0.0,0.0,0.0,0.0,0.0,0.0,0.0,0.0,0.0,0.0,0.0,0.0,0.0,0.0,0.0,0.0,0.0,0.0,0.0,0.0,0.0,0.0,0.0,0.0,0.0,0.0,0.0,0.0,0.0,0.0,0.0,0.0,0.0,0.0,0.0,0.0,0.0,0.0,0.0,0.0,0.0,0.0,0.0,0.0,0.0,0.0,0.0,0.0,0.0,4.1438,4.151,4.1246,4.0582,3.9834,3.9501,0.0,0.0,0.0,0.0,0.0,0.0,0.0,0.0,0.0,0.0,0.0,0.0,0.0,0.0,0.0,0.0,0.0,0.0,0.0,0.0,0.0,0.0,0.0,0.0,0.0,0.0,0.0,0.0,0.0,0.0,0.0,0.0,0.0,0.0,0.0,0.0,0.0,0.0,0.0,0.0,0.0,0.0,0.0,0.0,0.0,0.0,0.0,0.0,0.0,0.0,0.0,0.0,0.0,0.0,0.0,0.0,0.0,0.0,0.0,0.0,0.0,0.0,0.0,0.0,0.0,0.0,0.0,0.0,0.0,0.0,0.0,0.0,0.0,0.0,0.0,0.0,0.0,0.0,0.0,0.0,0.0,0.0,0.0,0.0,0.0,0.0,0.0,0.0,0.0,0.0,0.0,0.0,0.0,0.0,0.0,0.0,0.0,0.0,0.0,0.0,0.0,0.0,0.0,0.0,0.0,0.0,0.0,0.0,0.0,4.1622,4.1673,4.1576,4.132,4.1118,4.1049,0.0,0.0,0.0,0.0,0.0,0.0,0.0,0.0,0.0,0.0,0.0,0.0,0.0,0.0,0.0,0.0,0.0,0.0,0.0,0.0,0.0,0.0,0.0,0.0,0.0,0.0,0.0,0.0,0.0,0.0,0.0,0.0,0.0,0.0,0.0,0.0,0.0,0.0,0.0,0.0,0.0,0.0,0.0,0.0,0.0,0.0,0.0,0.0,0.0,0.0,0.0,0.0,0.0,0.0,0.0,0.0,0.0,0.0,0.0,0.0,0.0,0.0,0.0,0.0,0.0,0.0,0.0,0.0,0.0,0.0,0.0,0.0,0.0,0.0,0.0,0.0,0.0,0.0,0.0,0.0,0.0,0.0,0.0,0.0,0.0,0.0,0.0,0.0,0.0,0.0,0.0,0.0,0.0,0.0,0.0,0.0,0.0,0.0,0.0,0.0,0.0,0.0,0.0,0.0,0.0,0.0,0.0,0.0,0.0,4.2485,0.0,4.2054,4.2083,4.195,4.1846,0.0,0.0,0.0,0.0,0.0,0.0,0.0,0.0,0.0,0.0,0.0,0.0,0.0,0.0,0.0,0.0,0.0,0.0,0.0,0.0,0.0,0.0,0.0,0.0,0.0,0.0,0.0,0.0,0.0,0.0,0.0,0.0,0.0,0.0,0.0,0.0,0.0,0.0,0.0,0.0,0.0,0.0,0.0,0.0,0.0,0.0,0.0,0.0,0.0,0.0,0.0,0.0,0.0,0.0,0.0,0.0,0.0,0.0,0.0,0.0,0.0,0.0,0.0,0.0,0.0,0.0,0.0,0.0,0.0,0.0,0.0,0.0,0.0,0.0,0.0,0.0,0.0,0.0,0.0,0.0,0.0,0.0,0.0,0.0,0.0,0.0,0.0,0.0,0.0,0.0,0.0,0.0,0.0,0.0,0.0,0.0,0.0,0.0,0.0,0.0,0.0,0.0,0.0,0.0,0.0,0.0,0.0,0.0,4.3379,4.4124,4.3252,4.2828,4.2888,4.223,4.1903,0.0,0.0,0.0,0.0,0.0,0.0,0.0,0.0,0.0,0.0,0.0,0.0,0.0,0.0,0.0,0.0,0.0,0.0,0.0,0.0,0.0,0.0,0.0,0.0,0.0,0.0,0.0,0.0,0.0,0.0,0.0,0.0,0.0,0.0,0.0,0.0,0.0,0.0,0.0,0.0,0.0,0.0,0.0,0.0,0.0,0.0,0.0,0.0,0.0,0.0,0.0,0.0,0.0,0.0,0.0,0.0,0.0,0.0,0.0,0.0,0.0,0.0,0.0,0.0,0.0,0.0,0.0,0.0,0.0,0.0,0.0,0.0,0.0,0.0,0.0,0.0,0.0,0.0,0.0,0.0,0.0,0.0,0.0,0.0,0.0,0.0,0.0,0.0,0.0,0.0,0.0,0.0,0.0,0.0,0.0,0.0,0.0,0.0,0.0,0.0,0.0,0.0,0.0,0.0,0.0,0.0,0.0,0.0,0.0,4.4236,4.381,4.363,4.3646,4.3558,4.3534,0.0,0.0,0.0,0.0,0.0,0.0,0.0,0.0,0.0,0.0,0.0,0.0,0.0,0.0,0.0,0.0,0.0,0.0,0.0,0.0,0.0,0.0,0.0,0.0,0.0,0.0,0.0,0.0,0.0,0.0,0.0,0.0,0.0,0.0,0.0,0.0,0.0,0.0,0.0,0.0,0.0,0.0,0.0,0.0,0.0,0.0,0.0,0.0,0.0,0.0,0.0,0.0,0.0,0.0,0.0,0.0,0.0,0.0,0.0,0.0,0.0,0.0,0.0,0.0,0.0,0.0,0.0,0.0,0.0,0.0,0.0,0.0,0.0,0.0,0.0,0.0,0.0,0.0,0.0,0.0,0.0,0.0,0.0,0.0,0.0,0.0,0.0,0.0,0.0,0.0,0.0,0.0,0.0,0.0,0.0,0.0,0.0,0.0,0.0,0.0,0.0,0.0,0.0,0.0,0.0,0.0,0.0,0.0,0.0,4.5746,4.5611,4.555,4.5509,4.541,4.5184,4.4811,0.0,0.0,0.0,0.0,0.0,0.0,0.0,0.0,0.0,0.0,0.0,0.0,0.0,0.0,0.0,0.0,0.0,0.0,0.0,0.0,0.0,0.0,0.0,0.0,0.0,0.0,0.0,0.0,0.0,0.0,0.0,0.0,0.0,0.0,0.0,0.0,0.0,0.0,0.0,0.0,0.0,0.0,0.0,0.0,0.0,0.0,0.0,0.0,0.0,0.0,0.0,0.0,0.0,0.0,0.0,0.0,0.0,0.0,0.0,0.0,0.0,0.0,0.0,0.0,0.0,0.0,0.0,0.0,0.0,0.0,0.0,0.0,0.0,0.0,0.0,0.0,0.0,0.0,0.0,0.0,0.0,0.0,0.0,0.0,0.0,0.0,0.0,0.0,0.0,0.0,0.0,0.0,0.0,0.0,0.0,0.0,0.0,0.0,0.0,0.0,0.0,0.0,0.0,0.0,0.0,0.0,0.0,0.0,4.8476,4.8491,4.8378,4.8065,4.7454,4.6708,0.0,0.0,0.0,0.0,0.0,0.0,0.0,0.0,0.0,0.0,0.0,0.0,0.0,0.0,0.0,0.0,0.0,0.0,0.0,0.0,0.0,0.0,0.0,0.0,0.0,0.0,0.0,0.0,0.0,0.0,0.0,0.0,0.0,0.0,0.0,0.0,0.0,0.0,0.0,0.0,0.0,0.0,0.0,0.0,0.0,0.0,0.0,0.0,0.0,0.0,0.0,0.0,0.0,0.0,0.0,0.0,0.0,0.0,0.0,0.0,0.0,0.0,0.0,0.0,0.0,0.0,0.0,0.0,0.0,0.0,0.0,0.0,0.0,0.0,0.0,0.0,0.0,0.0,0.0,0.0,0.0,0.0,0.0,0.0,0.0,0.0,0.0,0.0,0.0,0.0,0.0,0.0,0.0,0.0,0.0,0.0,0.0,0.0,0.0,0.0,0.0,0.0,0.0,0.0,0.0,0.0,0.0,0.0,0.0,5.2001,5.2262,5.1405,4.9347,4.8451,4.7895,0.0,0.0,0.0,0.0,0.0,0.0,0.0,0.0,0.0,0.0,0.0,0.0,0.0,0.0,0.0,0.0,0.0,0.0,0.0,0.0,0.0,0.0,0.0,0.0,0.0,0.0,0.0,0.0,0.0,0.0,0.0,0.0,0.0,0.0,0.0,0.0,0.0,0.0,0.0,0.0,0.0,0.0,0.0,0.0,0.0,0.0,0.0,0.0,0.0,0.0,0.0,0.0,0.0,0.0,0.0,0.0,0.0,0.0,0.0,0.0,0.0,0.0,0.0,0.0,0.0,0.0,0.0,0.0,0.0,0.0,0.0,0.0,0.0,0.0,0.0,0.0,0.0,0.0,0.0,0.0,0.0,0.0,0.0,0.0,0.0,0.0,0.0,0.0,0.0,0.0,0.0,0.0,0.0,0.0,0.0,0.0,0.0,0.0,0.0,0.0,0.0,0.0,0.0,0.0,0.0,0.0,0.0,0.0,5.2574,5.3543,5.4552,5.424,5.2658,5.0582,4.9306,0.0,0.0,0.0,0.0,0.0,0.0,0.0,0.0,0.0,0.0,0.0,0.0,0.0,0.0,0.0,0.0,0.0,0.0,0.0,0.0,0.0,0.0,0.0,0.0,0.0,0.0,0.0,0.0,0.0,0.0,0.0,0.0,0.0,0.0,0.0,0.0,0.0,0.0,0.0,0.0,0.0,0.0,0.0,0.0,0.0,0.0,0.0,0.0,0.0,0.0,0.0,0.0,0.0,0.0,0.0,0.0,0.0,0.0,0.0,0.0,0.0,0.0,0.0,0.0,0.0,0.0,0.0,0.0,0.0,0.0,0.0,0.0,0.0,0.0,0.0,0.0,0.0,0.0,0.0,0.0,0.0,0.0,0.0,0.0,0.0,0.0,0.0,0.0,0.0,0.0,0.0,0.0,0.0,0.0,0.0,0.0,0.0,0.0,0.0,0.0,0.0,0.0,0.0,0.0,0.0,0.0,0.0,0.0,5.4026,5.4216,5.5845,5.6753,5.6625,5.3411,5.1178,0.0,0.0,0.0,0.0,0.0,0.0,0.0,0.0,0.0,0.0,0.0,0.0,0.0,0.0,0.0,0.0,0.0,0.0,0.0,0.0,0.0,0.0,0.0,0.0,0.0,0.0,0.0,0.0,0.0,0.0,0.0,0.0,0.0,0.0,0.0,0.0,0.0,0.0,0.0,0.0,0.0,0.0,0.0,0.0,0.0,0.0,0.0,0.0,0.0,0.0,0.0,0.0,0.0,0.0,0.0,0.0,0.0,0.0,0.0,0.0,0.0,0.0,0.0,0.0,0.0,0.0,0.0,0.0,0.0,0.0,0.0,0.0,0.0,0.0,0.0,0.0,0.0,0.0,0.0,0.0,0.0,0.0,0.0,0.0,0.0,0.0,0.0,0.0,0.0,0.0,0.0,0.0,0.0,0.0,0.0,0.0,0.0,0.0,0.0,0.0,0.0,0.0,0.0,0.0,0.0,0.0,0.0,0.0,5.5423,5.6759,5.7347,5.7619,5.7619,5.5375,5.4016,0.0,0.0,0.0,0.0,0.0,0.0,0.0,0.0,0.0,0.0,0.0,0.0,0.0,0.0,0.0,0.0,0.0,0.0,0.0,0.0,0.0,0.0,0.0,0.0,0.0,0.0,0.0,0.0,0.0,0.0,0.0,0.0,0.0,0.0,0.0,0.0,0.0,0.0,0.0,0.0,0.0,0.0,0.0,0.0,0.0,0.0,0.0,0.0,5.1415,0.0,0.0,0.0,0.0,0.0,0.0,0.0,0.0,0.0,0.0,0.0,0.0,0.0,0.0,0.0,0.0,0.0,0.0,0.0,0.0,0.0,0.0,0.0,0.0,0.0,0.0,0.0,0.0,0.0,0.0,0.0,0.0,0.0,0.0,0.0,0.0,0.0,0.0,0.0,0.0,0.0,0.0,0.0,0.0,0.0,0.0,0.0,0.0,0.0,0.0,0.0,0.0,0.0,0.0,0.0,0.0,0.0,0.0,0.0,5.6316,5.7644,5.8214,5.8459,5.8408,5.7373,5.623,0.0,0.0,0.0,0.0,0.0,0.0,0.0,0.0,0.0,0.0,0.0,0.0,0.0,0.0,0.0,0.0,0.0,0.0,0.0,0.0,0.0,0.0,0.0,0.0,0.0,0.0,0.0,0.0,0.0,0.0,0.0,0.0,0.0,0.0,0.0,0.0,0.0,0.0,0.0,0.0,0.0,0.0,0.0,0.0,0.0,0.0,0.0,0.0,0.0,0.0,0.0,0.0,0.0,0.0,0.0,0.0,0.0,0.0,0.0,0.0,0.0,0.0,0.0,0.0,0.0,0.0,0.0,0.0,0.0,0.0,0.0,0.0,0.0,0.0,0.0,0.0,0.0,0.0,0.0,0.0,0.0,0.0,0.0,0.0,0.0,0.0,0.0,0.0,0.0,0.0,0.0,0.0,0.0,0.0,0.0,0.0,0.0,0.0,0.0,0.0,0.0,0.0,0.0,0.0,0.0,0.0,0.0,5.6706,5.7263,5.8172,5.8929,5.93,5.9286,5.9073,5.783,5.5513,0.0,0.0,0.0,0.0,0.0,0.0,0.0,0.0,0.0,0.0,0.0,0.0,0.0,0.0,0.0,0.0,0.0,0.0,0.0,0.0,0.0,0.0,0.0,0.0,0.0,0.0,0.0,0.0,0.0,0.0,0.0,0.0,0.0,0.0,0.0,0.0,0.0,0.0,4.9952,4.9802,0.0,0.0,0.0,0.0,0.0,0.0,0.0,0.0,5.1802,0.0,0.0,0.0,0.0,0.0,0.0,0.0,0.0,0.0,0.0,0.0,0.0,0.0,0.0,0.0,0.0,0.0,0.0,0.0,0.0,0.0,0.0,0.0,0.0,0.0,0.0,0.0,0.0,0.0,0.0,0.0,0.0,0.0,0.0,0.0,0.0,0.0,0.0,0.0,0.0,0.0,0.0,0.0,0.0,0.0,0.0,0.0,0.0,0.0,0.0,0.0,0.0,0.0,0.0,0.0,0.0,5.8497,5.8563,5.9026,5.9936,6.0102,6.0179,6.0179,5.9463,5.8543,5.7368,0.0,0.0,0.0,0.0,0.0,0.0,0.0,0.0,0.0,0.0,0.0,0.0,0.0,0.0,0.0,0.0,0.0,0.0,0.0,0.0,0.0,0.0,0.0,0.0,0.0,0.0,0.0,0.0,0.0,0.0,0.0,0.0,0.0,0.0,0.0,0.0,0.0,0.0,0.0,5.2441,5.2262,0.0,0.0,0.0,0.0,0.0,0.0,0.0,0.0,5.4689,0.0,0.0,0.0,0.0,0.0,0.0,0.0,0.0,0.0,0.0,0.0,0.0,0.0,0.0,0.0,0.0,0.0,0.0,0.0,0.0,0.0,0.0,0.0,0.0,0.0,0.0,0.0,0.0,0.0,0.0,0.0,0.0,0.0,0.0,0.0,0.0,0.0,0.0,0.0,0.0,0.0,0.0,0.0,0.0,0.0,0.0,0.0,0.0,0.0,0.0,0.0,0.0,0.0,0.0,0.0,5.8349,5.924,6.0108,6.0981,6.1478,6.1707,6.1669,6.0867,5.9984,0.0,0.0,0.0,0.0,0.0,0.0,0.0,0.0,0.0,0.0,0.0,0.0,0.0,0.0,0.0,0.0,0.0,0.0,0.0,0.0,0.0,0.0,0.0,0.0,0.0,0.0,0.0,0.0,0.0,0.0,0.0,0.0,0.0,0.0,0.0,0.0,0.0,0.0,0.0,0.0,5.4245,5.4276,5.6543,0.0,0.0,0.0,0.0,0.0,0.0,5.592,5.5344,0.0,0.0,0.0,0.0,0.0,0.0,0.0,0.0,0.0,0.0,0.0,0.0,0.0,0.0,0.0,0.0,0.0,0.0,0.0,0.0,0.0,0.0,0.0,0.0,0.0,0.0,0.0,0.0,0.0,0.0,0.0,0.0,0.0,0.0,0.0,0.0,0.0,0.0,0.0,0.0,0.0,0.0,0.0,0.0,0.0,0.0,0.0,0.0,0.0,0.0,0.0,0.0,0.0,0.0,0.0,5.8568,6.0056,6.1153,6.186,6.2548,6.2892,6.2892,6.1898,6.1029,0.0,0.0,0.0,0.0,0.0,0.0,0.0,0.0,0.0,0.0,0.0,0.0,0.0,0.0,0.0,0.0,0.0,0.0,0.0,0.0,0.0,0.0,0.0,0.0,0.0,0.0,0.0,0.0,0.0,0.0,0.0,0.0,0.0,0.0,0.0,0.0,0.0,0.0,0.0,0.0,0.0,5.6277,5.8692,5.7104,0.0,0.0,0.0,0.0,5.7385,5.7149,0.0,0.0,0.0,0.0,0.0,0.0,0.0,0.0,0.0,0.0,0.0,0.0,0.0,0.0,0.0,0.0,0.0,0.0,0.0,0.0,0.0,0.0,0.0,0.0,0.0,0.0,0.0,0.0,0.0,0.0,0.0,0.0,0.0,0.0,0.0,0.0,0.0,0.0,0.0,0.0,0.0,0.0,0.0,0.0,0.0,0.0,0.0,0.0,0.0,0.0,0.0,0.0,0.0,0.0,0.0,0.0,6.1158,6.2113,6.2648,6.2777,6.2839,6.2892,6.2892,6.1363,6.0485,0.0,0.0,0.0,0.0,0.0,0.0,0.0,0.0,0.0,0.0,0.0,0.0,0.0,0.0,0.0,0.0,0.0,0.0,0.0,0.0,0.0,0.0,0.0,0.0,0.0,0.0,0.0,0.0,0.0,0.0,0.0,0.0,0.0,0.0,0.0,0.0,0.0,0.0,0.0,0.0,0.0,5.7938,5.9756,5.9049,5.8342,0.0,0.0,6.1811,6.1941,6.3106,0.0,0.0,0.0,0.0,0.0,0.0,0.0,0.0,0.0,0.0,0.0,0.0,0.0,0.0,0.0,0.0,0.0,0.0,0.0,0.0,0.0,0.0,0.0,0.0,0.0,0.0,0.0,0.0,0.0,0.0,0.0,0.0,0.0,0.0,0.0,0.0,0.0,0.0,0.0,0.0,0.0,0.0,0.0,0.0,0.0,0.0,0.0,0.0,0.0,0.0,0.0,0.0,0.0,0.0,0.0,6.063,6.1037,6.273,6.3618,6.3656,6.4076,6.4344,6.4305,6.2701,6.1822,0.0,0.0,0.0,0.0,0.0,0.0,0.0,0.0,0.0,0.0,0.0,0.0,0.0,0.0,0.0,0.0,0.0,0.0,0.0,0.0,0.0,0.0,0.0,0.0,0.0,0.0,0.0,0.0,0.0,0.0,0.0,0.0,0.0,0.0,0.0,0.0,0.0,0.0,0.0,0.0,0.0,0.0,6.1545,6.134,0.0,0.0,0.0,6.2422,6.1424,0.0,0.0,0.0,0.0,0.0,0.0,0.0,0.0,0.0,0.0,0.0,0.0,0.0,0.0,0.0,0.0,0.0,0.0,0.0,0.0,0.0,0.0,0.0,0.0,0.0,0.0,0.0,0.0,0.0,0.0,0.0,0.0,0.0,0.0,0.0,0.0,0.0,0.0,0.0,0.0,0.0,0.0,0.0,0.0,0.0,0.0,0.0,0.0,0.0,0.0,0.0,0.0,0.0,0.0,0.0,0.0,0.0,6.1513,6.347,6.4511,6.455,6.5299,6.5719,6.5719,6.4496,0.0,0.0,0.0,0.0,0.0,0.0,0.0,0.0,0.0,0.0,0.0,0.0,0.0,0.0,0.0,0.0,0.0,0.0,0.0,0.0,0.0,0.0,0.0,0.0,0.0,0.0,0.0,5.4114,0.0,0.0,0.0,0.0,0.0,0.0,0.0,0.0,0.0,0.0,0.0,0.0,0.0,0.0,6.2803,6.2826,6.3184,6.3528,0.0,0.0,6.3398,6.2323,6.4619,6.542,0.0,0.0,0.0,0.0,0.0,0.0,0.0,0.0,0.0,0.0,0.0,0.0,0.0,0.0,0.0,0.0,0.0,0.0,0.0,0.0,0.0,0.0,0.0,0.0,0.0,0.0,0.0,0.0,0.0,0.0,0.0,0.0,0.0,0.0,0.0,0.0,0.0,0.0,0.0,0.0,0.0,0.0,0.0,0.0,0.0,0.0,0.0,0.0,0.0,0.0,0.0,0.0,0.0,0.0,6.4039,6.4078,6.4885,6.5337,6.5337,6.6178,6.6636,6.6636,6.6522,6.6063,0.0,0.0,0.0,0.0,0.0,0.0,0.0,0.0,0.0,0.0,0.0,0.0,0.0,0.0,0.0,0.0,0.0,0.0,0.0,0.0,0.0,0.0,0.0,0.0,0.0,0.0,0.0,0.0,0.0,0.0,0.0,0.0,0.0,0.0,0.0,0.0,0.0,0.0,0.0,0.0,0.0,6.2886,6.2826,6.4184,6.5513,0.0,6.643,6.6659,6.7286,6.8836,6.8897,6.5496,0.0,0.0,0.0,0.0,0.0,0.0,0.0,0.0,0.0,0.0,0.0,0.0,0.0,0.0,0.0,0.0,0.0,0.0,0.0,0.0,0.0,0.0,0.0,0.0,0.0,0.0,0.0,0.0,0.0,0.0,0.0,0.0,0.0,0.0,0.0,0.0,0.0,0.0,0.0,0.0,0.0,0.0,0.0,0.0,0.0,0.0,0.0,0.0,0.0,0.0,0.0,0.0,0.0,6.5374,6.5911,6.6583,6.6942,6.6942,6.7286,6.7439,6.7439,6.6942,6.6308,0.0,0.0,0.0,0.0,0.0,0.0,0.0,0.0,0.0,0.0,0.0,0.0,0.0,0.0,0.0,0.0,0.0,0.0,0.0,0.0,0.0,0.0,0.0,0.0,0.0,0.0,0.0,0.0,6.1893,6.2595,6.2115,0.0,0.0,0.0,0.0,0.0,0.0,0.0,0.0,0.0,0.0,6.5023,6.6529,6.7308,0.0,0.0,6.9005,6.8754,6.8074,6.9801,6.99,6.6055,6.5834,0.0,0.0,0.0,0.0,0.0,0.0,0.0,0.0,0.0,0.0,0.0,0.0,0.0,0.0,0.0,0.0,0.0,0.0,0.0,0.0,0.0,0.0,0.0,0.0,0.0,0.0,0.0,0.0,0.0,0.0,0.0,0.0,0.0,0.0,0.0,0.0,0.0,0.0,0.0,0.0,0.0,0.0,0.0,0.0,0.0,0.0,0.0,0.0,0.0,0.0,0.0,0.0,6.6681,6.7295,6.7722,6.7897,6.7897,6.8126,6.8279,6.8279,6.7973,6.7431,0.0,0.0,0.0,0.0,0.0,0.0,0.0,0.0,0.0,0.0,0.0,0.0,0.0,0.0,0.0,0.0,0.0,0.0,0.0,0.0,0.0,0.0,0.0,0.0,0.0,0.0,0.0,0.0,6.4033,6.452,6.3961,0.0,0.0,0.0,0.0,0.0,0.0,0.0,0.0,0.0,0.0,6.7424,6.8655,6.9037,6.9435,7.0025,6.9872,6.9444,6.8533,6.988,6.9941,6.6757,0.0,0.0,0.0,0.0,0.0,0.0,0.0,0.0,0.0,0.0,0.0,0.0,0.0,0.0,0.0,0.0,0.0,0.0,0.0,0.0,0.0,0.0,0.0,0.0,0.0,0.0,0.0,5.7511,0.0,0.0,5.7601,0.0,0.0,0.0,0.0,0.0,0.0,0.0,0.0,0.0,0.0,0.0,0.0,0.0,0.0,0.0,0.0,0.0,0.0,0.0,0.0,0.0,0.0,6.8153,6.8191,6.8067,6.7951,6.7973,6.8738,6.9196,6.9234,6.9922,6.996,6.912,0.0,0.0,0.0,0.0,0.0,0.0,0.0,0.0,0.0,0.0,0.0,0.0,0.0,0.0,0.0,0.0,0.0,0.0,0.0,0.0,0.0,0.0,0.0,0.0,0.0,0.0,6.331,6.4718,6.573,0.0,0.0,0.0,0.0,0.0,0.0,0.0,0.0,0.0,6.5547,6.825,6.9725,6.8311,6.8786,6.9429,6.9528,6.8867,6.856,6.9289,6.9481,6.9106,0.0,0.0,0.0,0.0,0.0,0.0,0.0,0.0,0.0,0.0,0.0,0.0,0.0,0.0,0.0,0.0,0.0,0.0,0.0,0.0,0.0,0.0,0.0,0.0,0.0,0.0,0.0,5.8883,5.9421,0.0,0.0,0.0,0.0,0.0,0.0,0.0,0.0,0.0,0.0,0.0,6.5224,6.6054,0.0,0.0,0.0,0.0,0.0,0.0,0.0,0.0,0.0,0.0,0.0,0.0,6.9376,6.9899,6.9689,6.9846,7.0397,7.0741,7.1145,7.1718,7.1985,7.1751,7.0958,0.0,0.0,0.0,0.0,0.0,0.0,0.0,0.0,0.0,0.0,0.0,0.0,0.0,0.0,0.0,0.0,0.0,0.0,0.0,0.0,0.0,0.0,0.0,0.0,0.0,6.6064,0.0,0.0,0.0,0.0,0.0,0.0,0.0,0.0,0.0,0.0,0.0,6.7187,6.8795,6.904,6.9462,7.0507,7.0846,7.1429,0.0,0.0,0.0,0.0,0.0,0.0,0.0,0.0,0.0,0.0,0.0,0.0,0.0,0.0,6.9342,6.7903,6.8133,6.8723,6.9289,0.0,0.0,0.0,0.0,0.0,0.0,0.0,0.0,0.0,0.0,0.0,0.0,0.0,0.0,6.1425,0.0,6.2027,0.0,0.0,0.0,0.0,0.0,0.0,0.0,0.0,6.6044,6.6538,6.7352,6.8195,6.877,0.0,6.9643,6.9721,0.0,0.0,0.0,0.0,0.0,0.0,0.0,0.0,7.1108,7.166,7.1443,7.1565,7.21,7.2138,7.2406,7.2979,7.2979,7.2745,7.2204,7.1765,7.1168,0.0,0.0,0.0,0.0,0.0,0.0,0.0,0.0,0.0,0.0,0.0,0.0,0.0,0.0,0.0,0.0,0.0,0.0,0.0,0.0,0.0,0.0,0.0,6.8411,0.0,0.0,0.0,0.0,0.0,0.0,0.0,0.0,0.0,6.8975,6.8833,6.9407,7.1003,7.0801,7.0777,7.1549,0.0,0.0,0.0,0.0,0.0,0.0,0.0,7.1699,7.0731,7.0958,7.1463,7.2025,7.2816,7.3338,7.3338,0.0,0.0,7.1242,7.1227,7.1688,7.2025,7.2547,7.3008,7.333,7.4297,7.511,0.0,0.0,0.0,0.0,0.0,0.0,0.0,0.0,6.5375,6.5,0.0,6.51,0.0,0.0,0.0,0.0,6.8191,6.8191,0.0,0.0,6.8947,6.9779,7.0684,7.1427,7.2269,7.3073,7.3061,7.3139,7.31,7.1641,0.0,0.0,0.0,0.0,0.0,0.0,7.3327,7.3346,7.3083,7.2979,7.3017,7.3017,7.3055,7.3132,7.3093,7.3093,7.3055,7.3139,7.2751,7.1925,7.1348,0.0,0.0,0.0,0.0,0.0,0.0,0.0,0.0,0.0,0.0,0.0,0.0,0.0,0.0,0.0,0.0,0.0,0.0,0.0,0.0,6.931,0.0,0.0,0.0,0.0,0.0,0.0,0.0,0.0,0.0,0.0,7.0194,7.1112,7.2092,7.2092,0.0,0.0,0.0,0.0,7.2803,7.1441,7.1904,7.2469,7.2469,7.2455,7.2981,7.4452,0.0,0.0,7.6683,7.644,7.6025,7.6025,7.6778,7.6615,7.4081,7.3605,7.3827,7.4639,7.4841,7.5095,7.5885,7.6269,7.6361,6.5139,0.0,0.0,0.0,0.0,6.507,6.5528,6.633,6.633,6.6537,6.6858,6.711,0.0,0.0,0.0,0.0,0.0,0.0,7.0316,7.0846,7.103,7.1526,7.2286,7.2554,7.2783,7.3012,7.3046,7.3062,7.3079,7.3194,7.3208,7.324,0.0,0.0,0.0,0.0,7.337,7.3261,7.3095,7.3284,7.3858,7.3858,7.4163,7.4775,7.4775,7.4775,7.4792,7.4809,7.4456,7.369,7.3499,0.0,0.0,0.0,0.0,0.0,0.0,0.0,0.0,0.0,0.0,0.0,0.0,0.0,0.0,0.0,0.0,0.0,0.0,0.0,7.0272,7.2121,7.2956,0.0,0.0,0.0,0.0,0.0,0.0,0.0,0.0,0.0,7.3485,7.3767,7.4062,0.0,0.0,7.3818,7.3145,7.3317,7.3561,7.3663,7.3906,0.0,7.4779,7.4938,7.5134,7.5625,7.6188,7.6751,7.7222,7.8038,7.8677,7.8677,7.9385,7.9746,7.9038,7.7831,7.7154,7.74,7.7885,7.8369,7.8669,7.9169,7.9592,6.9311,6.8279,6.6942,6.6598,6.6904,6.7247,6.7897,6.8699,6.9043,6.9289,6.9473,6.9785,6.9795,6.9544,6.9889,0.0,0.0,0.0,7.1927,7.2324,7.2324,7.2773,7.3437,7.3476,7.3667,7.3972,7.3972,7.3972,7.4028,7.4537,7.4657,7.4427,0.0,0.0,7.4564,7.4442,7.4326,7.4244,7.409,7.424,7.4698,7.4736,7.4966,7.548,7.5518,7.5518,7.5518,7.5518,7.5285,7.485,7.4549,7.4259,0.0,0.0,0.0,0.0,0.0,0.0,0.0,0.0,0.0,0.0,0.0,7.0591,7.0555,0.0,0.0,0.0,7.1479,7.2058,7.2945,7.4127,0.0,0.0,0.0,0.0,0.0,0.0,0.0,7.4351,7.5001,7.5543,7.589,7.5967,7.5671,7.4923,7.4488,7.4217,7.4265,0.0,7.5218,7.5743,7.6076,7.6419,7.6885,7.6991,7.7136,7.7497,7.8305,7.8844,7.8883,7.97,8.0285,8.0362,8.0746,8.1093,8.1093,8.0208,7.9515,7.9515,7.9939,8.0285,8.0323,8.0746,8.1093,7.2979,7.2711,6.9616,6.8776,6.9578,7.0304,7.1068,7.1849,7.2635,7.2592,7.1969,7.2668,7.2642,7.2042,7.2901,0.0,7.3172,7.3248,7.3292,7.3208,7.3208,7.359,7.4278,7.4316,7.4736,7.548,7.5518,7.5518,7.548,7.5595,7.5731,7.5824,7.5824,7.591,7.6115,7.5925,7.5848,7.5895,7.5709,7.5574,7.5518,7.5518,7.5518,7.5518,7.5518,7.5518,7.5518,7.5518,7.5518,7.548,7.4867,7.4488,7.4481,0.0,0.0,0.0,0.0,0.0,0.0,0.0,0.0,0.0,0.0,0.0,0.0,0.0,0.0,7.3542,7.4354,0.0,7.5859,7.5388,0.0,0.0,0.0,7.3997,7.3999,7.4642,7.5105,7.5195,0.0,0.0,7.751,7.7587,7.6955,7.5221,7.499,7.5086,7.5182,7.6398,7.7367,7.7439,7.8175,7.8728,7.8604,7.872,7.9013,7.9646,8.0592,8.0939,8.0939,8.0977,8.1093,8.1054,8.1093,8.1093,8.1093,8.1016,8.1093,8.1016,8.1054,8.1054,8.1054,8.1054,8.1093,7.2979,7.2941,7.2138,7.1909,7.21,7.2291,7.2482,7.2711,7.2902,7.2881,7.2745,7.2919,7.2936,7.2778,7.3603,7.3947,7.3951,7.4618,7.4907,7.4889,7.4907,7.5021,7.5157,7.5195,7.5271,7.5518,7.5518,7.5518,7.5518,7.5514,7.5956,7.6724,7.6763,7.6855,7.7015,7.699,7.6919,7.6794,7.6731,7.6334,7.5518,7.5518,7.5518,7.5518,7.5518,7.5518,7.5518,7.5518,7.5518,7.5518,7.5374,7.5337,7.5465,7.5466,0.0,0.0,0.0,0.0,0.0,0.0,0.0,0.0,0.0,7.414,7.3922,0.0,7.4591,0.0,7.5283,7.5466,7.5043,7.5456,0.0,0.0,7.5311,7.5903,7.6507,7.6723,7.7084,7.7808,7.8,7.8166,7.8398,7.8398,7.8227,7.766,7.7712,7.782,7.7885,7.8128,7.8343,7.8458,7.9095,7.9522,7.9623,8.0085,8.0585,8.0746,8.0977,8.1093,8.1093,8.1093,8.1093,8.1093,8.1093,8.1093,8.1131,8.1093,8.1131,8.1093,8.1093,8.1093,8.1093,8.1093,8.1093,7.4125,7.4087,7.4125,7.4087,7.4087,7.3705,7.3552,7.3552,7.3934,7.4087,7.4125,7.4087,7.4087,7.4125,7.4584,7.4775,7.4813,7.5271,7.5518,7.5518,7.5518,7.5518,7.5518,7.5518,7.5692,7.6036,7.6036,7.6227,7.657,7.6609,7.6926,7.7483,7.75,7.779,7.8299,7.8111,7.7932,7.7805,7.7701,7.7281,7.6665,7.6609,7.6679,7.676,7.676,7.6804,7.6924,7.6932,7.6932,7.6924,7.694,7.6816,7.6544,7.7045,7.7215,0.0,0.0,0.0,0.0,0.0,0.0,0.0,0.0,0.0,0.0,0.0,7.5504,7.5615,7.585,7.5985,7.6002,7.644,7.6671,7.6569,7.6955,7.7442,7.7915,7.7911,7.8079,7.8588,7.8637,7.8763,7.9148,7.9534,7.989,8.0146,8.0636,8.0516,7.9475,7.9201,7.9442,8.0174,8.0654,8.1093,8.14,8.19,8.2208,8.2208,8.2208,8.2208,8.2208,8.2208,8.2208,8.2208,8.2208,8.2208,8.2208,8.2208,8.2208,8.2208,8.2208,8.1939,8.1246,8.1093,8.1093,7.5518,7.5518,7.5518,7.5518,7.5442,7.4698,7.4354,7.4393,7.5157,7.5518,7.5518,7.5518,7.5518,7.5518,7.5518,7.5518,7.5518,7.5633,7.5671,7.5671,7.5747,7.5824,7.5824,7.5824,7.6168,7.6856,7.6876,7.7258,7.8002,7.8002,7.8097,7.8226,7.8226,7.8786,7.9792,7.9307,7.9069,7.9017,7.8661,7.8388,7.8226,7.8359,7.8458,7.8531,7.8546,7.8566,7.8722,7.8709,7.8696,7.8709,7.8696,7.8347,7.7626,7.8374,7.8552,0.0,7.8568,0.0,0.0,0.0,0.0,0.0,0.0,0.0,0.0,7.6482,7.6585,7.6623,7.6519,7.6776,7.764,7.773,7.7948,7.8517,7.858,7.8628,7.8646,7.8746,7.8861,7.8977,7.9054,7.9477,8.0246,8.0977,8.1708,8.2285,8.2878,8.2586,8.0823,8.0416,8.0916,8.2285,8.2477,8.2593,8.3208,8.3478,8.3516,8.3516,8.3478,8.3593,8.3478,8.3516,8.3555,8.3516,8.3478,8.3516,8.3593,8.3555,8.3555,8.3478,8.3439,8.3054,8.19,8.1554,8.14,7.5518,7.5518,7.5518,7.5518,7.548,7.531,7.5271,7.5271,7.5442,7.5518,7.5518,7.5518,7.5518,7.5518,7.5518,7.5518,7.5556,7.6188,7.6456,7.6494,7.727,7.7594,7.7594,7.7594,7.767,7.7823,7.7791,7.7867,7.8053,7.8053,7.8607,7.9531,7.9531,8.0073,8.1091,0.0,0.0,0.0,7.9904,7.9408,7.9415,8.0168,8.0285,7.9686,7.9686,0.0,7.8834,7.8734,7.8709,7.8722,7.8735,0.0,0.0,0.0,0.0,0.0,0.0,0.0,0.0,0.0,0.0,0.0,7.8219,7.7872,7.7409,7.7987,7.8336,7.8188,7.8202,7.8227,7.832,7.832,7.8382,7.8468,7.8545,7.88,7.9477,8.0169,8.0862,8.1516,8.217,8.267,8.2747,8.3054,8.317,8.3324,8.3516,8.3401,8.2939,8.2785,8.2978,8.3285,8.3362,8.3401,8.3555,8.367,8.3747,8.3593,8.3593,8.3632,8.367,8.367,8.3632,8.367,8.3593,8.3632,8.3632,8.3593,8.3708,8.3593,8.3632,8.3516,8.317,8.3131,8.3131,7.6723,7.6723,7.6723,7.6723,0.0,7.6723,7.6723,7.6685,7.5844,7.5747,7.6112,7.6532,7.6723,7.6723,7.6723,7.6723,7.6761,7.7197,7.7406,7.7406,7.7969,7.8194,7.8194,7.8194,7.8386,7.8769,7.8756,7.8985,7.942,7.942,7.9752,8.0353,8.0338,8.0608,8.1152,8.1181,8.1224,8.1189,8.0651,8.0339,8.0267,8.0769,8.0853,8.0533,8.0533,0.0,0.0,0.0,0.0,0.0,0.0,0.0,0.0,8.0094,0.0,7.9757,8.0175,8.0214,7.9796,7.9698,7.9513,7.9026,7.9382,7.9165,7.8194,7.8488,7.8665,7.8589,7.858,7.8758,7.9107,7.9131,7.9477,8.0246,8.0362,8.0708,8.1554,8.2054,8.2477,8.2862,8.3324,8.3593,8.3593,8.4016,8.4209,8.4286,8.4593,8.4824,8.4747,8.4093,8.3708,8.417,8.4632,8.4824,8.4824,8.4824,8.4824,8.4863,8.4824,8.4824,8.4824,8.4824,8.4824,8.4824,8.4824,8.4824,8.4824,8.4824,8.4824,8.4824,8.4824,8.4824,8.4786,8.4209,8.3593,7.8022,7.8022,7.8022,7.8022,7.8022,7.8002,7.802,7.7962,7.655,0.0,0.0,7.7678,7.8022,7.8022,7.8002,7.8002,7.802,7.8223,7.8352,7.8352,7.8628,7.8755,7.8755,7.8755,7.91,7.9752,7.9736,8.0119,8.0771,8.0826,8.0826,8.0843,8.0843,8.0843,8.0882,8.1063,8.1215,8.13,8.133,8.1254,8.1085,8.1272,8.1385,8.1403,8.1403,8.1451,8.1496,8.1523,8.1535,8.1553,8.1747,8.1511,8.0832,8.1594,8.1734,8.1059,8.1643,8.1693,8.0855,8.0769,8.0512,7.9822,8.0425,8.0309,7.9108,7.9028,7.9114,7.9268,7.9264,7.9605,8.0414,8.0508,8.1016,8.2401,8.2516,8.2785,8.3478,8.3747,8.3824,8.3824,8.3978,8.4055,8.4132,8.4863,8.5363,8.544,8.6055,8.6555,8.6401,8.5363,8.4709,8.5324,8.6055,8.6555,8.6555,8.6555,8.6555,8.6555,8.6555,8.6555,8.6555,8.6555,8.6555,8.6555,8.6555,8.6555,8.6555,8.6555,8.6555,8.6555,8.6555,8.6478,8.6247,8.5286,8.4362,7.8022,7.8022,7.8022,7.8022,7.7984,7.8073,7.8143,7.825,7.7826,7.7717,7.7831,7.7946,7.8022,7.8022,7.8073,7.8108,7.8147,7.8939,7.928,7.9335,8.0147,8.0526,8.0564,8.0526,8.0564,8.0718,8.0635,8.0673,8.0855,8.091,8.0943,8.1045,8.1061,8.1061,8.11,8.1769,8.2131,8.2109,8.2222,8.2266,8.2275,8.3112,8.3205,8.2624,8.2547,8.2247,8.1602,8.1728,8.1756,8.1774,8.1936,8.1934,8.1742,8.1882,8.182,8.1588,8.1696,8.1696,8.157,8.1561,8.1794,8.23,8.2485,8.1883,8.0359,8.0844,8.1543,8.2153,8.2041,8.2367,8.3179,8.3085,8.3048,8.3378,8.3401,8.3478,8.3708,8.4286,8.4747,8.4786,8.5324,8.5747,8.5824,8.6478,8.6995,8.7132,8.7605,8.8265,8.8067,8.7517,8.6978,8.7132,8.7786,8.8286,8.8183,8.8303,8.8205,8.8325,8.8243,8.8183,8.8144,8.8144,8.8144,8.8265,8.8183,8.8205,8.8243,8.8325,8.8205,8.8144,8.8144,8.7995,8.738,8.688,8.6517,7.936,7.936,7.936,7.9396,7.9412,7.9539,7.9608,7.9642,7.9556,7.9253,7.8871,7.933,7.9521,7.9521,7.9556,7.9574,7.9591,8.0059,8.0263,8.0301,8.0767,8.1029,8.0991,8.0991,8.1222,8.1644,8.1612,8.1881,8.2298,8.2391,8.2407,8.2477,8.2477,8.2477,8.2477,8.2824,8.3072,8.3157,8.3109,8.3102,8.3102,8.3641,8.3773,8.3411,8.3502,8.3395,8.3038,8.3067,8.3095,8.3095,8.329,8.3377,8.3311,8.3415,8.3438,8.337,8.3409,8.3409,8.337,8.337,8.3525,8.3915,8.3915,8.3603,8.2869,8.2948,8.3223,8.3572,8.3512,8.3613,8.4001,8.3889,8.3944,8.4407,8.4373,8.4478,8.4901,8.5286,8.5747,8.617,8.6555,8.6978,8.7478,8.7908,8.8204,8.8258,8.8668,8.8922,8.8961,8.8999,8.8799,8.839,8.8629,8.8845,8.8922,8.8922,8.8922,8.8922,8.8922,8.8922,8.8922,8.8922,8.8922,8.8922,8.8922,8.8922,8.8961,8.8922,8.8922,8.8907,8.8845,8.8605,8.8281,8.8177,8.7632,8.0659,8.0506,8.0716,8.0769,8.0685,8.0984,8.115,8.1167,8.1321,8.1052,8.0515,8.075,8.0792,8.0792,8.0809,8.0941,8.1112,8.1179,8.1343,8.1535,8.16,8.167,8.167,8.167,8.1977,8.2516,8.2593,8.2939,8.3516,8.3593,8.3641,8.3665,8.368,8.3672,8.3746,8.3939,8.4091,8.4248,8.4298,8.4132,8.376,8.3902,8.3963,8.3987,8.4115,8.4204,8.4204,8.4241,8.4267,8.4276,8.4461,8.4568,8.4574,8.472,8.4831,8.4831,8.4831,8.4831,8.4831,8.4831,8.487,8.5104,8.5104,8.5182,8.5328,8.5085,8.4832,8.4668,8.4604,8.4656,8.4863,8.4732,8.4815,8.5461,8.5625,8.5882,8.6401,8.6655,8.7025,8.7664,8.7802,8.8072,8.8628,8.9069,8.9338,8.9508,8.961,8.9665,8.9757,9.0312,9.0323,8.988,8.9624,8.9729,8.9679,8.9704,8.9743,8.9679,8.9704,8.9806,8.9768,8.9704,8.9665,8.9768,8.9743,8.9806,8.9704,8.9704,8.9768,8.9792,8.976,8.9531,8.93,8.8953,8.8425,8.1232,8.0677,8.144,8.143,8.1047,8.1716,8.2112,8.2253,8.3,8.3308,8.2945,8.1529,8.0869,8.0809,8.0915,8.1371,8.204,8.216,8.2538,8.3231,8.3362,8.3362,8.3285,8.3324,8.3401,8.3478,8.3478,8.3555,8.3747,8.3686,8.3725,8.385,8.3876,8.4028,8.4221,8.494,8.531,8.5369,8.6125,8.5727,8.4262,8.4165,8.4175,8.4175,8.4233,8.4204,8.4348,8.4396,8.4468,8.4481,8.4693,8.4778,8.4821,8.4789,8.4831,8.487,8.487,8.4831,8.4831,8.4831,8.5182,8.5885,8.5963,8.6275,8.6978,8.7081,8.6722,8.612,8.5777,8.5987,8.6675,8.6609,8.6505,8.6661,8.7241,8.7741,8.7781,8.844,8.8933,8.8917,8.8942,8.898,8.9262,8.9817,9.0503,9.1058,9.1086,9.1113,9.1152,9.1386,9.1592,9.1515,9.1463,9.1318,9.1241,9.1367,9.1216,9.1241,9.1304,9.1216,9.1152,9.1177,9.1343,9.0985,9.1216,9.1177,9.1202,9.1367,9.1279,9.1074,9.1047,9.1069,9.0387,8.974,8.9021,8.2433,8.2163,8.2528,8.2598,8.2501,8.2874,8.3061,8.3131,8.3439,8.3593,8.3516,8.2798,8.2457,8.2457,8.249,8.2699,8.3006,8.3038,8.3247,8.3593,8.3593,8.3593,8.3593,8.3593,8.3862,8.4324,8.4362,8.4632,8.501,8.5182,8.5384,8.558,8.5613,8.5657,8.5738,8.6098,8.634,8.6452,8.6802,8.6692,8.6182,8.596,8.5915,8.5922,8.604,8.6083,8.6083,8.6166,8.6224,8.6229,8.6297,8.6353,8.635,8.6311,8.6353,8.635,8.6314,8.6353,8.6314,8.635,8.6467,8.6861,8.6861,8.7059,8.7342,8.742,8.7426,8.7545,8.7081,8.6931,8.7286,8.7553,8.7751,8.7836,8.8398,8.8817,8.8779,8.9129,8.9419,8.9818,8.9937,9.012,9.0532,9.0985,9.145,9.1823,9.1873,9.1873,9.1885,9.1971,9.2033,9.1994,9.1948,9.1885,9.1873,9.1885,9.1873,9.1873,9.1885,9.1885,9.1873,9.1924,9.1885,9.1873,9.1861,9.1861,9.182,9.1885,9.1885,9.1861,9.1786,9.1631,9.1188,9.0826,9.0523,8.3461,8.3305,8.3288,8.3358,8.355,8.3846,8.3939,8.4016,8.417,8.4286,8.4286,8.4286,8.4286,8.4209,8.3824,8.3708,8.3939,8.3939,8.4093,8.4247,8.4286,8.4286,8.4302,8.4358,8.4697,8.5252,8.5381,8.5719,8.6274,8.6416,8.6649,8.6845,8.6873,8.6899,8.6942,8.695,8.7043,8.7175,8.7181,8.7341,8.7663,8.7619,8.742,8.7231,8.7295,8.7404,8.7404,8.7404,8.7404,8.7404,8.7404,8.7404,8.7404,8.7404,8.7404,8.7404,8.7404,8.7404,8.7404,8.7411,8.7414,8.7414,8.7612,8.7777,8.7785,8.7982,8.8377,8.8852,8.8488,8.8128,8.8173,8.8568,8.8813,8.8899,8.9498,8.9918,8.9897,9.0046,9.0517,9.0897,9.1013,9.1159,9.1638,9.1855,9.2,9.2049,9.2099,9.211,9.211,9.2099,9.2099,9.211,9.2099,9.2099,9.211,9.2088,9.211,9.211,9.2088,9.2088,9.211,9.211,9.211,9.2005,9.2088,9.2099,9.2028,9.2049,9.2081,9.2099,9.2005,9.1885,9.1695,9.1696,9.1683,8.4052,8.3417,8.3466,8.3627,8.367,8.4516,8.4863,8.4863,8.5593,8.594,8.5863,8.5901,8.594,8.5802,8.4395,8.4109,8.4786,8.4824,8.5225,8.5819,8.5879,8.594,8.5995,8.6173,8.6273,8.6261,8.6448,8.6648,8.6824,8.6806,8.6882,8.711,8.7241,8.7259,8.7447,8.7534,8.7393,8.7549,8.7549,8.783,8.8536,8.8614,8.8256,8.7631,8.7443,8.7521,8.7482,8.7443,8.7443,8.7443,8.7521,8.7482,8.7443,8.7482,8.7521,8.7482,8.7486,8.7446,8.7525,8.754,8.7548,8.7587,8.826,8.8658,8.8697,8.9244,8.9714,8.991,8.9832,8.9791,8.9871,8.9865,8.9902,8.9943,9.0683,9.1099,9.1109,9.1652,9.2221,9.2173,9.2066,9.2054,9.2121,9.219,9.2139,9.2103,9.2092,9.2102,9.2112,9.2102,9.2131,9.212,9.212,9.211,9.211,9.211,9.211,9.211,9.211,9.211,9.211,9.211,9.211,9.211,9.211,9.211,9.211,9.2131,9.2122,9.2132,9.2103,9.2053,9.1972,9.2049,9.2028,8.5291,8.504,8.5126,8.5176,8.5247,8.5555,8.567,8.5709,8.5978,8.6094,8.6094,8.6094,8.6168,8.625,8.5671,8.549,8.567,8.567,8.5899,8.6259,8.6288,8.6387,8.6531,8.6627,8.6661,8.6683,8.6757,8.7175,8.7783,8.783,8.8222,8.8872,8.8964,8.8982,8.9044,8.9047,8.9047,8.9047,8.9047,8.9203,8.9516,8.9516,8.9359,8.9086,8.9047,8.9047,8.9086,8.9086,8.9047,8.9086,8.9047,8.9047,8.9047,8.9047,8.9047,8.9047,8.9057,8.9063,8.9066,8.9076,8.9084,8.9084,8.9359,8.9521,8.9603,8.9837,9.023,9.0664,9.082,9.1014,9.1406,9.1168,9.0816,9.0937,9.1601,9.207,9.2143,9.2375,9.2523,9.245,9.2368,9.2279,9.2261,9.2243,9.223,9.2235,9.2228,9.2221,9.2214,9.2207,9.2178,9.216,9.2132,9.211,9.211,9.211,9.211,9.211,9.211,9.211,9.211,9.2092,9.2092,9.2142,9.2122,9.2122,9.2151,9.2207,9.2207,9.2191,9.2191,9.2182,9.2157,9.2187,9.2132,8.6009,8.6026,8.6153,8.6153,8.6126,8.6253,8.6246,8.6126,8.6168,8.6215,8.6215,8.6215,8.6317,8.6468,8.6544,8.6649,8.6703,8.6496,8.6401,8.6492,8.6544,8.6638,8.6816,8.7127,8.7318,8.7405,8.7697,8.8247,8.8824,8.8913,8.9306,8.9941,8.9984,8.9984,8.9984,8.9984,8.9984,8.9984,8.9984,9.0101,9.0335,9.0413,9.057,9.0765,9.0804,9.0492,9.0062,8.9984,8.9984,8.9984,8.9984,8.9984,8.9984,8.9984,8.9987,8.9994,8.9964,9.0013,9.0017,8.9986,8.9991,9.003,9.0267,9.0425,9.0428,9.0663,9.1132,9.1562,9.1719,9.2031,9.2304,9.207,9.1718,9.1797,9.2226,9.2578,9.2578,9.2578,9.2578,9.2526,9.2468,9.2401,9.2338,9.2373,9.2359,9.2305,9.2295,9.2295,9.229,9.2249,9.2235,9.2228,9.2176,9.2174,9.2182,9.2199,9.2152,9.2122,9.2112,9.2112,9.2142,9.2103,9.2122,9.216,9.2195,9.2199,9.2221,9.2255,9.229,9.23,9.2273,9.2224,9.2249,9.2235,9.2199,8.611,8.6153,8.6331,8.6303,8.6246,8.6556,8.6533,8.6246,8.6384,8.6571,8.6571,8.6532,8.6839,8.6912,8.7108,8.737,8.7885,8.738,8.7059,8.7069,8.702,8.704,8.7166,8.8016,8.8423,8.8469,8.9394,8.9899,8.9973,8.9973,9.0059,9.0101,9.0218,9.0335,9.0101,9.0257,9.0179,9.0218,9.0257,9.057,9.1194,9.1311,9.1624,9.2248,9.2326,9.1624,9.0218,9.014,9.0218,9.0179,9.0179,9.0062,9.0222,9.0225,9.015,9.0242,9.0128,9.0096,9.0144,9.0228,9.0309,9.0387,9.0859,9.1289,9.1406,9.1953,9.2383,9.2422,9.2461,9.2578,9.2578,9.25,9.2461,9.2578,9.2578,9.2578,9.2578,9.2578,9.2578,9.2578,9.2578,9.2578,9.2519,9.2507,9.2457,9.2342,9.2329,9.2329,9.2334,9.2354,9.23,9.2295,9.2261,9.223,9.2261,9.2284,9.2199,9.2151,9.2141,9.2141,9.219,9.2176,9.2206,9.2235,9.2288,9.2312,9.2323,9.2373,9.2385,9.235,9.2329,9.2344,9.2344,9.2334,9.2323,8.6428,8.6568,8.6649,8.6649,8.663,8.6736,8.6694,8.6696,8.7242,8.7536,8.7614,8.8129,8.8527,8.8748,8.8819,8.8994,8.9348,8.9114,8.8956,8.8834,8.878,8.8793,8.8991,8.9345,8.952,8.9524,8.9817,9.0335,9.0804,9.0882,9.1116,9.1624,9.1702,9.1702,9.1663,9.1702,9.1741,9.1702,9.1702,9.1897,9.2131,9.2131,9.2248,9.2443,9.2482,9.2209,9.178,9.1702,9.1702,9.1663,9.1741,9.1748,9.176,9.1807,9.1814,9.1779,9.1784,9.1789,9.1791,9.1758,9.1719,9.1797,9.2031,9.2148,9.2187,9.2422,9.2578,9.2578,9.2578,9.2578,9.2578,9.2578,9.2578,9.2578,9.2578,9.2578,9.2578,9.2578,9.2578,9.2578,9.2578,9.2578,9.2578,9.2578,9.2539,9.25,9.25,9.25,9.25,9.2463,9.2447,9.2447,9.2381,9.232,9.2334,9.2342,9.2334,9.2256,9.226,9.2238,9.2263,9.2255,9.2318,9.2354,9.2389,9.2443,9.245,9.2461,9.2461,9.2461,9.25,9.2461,9.2461,9.2404,9.2397,8.7087,8.7302,8.7689,8.7797,8.7759,8.7915,8.7898,8.7837,8.8437,8.8659,8.8775,8.9203,8.9574,8.976,8.9822,9.0091,9.0452,9.0452,9.0582,9.0568,8.9978,8.9896,9.0062,9.0374,9.0687,9.0882,9.0921,9.1194,9.1702,9.178,9.2014,9.2443,9.2482,9.2482,9.2482,9.2482,9.2482,9.2482,9.2482,9.2482,9.2482,9.2482,9.2482,9.2482,9.2528,9.2532,9.2532,9.2538,9.2538,9.2535,9.2538,9.2585,9.2593,9.256,9.2605,9.2608,9.2572,9.2575,9.2577,9.25,9.2578,9.2578,9.2578,9.2578,9.2578,9.2578,9.2578,9.2578,9.2578,9.2578,9.2578,9.2578,9.2578,9.2578,9.2578,9.2578,9.2578,9.2578,9.2578,9.2578,9.2578,9.2578,9.2578,9.2578,9.2578,9.2578,9.2578,9.2578,9.2578,9.2578,9.2539,9.2539,9.2478,9.2468,9.2418,9.2418,9.2418,9.2389,9.2359,9.2349,9.2364,9.2377,9.2389,9.2463,9.2523,9.2525,9.2539,9.2539,9.2539,9.2578,9.2578,9.2578,9.2539,9.2539,9.2486,8.8099,8.8254,8.9231,8.945,8.929,8.9671,8.9526,8.9368,8.966,8.9801,8.9794,9.0034,9.0095,9.0165,9.0364,9.0758,9.1233,9.135,9.1663,9.1734,9.1031,9.0371,9.0492,9.1077,9.1663,9.2209,9.2287,9.2365,9.2365,9.2365,9.2482,9.2482,9.2482,9.2482,9.2482,9.2482,9.2482,9.2482,9.2482,9.2482,9.2525,9.2525,9.2528,9.2528,9.258,9.2588,9.2588,9.2597,9.2599,9.259,9.2597,9.2603,9.2605,9.2605,9.2609,9.2574,9.2575,9.2577,9.2578,9.2578,9.2578,9.2578,9.2578,9.2578,9.2578,9.2578,9.2578,9.2578,9.2578,9.2578,9.2578,9.2578,9.2578,9.2578,9.2578,9.2578,9.2578,9.2578,9.2578,9.2578,9.2578,9.2578,9.2578,9.2578,9.2578,9.2578,9.2578,9.2578,9.2578,9.2578,9.2578,9.2578,9.2539,9.2539,9.25,9.25,9.25,9.2482,9.2461,9.2461,9.2461,9.2461,9.2461,9.2532,9.2578,9.2578,9.2578,9.2578,9.2578,9.2578,9.2578,9.2578,9.2578,9.2578,9.2578,8.9326,8.9525,8.9788,8.9901,8.9804,8.9934,8.9966,8.9921,9.0598,9.0842,9.0963,9.1514,9.1679,9.1819,9.178,9.1975,9.2092,9.2131,9.2248,9.2404,9.2131,9.1858,9.1858,9.2053,9.2248,9.2482,9.2482,9.2482,9.2482,9.2482,9.2482,9.2482,9.2482,9.2482,9.2482,9.2486,9.2482,9.2482,9.2482,9.2532,9.258,9.2541,9.2585,9.2556,9.2597,9.2599,9.2601,9.2608,9.2609,9.2601,9.2608,9.2611,9.2611,9.2575,9.2578,9.2578,9.2578,9.2578,9.2578,9.2578,9.2578,9.2578,9.2578,9.2578,9.2578,9.2578,9.2578,9.2578,9.2578,9.2577,9.2534,9.2577,9.2577,9.2534,9.2576,9.2578,9.2578,9.2578,9.2578,9.2578,9.2578,9.2578,9.2578,9.2578,9.2578,9.2578,9.2578,9.2578,9.2578,9.2578,9.2578,9.2578,9.2578,9.2578,9.2578,9.2578,9.2578,9.2578,9.2539,9.2539,9.2539,9.2539,9.2578,9.2578,9.2578,9.2578,9.2578,9.2578,9.2578,9.2578,9.2578,9.2578,9.2578,9.2578,9.2578,9.0447,9.057,9.0921,9.1038,9.1077,9.1038,9.1038,9.1155,9.1546,9.1819,9.1936,9.2287,9.2482,9.2482,9.2482,9.2482,9.2482,9.2482,9.2482,9.2482,9.2443,9.2443,9.2482,9.2482,9.2482,9.2482,9.2482,9.2482,9.2482,9.2482,9.2482,9.2482,9.2482,9.2486,9.2535,9.2535,9.2538,9.2543,9.2543,9.2549,9.2593,9.2595,9.2597,9.2603,9.2606,9.2609,9.2573,9.2576,9.2575,9.2611,9.2574,9.2577,9.2577,9.2578,9.2578,9.2578,9.2578,9.2578,9.2578,9.2578,9.2578,9.2578,9.2578,9.2578,9.2539,9.2536,9.2536,9.2539,9.2539,9.2525,9.2517,9.2523,9.2523,9.2515,9.2523,9.2571,9.2574,9.2578,9.2578,9.2578,9.2578,9.2578,9.2578,9.2578,9.2578,9.2578,9.2578,9.2578,9.2578,9.2578,9.2578,9.2578,9.2578,9.2578,9.2578,9.2578,9.2578,9.2578,9.2578,9.2578,9.2578,9.2578,9.2578,9.2578,9.2578,9.2578,9.2578,9.2578,9.2578,9.2578,9.2578,9.2578,9.2578,9.2578,9.2578,9.1428,9.1507,9.2209,9.2482,9.2443,9.2482,9.2326,9.2443,9.2404,9.2443,9.2443,9.2482,9.2482,9.2482,9.2482,9.2482,9.2482,9.2482,9.2486,9.2528,9.2528,9.2528,9.2535,9.2486,9.2525,9.2525,9.2525,9.2489,9.2532,9.2532,9.2528,9.2532,9.2532,9.2538,9.2585,9.2588,9.2595,9.2599,9.2599,9.2562,9.2605,9.2605,9.2606,9.2609,9.2573,9.2577,9.2578,9.2578,9.2577,9.2575,9.2577,9.2578,9.2578,9.2578,9.2578,9.2578,9.2578,9.2578,9.2578,9.2578,9.2578,9.2578,9.2578,9.2575,9.2526,9.2521,9.2517,9.2499,9.2486,9.2493,9.2489,9.2482,9.2475,9.2475,9.2479,9.2496,9.2517,9.2533,9.2577,9.2578,9.2578,9.2578,9.2578,9.2578,9.2578,9.2578,9.2578,9.2578,9.2578,9.2578,9.2578,9.2578,9.2578,9.2578,9.2578,9.2578,9.2578,9.2578,9.2578,9.2578,9.2578,9.2578,9.2578,9.2578,9.2578,9.2578,9.2578,9.2578,9.2578,9.2578,9.2578,9.2578,9.2578,9.2578,9.2578,9.2248,9.2248,9.2404,9.2482,9.2482,9.2482,9.2482,9.2482,9.2482,9.2482,9.2482,9.2482,9.2482,9.2482,9.2486,9.2482,9.2486,9.2486,9.2528,9.258,9.2583,9.2588,9.2551,9.2538,9.2532,9.2577,9.2528,9.2538,9.2551,9.2588,9.2549,9.2595,9.2593,9.2597,9.2599,9.2601,9.2601,9.2603,9.2605,9.2608,9.2611,9.2611,9.2574,9.2578,9.2578,9.2578,9.2578,9.2578,9.2578,9.2578,9.2578,9.2578,9.2578,9.2578,9.2578,9.2578,9.2578,9.2578,9.2578,9.2536,9.2531,9.253,9.2521,9.2502,9.2499,9.2496,9.2493,9.2482,9.2482,9.2475,9.2471,9.2451,9.244,9.2422,9.2432,9.2437,9.2416,9.2486,9.2515,9.2526,9.2531,9.2533,9.2578,9.2533,9.2531,9.253,9.2521,9.2549,9.2549,9.2512,9.2517,9.256,9.2564,9.2569,9.2567,9.2569,9.2578,9.2578,9.2539,9.256,9.253,9.2539,9.2578,9.2578,9.2578,9.2578,9.2578,9.2578,9.2578,9.2578,9.2578,9.2578,9.2578,9.2578,9.2578,9.2482,9.2482,9.2482,9.2482,9.2482,9.2482,9.2482,9.2482,9.2482,9.2482,9.2482,9.2482,9.2482,9.2486,9.2532,9.2535,9.2538,9.2543,9.2549,9.2595,9.2595,9.2599,9.2601,9.2593,9.2549,9.2593,9.2551,9.2556,9.2599,9.2599,9.2597,9.2603,9.2603,9.2605,9.2609,9.2609,9.2611,9.2574,9.2574,9.2575,9.2577,9.2577,9.2577,9.2578,9.2578,9.2578,9.2578,9.2578,9.2578,9.2578,9.2578,9.2578,9.2578,9.2578,9.2578,9.2578,9.2578,9.2578,9.2539,9.2531,9.2521,9.251,9.2493,9.2475,9.2463,9.2455,9.2442,9.2461,9.2456,9.2456,9.2451,9.2411,9.2419,9.2393,9.2411,9.2411,9.2423,9.2442,9.2489,9.2504,9.251,9.2515,9.2517,9.2517,9.2512,9.2507,9.2504,9.2528,9.2532,9.2499,9.2493,9.2499,9.2504,9.2507,9.2502,9.2507,9.2556,9.2539,9.2539,9.2502,9.2507,9.2517,9.2539,9.2539,9.2578,9.2539,9.2539,9.2539,9.2569,9.2539,9.2539,9.2539,9.2539,9.2539,9.2578,9.2482,9.2482,9.2482,9.2482,9.2482,9.2482,9.2482,9.2482,9.2482,9.2486,9.2528,9.2525,9.2532,9.2535,9.2585,9.2588,9.259,9.2597,9.2601,9.2605,9.2605,9.2608,9.2608,9.2608,9.2608,9.2606,9.2603,9.2605,9.2608,9.2606,9.2608,9.2608,9.2608,9.2611,9.2575,9.2575,9.2577,9.2578,9.2578,9.2578,9.2578,9.2578,9.2578,9.2578,9.2578,9.2578,9.2578,9.2578,9.2578,9.2578,9.2578,9.2578,9.2578,9.2578,9.2578,9.2578,9.2578,9.2539,9.2523,9.2476,9.2463,9.2475,9.2503,9.2446,9.2412,9.2396,9.2417,9.2425,9.2412,9.2412,9.243,9.2391,9.2391,9.2391,9.2391,9.243,9.2412,9.2456,9.249,9.2471,9.2475,9.2482,9.2486,9.2486,9.2479,9.2514,9.251,9.2507,9.251,9.2507,9.2494,9.2455,9.2463,9.2489,9.2489,9.2485,9.2507,9.2486,9.2475,9.2468,9.2468,9.2463,9.2471,9.2493,9.25,9.2493,9.2493,9.2504,9.2502,9.2482,9.2493,9.251,9.2517,9.2519,9.2528,9.2482,9.2482,9.2482,9.2482,9.2482,9.2482,9.2486,9.2482,9.2525,9.2532,9.2583,9.2583,9.2588,9.2595,9.2599,9.2601,9.2603,9.2606,9.2608,9.2611,9.2573,9.2574,9.2577,9.2578,9.2578,9.2577,9.2611,9.261,9.2576,9.2575,9.2575,9.2577,9.2578,9.2578,9.2578,9.2578,9.2578,9.2578,9.2578,9.2578,9.2578,9.2578,9.2578,9.2578,9.2578,9.2578,9.2578,9.2578,9.2578,9.2578,9.2578,9.2578,9.2578,9.2578,9.2578,9.2533,9.253,9.2521,9.2496,9.2463,9.2446,9.2417,9.2429,9.2438,9.2419,9.2412,9.2412,9.2398,9.243,9.243,9.243,9.243,9.243,9.243,9.243,9.243,9.2398,9.2425,9.2429,9.2461,9.2427,9.2437,9.2442,9.2442,9.2471,9.2456,9.2446,9.2435,9.2429,9.2462,9.2444,9.2417,9.2435,9.2446,9.2518,9.2451,9.2423,9.2476,9.2437,9.2446,9.2435,9.2405,9.2417,9.2471,9.2459,9.2468,9.2471,9.251,9.2507,9.2494,9.2507,9.2482,9.2489,9.2493,9.2496,9.2482,9.2482,9.2482,9.2482,9.2486,9.2532,9.2574,9.2577,9.2543,9.2551,9.2595,9.2597,9.2599,9.2603,9.2608,9.2611,9.2578,9.2574,9.2576,9.2577,9.2577,9.2577,9.2578,9.2578,9.2578,9.2578,9.2577,9.2578,9.2578,9.2578,9.2578,9.2578,9.2578,9.2578,9.2578,9.2578,9.2578,9.2578,9.2578,9.2578,9.2578,9.2578,9.2578,9.2578,9.2578,9.2578,9.2578,9.2578,9.2578,9.2578,9.2578,9.2574,9.2572,9.253,9.2525,9.2523,9.2515,9.2493,9.2459,9.2422,9.2407,9.2405,9.2405,9.2391,9.243,9.2391,9.243,9.243,9.243,9.243,9.243,9.243,9.243,9.243,9.243,9.243,9.243,9.243,9.2412,9.2405,9.2411,9.2417,9.2423,9.2417,9.2405,9.2432,9.2412,9.2398,9.243,9.243,9.243,9.2405,9.2393,9.2417,9.2466,9.2423,9.2398,9.2411,9.2435,9.2399,9.2419,9.2405,9.2412,9.2411,9.2446,9.2466,9.2446,9.2429,9.244,9.2451,9.2451,9.2456,9.2442,9.2455,9.2459,9.2528,9.2528,9.2493,9.2535,9.2535,9.2585,9.259,9.2593,9.2599,9.2603,9.2606,9.2606,9.2608,9.2609,9.2574,9.2578,9.2578,9.2578,9.2578,9.2578,9.2578,9.2578,9.2578,9.2578,9.2578,9.2578,9.2578,9.2578,9.2578,9.2578,9.2578,9.2578,9.2578,9.2578,9.2578,9.2578,9.2578,9.2578,9.2578,9.2578,9.2578,9.2578,9.2578,9.2578,9.2578,9.2578,9.2578,9.2578,9.2578,9.2539,9.253,9.2519,9.2515,9.2493,9.2486,9.2465,9.2447,9.2451,9.2412,9.2396,9.2405,9.2405,9.2391,9.243,9.243,9.243,9.243,9.243,9.243,9.243,9.243,9.243,9.243,9.243,9.243,9.243,9.243,9.243,9.243,9.2398,9.243,9.2398,9.2419,9.2419,9.2419,9.2419,9.2398,9.2398,9.243,9.243,9.243,9.243,9.2398,9.2398,9.2419,9.2432,9.2391,9.2412,9.2425,9.2412,9.2398,9.2391,9.2405,9.2419,9.2419,9.2438,9.2398,9.243,9.2425,9.2432,9.2405,9.2412,9.2417,9.2435,9.244,9.2583,9.2585,9.2595,9.2599,9.2599,9.2601,9.2601,9.2601,9.2603,9.2608,9.2573,9.2573,9.2576,9.2578,9.2578,9.2578,9.2578,9.2578,9.2578,9.2578,9.2578,9.2578,9.2578,9.2578,9.2578,9.2578,9.2578,9.2578,9.2578,9.2578,9.2578,9.2578,9.2578,9.2578,9.2578,9.2578,9.2578,9.2578,9.2578,9.2578,9.2578,9.2578,9.2578,9.2578,9.2578,9.2578,9.2578,9.2534,9.2528,9.2526,9.2507,9.2493,9.2482,9.2451,9.2432,9.2432,9.2422,9.2396,9.2425,9.2412,9.2412,9.2391,9.243,9.243,9.243,9.243,9.243,9.243,9.243,9.243,9.243,9.243,9.243,9.243,9.243,9.243,9.243,9.243,9.243,9.243,9.243,9.243,9.2398,9.2391,9.2391,9.243,9.243,9.243,9.243,9.243,9.243,9.243,9.243,9.243,9.243,9.243,9.243,9.243,9.243,9.243,9.243,9.243,9.243,9.2398,9.243,9.243,9.243,9.243,9.243,9.243,9.243,9.243,9.2398,9.2412,9.2425,9.2603,9.2597,9.2601,9.2603,9.2605,9.2608,9.261,9.261,9.2574,9.2576,9.2577,9.2577,9.2578,9.2578,9.2578,9.2578,9.2578,9.2578,9.2578,9.2578,9.2578,9.2578,9.2578,9.2578,9.2578,9.2578,9.2578,9.2578,9.2578,9.2578,9.2578,9.2578,9.2578,9.2578,9.2578,9.2578,9.2578,9.2578,9.2578,9.2578,9.2578,9.2578,9.2578,9.2578,9.2578,9.2535,9.2532,9.2519,9.2507,9.2499,9.2471,9.2451,9.2437,9.2401,9.2399,9.2399,9.2399,9.2425,9.2398,9.243,9.243,9.243,9.243,9.243,9.243,9.243,9.243,9.243,9.243,9.243,9.243,9.243,9.243,9.243,9.243,9.243,9.243,9.243,9.243,9.243,9.243,9.243,9.243,9.243,9.243,9.243,9.243,9.243,9.243,9.243,9.243,9.243,9.243,9.243,9.243,9.243,9.243,9.243,9.243,9.243,9.243,9.243,9.243,9.243,9.243,9.243,9.243,9.243,9.243,9.243,9.243,9.243,9.243,9.2391,9.2405,9.2574,9.2609,9.2609,9.2609,9.2609,9.2574,9.2576,9.2577,9.2578,9.2578,9.2578,9.2578,9.2578,9.2578,9.2578,9.2578,9.2578,9.2578,9.2578,9.2578,9.2578,9.2578,9.2578,9.2578,9.2578,9.2578,9.2578,9.2578,9.2578,9.2578,9.2578,9.2578,9.2578,9.2578,9.2578,9.2578,9.2578,9.2578,9.2578,9.2578,9.2578,9.2578,9.2578,9.2539,9.2526,9.2517,9.2515,9.2489,9.2471,9.2459,9.2422,9.239,9.2417,9.2432,9.2398,9.2398,9.2398,9.2398,9.2391,9.243,9.243,9.243,9.243,9.243,9.243,9.243,9.243,9.243,9.243,9.243,9.243,9.243,9.243,9.243,9.243,9.243,9.243,9.243,9.243,9.243,9.243,9.243,9.243,9.243,9.243,9.243,9.243,9.243,9.243,9.243,9.243,9.243,9.243,9.243,9.243,9.243,9.243,9.243,9.243,9.243,9.243,9.243,9.243,9.243,9.243,9.243,9.243,9.243,9.243,9.243,9.243,9.243,9.243,9.243,9.2384,9.2578,9.2578,9.2578,9.2578,9.2578,9.2578,9.2578,9.2578,9.2578,9.2578,9.2578,9.2578,9.2578,9.2578,9.2578,9.2578,9.2578,9.2578,9.2578,9.2578,9.2578,9.2578,9.2578,9.2578,9.2578,9.2578,9.2578,9.2578,9.2578,9.2578,9.2578,9.2578,9.2578,9.2578,9.2578,9.2578,9.2578,9.2578,9.2578,9.2539,9.2532,9.2526,9.2519,9.2502,9.2493,9.2486,9.2486,9.2446,9.2417,9.2417,9.2411,9.2412,9.2412,9.2398,9.243,9.243,9.243,9.243,9.243,9.243,9.243,9.243,9.243,9.243,9.243,9.243,9.243,9.243,9.243,9.243,9.243,9.243,9.243,9.243,9.243,9.243,9.243,9.243,9.243,9.243,9.243,9.243,9.243,9.243,9.243,9.243,9.243,9.243,9.243,9.243,9.243,9.243,9.243,9.243,9.243,9.243,9.243,9.243,9.243,9.243,9.243,9.243,9.243,9.243,9.243,9.243,9.243,9.243,9.243,9.243,9.243,9.243,9.243,9.243,9.2377,9.2578,9.2578,9.2578,9.2578,9.2578,9.2578,9.2578,9.2578,9.2578,9.2578,9.2578,9.2578,9.2578,9.2578,9.2578,9.2578,9.2578,9.2578,9.2578,9.2578,9.2578,9.2578,9.2578,9.2578,9.2578,9.2578,9.2578,9.2578,9.2578,9.2578,9.2578,9.2578,9.2578,9.2578,9.2578,9.2578,9.2578,9.2578,9.2575,9.253,9.2526,9.251,9.2496,9.2486,9.2451,9.2446,9.2437,9.2429,9.2405,9.2425,9.2405,9.2391,9.243,9.243,9.243,9.243,9.243,9.2384,9.2384,9.2384,9.243,9.243,9.243,9.243,9.243,9.243,9.243,9.243,9.243,9.243,9.243,9.243,9.243,9.243,9.243,9.243,9.243,9.243,9.243,9.243,9.243,9.243,9.243,9.243,9.243,9.243,9.243,9.243,9.243,9.243,9.243,9.243,9.243,9.243,9.243,9.243,9.243,9.243,9.243,9.243,9.243,9.243,9.243,9.243,9.243,9.243,9.243,9.243,9.2391,9.2384,9.2384,9.243,9.243,9.2377,9.2293,9.2578,9.2578,9.2578,9.2578,9.2578,9.2578,9.2578,9.2578,9.2578,9.2578,9.2578,9.2578,9.2578,9.2578,9.2578,9.2578,9.2578,9.2578,9.2578,9.2578,9.2578,9.2578,9.2578,9.2578,9.2578,9.2578,9.2578,9.2578,9.2539,9.2578,9.2578,9.2578,9.2578,9.2578,9.2578,9.2574,9.2573,9.257,9.2525,9.2471,9.2463,9.2482,9.249,9.2481,9.2401,9.2429,9.2417,9.2425,9.2405,9.2398,9.243,9.243,9.243,9.243,9.243,9.243,9.2384,9.2384,9.2377,9.2384,9.2384,9.243,9.243,9.243,9.2391,9.2391,9.243,9.243,9.243,9.2384,9.2384,9.243,9.243,9.243,9.243,9.243,9.243,9.243,9.243,9.243,9.243,9.243,9.243,9.243,9.243,9.243,9.243,9.243,9.243,9.243,9.243,9.243,9.243,9.243,9.243,9.243,9.243,9.243,9.243,9.243,9.243,9.243,9.243,9.243,9.243,9.243,9.237,9.2347,9.2362,9.2384,9.2362,9.2276,9.2252,9.2178,9.2113,9.2578,9.2578,9.2578,9.2578,9.2578,9.2578,9.2578,9.2578,9.2578,9.2578,9.2578,9.2578,9.2578,9.2578,9.2578,9.2578,9.2578,9.2578,9.2578,9.2578,9.2578,9.2578,9.2578,9.2578,9.2578,9.2578,9.2577,9.2572,9.2487,9.2526,9.2517,9.2502,9.2502,9.2507,9.2484,9.2504,9.2489,9.2486,9.2489,9.2468,9.2446,9.2427,9.2429,9.2438,9.2419,9.2412,9.2405,9.2405,9.243,9.243,9.243,9.243,9.243,9.243,9.2384,9.2384,9.2384,9.237,9.2339,9.237,9.2377,9.237,9.2362,9.237,9.2377,9.2384,9.237,9.2362,9.237,9.2377,9.2384,9.2384,9.2377,9.2377,9.2377,9.2384,9.2384,9.243,9.243,9.243,9.243,9.243,9.243,9.243,9.243,9.243,9.243,9.243,9.243,9.243,9.243,9.243,9.243,9.243,9.243,9.243,9.243,9.243,9.243,9.243,9.243,9.243,9.243,9.2384,9.2355,9.2285,9.226,9.2243,9.2195,9.2169,9.2141,9.2103,9.2073,9.1993,9.1928,9.2578,9.2578,9.2578,9.2578,9.2578,9.2578,9.2578,9.2578,9.2578,9.2578,9.2578,9.2578,9.2578,9.2578,9.2578,9.2578,9.2578,9.2578,9.2578,9.2578,9.2578,9.2539,9.2535,9.2532,9.2528,9.2519,9.2554,9.2554,9.2502,9.2502,9.2499,9.2482,9.2455,9.2468,9.2489,9.2486,9.2486,9.2479,9.2459,9.2432,9.2412,9.2411,9.2419,9.243,9.243,9.243,9.243,9.243,9.243,9.2384,9.2384,9.2384,9.2384,9.2384,9.237,9.2355,9.2308,9.2293,9.226,9.226,9.2268,9.2268,9.2276,9.2276,9.2268,9.2268,9.2268,9.2276,9.2285,9.2276,9.2268,9.2268,9.2268,9.23,9.2308,9.237,9.2377,9.2384,9.243,9.243,9.243,9.243,9.243,9.243,9.243,9.243,9.243,9.243,9.243,9.243,9.243,9.243,9.243,9.243,9.243,9.243,9.243,9.243,9.243,9.243,9.243,9.237,9.2285,9.2243,9.2178,9.216,9.2024,9.1939,9.195,9.1928,9.1796,9.182,9.1882,9.1847,9.1798,9.2578,9.2578,9.2578,9.2578,9.2578,9.2578,9.2578,9.2578,9.2578,9.2578,9.2578,9.2578,9.2578,9.2578,9.2578,9.2578,9.2578,9.2578,9.2539,9.2576,9.2578,9.2525,9.2517,9.2512,9.2507,9.2486,9.2518,9.2482,9.2463,9.2463,9.2451,9.2422,9.2407,9.2407,9.2466,9.2466,9.2466,9.2417,9.2396,9.2417,9.2405,9.2419,9.2391,9.243,9.243,9.243,9.243,9.2384,9.2384,9.2384,9.2377,9.237,9.237,9.2355,9.23,9.2276,9.2252,9.2234,9.2208,9.2171,9.2171,9.2171,9.216,9.2178,9.2187,9.2234,9.2234,9.2195,9.2178,9.2178,9.2178,9.2178,9.2226,9.226,9.2276,9.2331,9.2339,9.2347,9.2362,9.237,9.2377,9.2384,9.2384,9.243,9.243,9.243,9.243,9.243,9.243,9.243,9.243,9.243,9.2384,9.2384,9.2384,9.243,9.243,9.243,9.237,9.23,9.2285,9.2243,9.2141,9.2034,9.1993,9.1905,9.1683,9.1589,9.1508,9.1406,9.1268,9.1361,9.1616,9.1627,9.1528,9.2578,9.2578,9.2578,9.2578,9.2578,9.2578,9.2578,9.2578,9.2578,9.2578,9.2578,9.2578,9.2578,9.2578,9.2578,9.2578,9.2578,9.2539,9.2526,9.2521,9.251,9.2496,9.2486,9.2482,9.2471,9.2475,9.2463,9.2427,9.2407,9.2345,9.2354,9.2419,9.2419,9.2419,9.2425,9.2425,9.2425,9.2425,9.2425,9.2359,9.2331,9.2331,9.2331,9.2285,9.2221,9.2238,9.2285,9.2293,9.2308,9.2316,9.2308,9.2293,9.2276,9.2252,9.2195,9.2208,9.218,9.22,9.2181,9.2151,9.2131,9.2112,9.2161,9.2199,9.2169,9.219,9.219,9.219,9.219,9.2199,9.2208,9.2199,9.2199,9.2217,9.2217,9.2234,9.2243,9.226,9.2285,9.2339,9.2355,9.2362,9.2362,9.2362,9.2362,9.237,9.237,9.2384,9.2384,9.243,9.243,9.243,9.2384,9.2377,9.237,9.23,9.226,9.2226,9.2139,9.2112,9.2093,9.2034,9.19,9.1808,9.1747,9.1616,9.1369,9.1159,9.0982,9.0894,9.0818,9.0949,9.1209,9.1198,9.1133,9.2578,9.2578,9.2578,9.2578,9.2578,9.2535,9.2575,9.2578,9.2578,9.2578,9.2578,9.2578,9.2578,9.2532,9.2539,9.2525,9.2515,9.2504,9.2499,9.2493,9.2479,9.2463,9.2446,9.2432,9.2412,9.2423,9.2399,9.232,9.2199,9.2182,9.2277,9.2384,9.2355,9.2362,9.2362,9.2384,9.2362,9.2362,9.2308,9.2276,9.2187,9.216,9.2113,9.1965,9.1811,9.1883,9.2064,9.1975,9.2006,9.2187,9.2204,9.2195,9.2204,9.2187,9.2217,9.221,9.2171,9.2131,9.2131,9.212,9.211,9.211,9.2151,9.2112,9.2112,9.2122,9.2132,9.2132,9.2142,9.2142,9.2142,9.2142,9.2152,9.2161,9.2171,9.218,9.2199,9.2217,9.2243,9.226,9.2285,9.2285,9.2285,9.2276,9.2276,9.23,9.2308,9.23,9.237,9.237,9.2362,9.2362,9.2254,9.2229,9.2178,9.2132,9.2073,9.1982,9.1883,9.18,9.1781,9.1708,9.1618,9.1508,9.1385,9.1231,9.1044,9.0858,9.0645,9.0605,9.0564,9.0663,9.0722,9.078,9.0761,9.2261,9.2531,9.2535,9.2534,9.253,9.2519,9.2521,9.2569,9.257,9.2569,9.2569,9.2578,9.2564,9.2515,9.2512,9.2504,9.2489,9.2468,9.2459,9.2455,9.2481,9.2446,9.2378,9.2341,9.2284,9.2276,9.2217,9.2064,9.1993,9.1982,9.2083,9.2132,9.216,9.2093,9.2016,9.1926,9.1877,9.1957,9.2035,9.2025,9.1954,9.1816,9.172,9.1552,9.1335,9.1527,9.1769,9.1592,9.1643,9.1872,9.1883,9.1839,9.1933,9.2034,9.2152,9.2151,9.2131,9.212,9.211,9.211,9.211,9.211,9.211,9.211,9.211,9.212,9.212,9.212,9.212,9.211,9.211,9.211,9.2131,9.2151,9.2161,9.2171,9.2191,9.218,9.2199,9.2178,9.2187,9.2195,9.2187,9.2187,9.2178,9.2187,9.2102,9.1996,9.2121,9.2293,9.2268,9.2252,9.2082,9.1996,9.1915,9.1805,9.1657,9.1579,9.1475,9.142,9.1427,9.1323,9.1197,9.1052,9.0914,9.078,9.0699,9.0538,9.041,9.0329,9.0263,9.0263,9.0351,9.0499,9.0496,9.1653,9.2372,9.2476,9.2512,9.2486,9.2482,9.2479,9.2479,9.2475,9.2518,9.2486,9.2486,9.2489,9.2479,9.2479,9.2471,9.249,9.2461,9.2407,9.2401,9.2411,9.2405,9.2269,9.2187,9.2151,9.2024,9.195,9.1905,9.1835,9.181,9.1798,9.1785,9.1784,9.172,9.1515,9.1488,9.1448,9.1378,9.158,9.1682,9.1473,9.1335,9.1291,9.1098,9.1066,9.1161,9.1378,9.1364,9.1222,9.1349,9.1402,9.1276,9.1579,9.182,9.1967,9.212,9.211,9.211,9.211,9.211,9.211,9.211,9.211,9.2088,9.2077,9.2099,9.211,9.211,9.211,9.211,9.211,9.211,9.212,9.2131,9.2131,9.2141,9.2151,9.2171,9.2152,9.2171,9.2171,9.2171,9.2113,9.2103,9.1933,9.2024,9.1861,9.1682,9.1742,9.1957,9.1946,9.1905,9.1811,9.1616,9.1448,9.1305,9.1161,9.1082,9.1033,9.1005,9.0997,9.0854,9.0724,9.0684,9.0661,9.0474,9.0362,9.0212,9.0121,9.0006,8.9958,8.9863,8.9958,9.0152,9.0235,9.0736,9.1588,9.2219,9.2489,9.2479,9.2451,9.2432,9.2427,9.2423,9.2456,9.2514,9.2479,9.2463,9.2437,9.2422,9.2407,9.2399,9.2366,9.2412,9.2366,9.237,9.226,9.2169,9.2034,9.1972,9.1905,9.1823,9.1683,9.163,9.1575,9.1508,9.1473,9.1445,9.1305,9.1129,9.1114,9.1017,9.0831,9.0954,9.1088,9.0954,9.0885,9.087,9.0666,9.0568,9.0628,9.0779,9.076,9.0852,9.101,9.1044,9.1229,9.1536,9.1591,9.181,9.2028,9.211,9.2099,9.2088,9.2088,9.2077,9.2049,9.2039,9.1994,9.1994,9.2077,9.2099,9.2099,9.2099,9.2099,9.211,9.211,9.211,9.211,9.211,9.211,9.211,9.212,9.2141,9.2141,9.2151,9.2092,9.2032,9.1917,9.1784,9.1579,9.1335,9.1176,9.1207,9.1325,9.1243,9.1252,9.1325,9.1192,9.0983,9.0849,9.0703,9.0608,9.0548,9.0546,9.0544,9.0503,9.0461,9.0478,9.041,9.0235,9.0098,8.9982,8.9887,8.9741,8.9629,8.9579,8.9579,8.9752,8.9825,8.9832,9.0633,9.1525,9.1876,9.1949,9.2228,9.2411,9.2405,9.2405,9.2366,9.2366,9.2396,9.244,9.2354,9.2327,9.2253,9.226,9.216,9.2122,9.2132,9.2141,9.2073,9.1961,9.1796,9.1643,9.1533,9.1284,9.1171,9.1252,9.1121,9.1018,9.1027,9.101,9.0902,9.074,9.0704,9.0628,9.0364,9.0385,9.0385,9.0406,9.0464,9.0402,9.0197,9.0129,9.0225,9.0296,9.0339,9.0423,9.0607,9.0704,9.0926,9.1213,9.1412,9.1709,9.1955,9.2099,9.2088,9.2044,9.1983,9.1971,9.1909,9.1873,9.1786,9.1786,9.1824,9.1924,9.1924,9.1999,9.201,9.2088,9.211,9.211,9.211,9.211,9.211,9.211,9.211,9.212,9.212,9.1989,9.1759,9.1657,9.1494,9.1353,9.1261,9.0954,9.0759,9.0739,9.0718,9.0665,9.0646,9.0757,9.074,9.0568,9.0423,9.0274,9.0174,9.0121,9.0106,9.0159,9.0174,9.0152,9.019,9.0144,9.0052,8.9911,8.9766,8.9579,8.9452,8.94,8.9374,8.9374,8.9258,8.9205,8.8902,8.9703,9.056,9.1028,9.1215,9.1863,9.2245,9.2362,9.2308,9.2234,9.2122,9.2221,9.2339,9.226,9.2151,9.2113,9.2053,9.195,9.187,9.1772,9.1772,9.1657,9.1522,9.1331,9.1204,9.1,9.08,9.0684,9.0645,9.0623,9.0623,9.0517,9.0432,9.0389,9.0212,9.0121,9.006,8.9991,8.9944,8.9849,8.9911,9.0043,8.9982,8.9887,8.9814,8.9991,9.0091,9.0114,9.0045,9.0159,9.0339,9.0568,9.0854,9.1149,9.1494,9.1773,9.1921,9.1924,9.1888,9.1863,9.176,9.1655,9.16,9.1585,9.1585,9.1638,9.1707,9.1773,9.1825,9.1888,9.1971,9.2017,9.2017,9.2005,9.2017,9.2005,9.2005,9.1983,9.1933,9.1921,9.1696,9.1427,9.1292,9.1099,9.0944,9.0836,9.0666,9.0447,9.0317,9.0258,9.0215,9.0236,9.0284,9.0247,9.0167,9.0121,8.9991,8.9944,8.9935,8.9839,8.9814,8.9935,8.9958,8.9863,8.9814,8.9654,8.9579,8.9452,8.9284,8.8979,8.9017,8.8962,8.8786,8.8673,8.8463,8.7962,8.8845,8.9664,9.0436,9.1006,9.1114,9.1489,9.2054,9.1982,9.1894,9.1882,9.1882,9.1917,9.1917,9.1894,9.1847,9.1823,9.1747,9.1618,9.15,9.1388,9.1238,9.106,9.0926,9.0781,9.0625,9.0499,9.0499,9.0351,9.0394,9.041,9.0257,9.0235,9.0121,8.9935,8.9863,8.9863,8.979,8.979,8.979,8.979,8.9839,8.9839,8.979,8.979,8.9863,8.9887,8.9839,8.9863,8.9911,8.9944,9.0181,9.0447,9.078,9.1082,9.1406,9.1589,9.1655,9.1614,9.1666,9.1571,9.1543,9.1513,9.1522,9.1492,9.1446,9.1492,9.1507,9.1567,9.1666,9.1708,9.1722,9.1722,9.1708,9.1708,9.1695,9.1682,9.148,9.1338,9.1277,9.111,9.0975,9.0905,9.0685,9.0488,9.0322,9.0165,8.9976,8.9968,8.9825,8.9766,8.9801,8.9897,8.9873,8.9863,8.9911,8.9839,8.979,8.9766,8.9716,8.9716,8.979,8.9766,8.9388,8.9258,8.9087,8.9033,8.8832,8.8607,8.8375,8.85,8.8471,8.8265,8.7985,8.7672]}]]